[[{"header":{"parameterUnit":"m.s-1","parameterCategory":1,"la1":31.0,"la2":29.5877,"lo1":-88.7671,"lo2":-86.6584,"dy":0.0162,"dx":0.0185,"nx":115,"ny":88,"refTime":"2024-05-03T06:00:00:Z","depth":0,"parameterNumber":2,"parameterNumberName":"U-component_of_WINDS"},"data":[0.0,0.0,0.0,0.0,0.0,0.0,0.0,0.0,0.0,0.0,0.0,0.0,0.0,0.0,0.0,0.0,0.0,0.0,0.0,0.0,0.0,0.0,0.0,0.0,0.0,0.0,0.0,0.0,0.0,0.0,0.0,0.0,0.0,0.0,0.0,0.0,0.0,0.0,0.0,0.0,0.0,0.0,0.0,0.0,0.0,0.0,0.0,0.0,0.0,0.0,0.0,0.0,0.0,0.0,0.0,0.0,0.0,0.0,0.0,0.0,0.0,0.0,0.0,0.0,0.0,0.0,0.0,0.0,0.0,0.0,0.0,0.0,0.0,0.0,0.0,0.0,0.0,0.0,0.0,0.0,0.0,0.0,0.0,0.0,0.0,0.0,0.0,0.0,0.0,0.0,0.0,0.0,0.0,0.0,0.0,0.0,0.0,0.0,0.0,0.0,0.0,0.0,0.0,0.0,0.0,0.0,0.0,0.0,0.0,0.0,0.0,0.0,0.0,0.0,0.0,0.0,0.0,0.0,0.0,0.0,0.0,0.0,0.0,0.0,0.0,0.0,0.0,0.0,0.0,0.0,0.0,0.0,0.0,0.0,0.0,0.0,0.0,0.0,0.0,0.0,0.0,0.0,0.0,0.0,0.0,0.0,0.0,0.0,0.0,0.0,0.0,0.0,0.0,0.0,0.0,0.0,0.0,0.0,0.0,0.0,0.0,0.0,0.0,0.0,0.0,0.0,0.0,0.0,0.0,0.0,0.0,0.0,0.0,0.0,0.0,0.0,0.0,0.0,0.0,0.0,0.0,0.0,0.0,0.0,0.0,0.0,0.0,0.0,0.0,0.0,0.0,0.0,0.0,0.0,0.0,0.0,0.0,0.0,0.0,0.0,0.0,0.0,0.0,0.0,0.0,0.0,0.0,0.0,0.0,0.0,0.0,0.0,0.0,0.0,0.0,0.0,0.0,0.0,0.0,0.0,0.0,0.0,0.0,0.0,0.0,0.0,0.0,0.0,0.0,0.0,0.0,0.0,0.0,0.0,0.0,0.0,0.0,0.0,0.0,0.0,0.0,0.0,0.0,0.0,0.0,0.0,0.0,0.0,0.0,0.0,0.0,0.0,0.0,0.0,0.0,0.0,0.0,0.0,0.0,0.0,0.0,0.0,0.0,0.0,0.0,0.0,0.0,0.0,0.0,0.0,0.0,0.0,0.0,0.0,0.0,0.0,0.0,0.0,0.0,0.0,0.0,0.0,0.0,0.0,0.0,0.0,0.0,0.0,0.0,0.0,0.0,0.0,0.0,0.0,0.0,0.0,0.0,0.0,0.0,0.0,0.0,0.0,0.0,0.0,0.0,0.0,0.0,0.0,0.0,0.0,0.0,0.0,0.0,0.0,0.0,0.0,0.0,0.0,0.0,0.0,0.0,0.0,0.0,0.0,0.0,0.0,0.0,0.0,0.0,0.0,0.0,0.0,0.0,0.0,0.0,0.0,0.0,0.0,0.0,0.0,0.0,0.0,0.0,0.0,0.0,0.0,0.0,0.0,0.0,0.0,0.0,0.0,0.0,0.0,0.0,0.0,0.0,0.0,0.0,0.0,0.0,0.0,0.0,0.0,0.0,0.0,0.0,0.0,0.0,0.0,0.0,0.0,0.0,0.0,0.0,0.0,0.0,0.0,0.0,0.0,0.0,0.0,0.0,0.0,0.0,0.0,0.0,0.0,0.0,0.0,0.0,0.0,0.0,0.0,0.0,0.0,0.0,0.0,0.0,0.0,0.0,0.0,0.0,0.0,0.0,0.0,0.0,0.0,0.0,0.0,0.0,0.0,0.0,0.0,0.0,0.0,0.0,0.0,0.0,0.0,0.0,0.0,0.0,0.0,0.0,0.0,0.0,0.0,0.0,0.0,0.0,0.0,0.0,0.0,0.0,0.0,0.0,0.0,0.0,0.0,0.0,0.0,0.0,0.0,0.0,0.0,0.0,0.0,0.0,0.0,0.0,0.0,0.0,0.0,0.0,0.0,0.0,0.0,0.0,0.0,0.0,0.0,0.0,0.0,0.0,0.0,0.0,0.0,0.0,0.0,0.0,0.0,0.0,0.0,0.0,0.0,0.0,0.0,0.0,0.0,0.0,0.0,0.0,0.0,0.0,0.0,0.0,0.0,0.0,0.0,0.0,0.0,0.0,0.0,0.0,0.0,0.0,0.0,0.0,0.0,0.0,0.0,0.0,0.0,0.0,0.0,0.0,0.0,0.0,0.0,0.0,0.0,0.0,0.0,0.0,0.0,0.0,0.0,0.0,0.0,0.0,0.0,0.0,0.0,0.0,0.0,0.0,0.0,0.0,0.0,0.0,0.0,0.0,0.0,0.0,0.0,0.0,0.0,0.0,0.0,0.0,0.0,0.0,0.0,0.0,0.0,0.0,0.0,0.0,0.0,0.0,0.0,0.0,0.0,0.0,0.0,0.0,0.0,0.0,0.0,0.0,0.0,0.0,0.0,0.0,0.0,0.0,0.0,0.0,0.0,0.0,0.0,0.0,0.0,0.0,0.0,0.0,0.0,0.0,0.0,0.0,0.0,0.0,0.0,0.0,0.0,0.0,0.0,0.0,0.0,0.0,0.0,0.0,0.0,0.0,0.0,0.0,0.0,0.0,0.0,0.0,0.0,0.0,0.0,0.0,0.0,0.0,0.0,0.0,0.0,0.0,0.0,0.0,0.0,0.0,0.0,0.0,0.0,0.0,0.0,0.0,0.0,0.0,0.0,0.0,0.0,0.0,0.0,0.0,0.0,0.0,0.0,0.0,0.0,0.0,0.0,0.0,0.0,0.0,0.0,0.0,0.0,0.0,0.0,0.0,0.0,0.0,0.0,0.0,0.0,0.0,0.0,0.0,0.0,0.0,0.0,0.0,0.0,0.0,0.0,0.0,0.0,0.0,0.0,0.0,0.0,0.0,0.0,0.0,0.0,0.0,0.0,0.0,0.0,0.0,0.0,0.0,0.0,0.0,0.0,0.0,0.0,0.0,0.0,0.0,0.0,0.0,0.0,0.0,0.0,0.0,0.0,0.0,0.0,0.0,0.0,0.0,0.0,0.0,0.0,0.0,0.0,0.0,0.0,0.0,0.0,0.0,0.0,0.0,0.0,0.0,0.0,0.0,0.0,0.0,0.0,0.0,0.0,0.0,0.0,0.0,0.0,0.0,0.0,0.0,0.0,0.0,0.0,0.0,0.0,0.0,0.0,0.0,0.0,0.0,0.0,0.0,0.0,0.0,0.0,0.0,0.0,0.0,0.0,0.0,0.0,0.0,0.0,0.0,0.0,0.0,0.0,0.0,0.0,0.0,0.0,0.0,0.0,0.0,0.0,0.0,0.0,0.0,0.0,0.0,0.0,0.0,0.0,0.0,0.0,0.0,0.0,0.0,0.0,0.0,0.0,0.0,0.0,0.0,0.0,0.0,0.0,0.0,0.0,0.0,0.0,0.0,0.0,0.0,0.0,0.0,0.0,0.0,0.0,0.0,0.0,0.0,0.0,0.0,0.0,0.0,0.0,0.0,0.0,0.0,0.0,0.0,0.0,0.0,0.0,0.0,0.0,0.0,0.0,0.0,0.0,0.0,0.0,0.0,0.0,0.0,0.0,0.0,0.0,0.0,0.0,0.0,0.0,0.0,0.0,0.0,0.0,0.0,0.0,0.0,0.0,0.0,0.0,0.0,0.0,0.0,0.0,0.0,0.0,0.0,0.0,0.0,0.0,0.0,0.0,0.0,0.0,0.0,0.0,0.0,0.0,0.0,0.0,0.0,0.0,0.0,0.0,0.0,0.0,0.0,0.0,0.0,0.0,0.0,0.0,0.0,0.0,0.0,0.0,0.0,0.0,0.0,0.0,0.0,0.0,0.0,0.0,0.0,0.0,0.0,0.0,0.0,0.0,0.0,0.0,0.0,0.0,0.0,0.0,0.0,0.0,0.0,0.0,0.0,0.0,0.0,0.0,0.0,0.0,0.0,0.0,0.0,0.0,0.0,0.0,0.0,0.0,0.0,0.0,0.0,0.0,0.0,0.0,0.0,0.0,0.0,0.0,0.0,0.0,0.0,0.0,0.0,0.0,0.0,0.0,0.0,0.0,0.0,0.0,0.0,0.0,0.0,0.0,0.0,0.0,0.0,0.0,0.0,0.0,0.0,0.0,0.0,0.0,0.0,0.0,0.0,0.0,0.0,0.0,0.0,0.0,0.0,0.0,0.0,0.0,0.0,0.0,0.0,0.0,0.0,0.0,-0.7204,0.0,0.0,0.0,0.0,0.0,0.0,0.0,0.0,0.0,0.0,0.0,0.0,0.0,0.0,0.0,0.0,0.0,0.0,0.0,0.0,0.0,0.0,0.0,0.0,0.0,0.0,0.0,0.0,0.0,0.0,0.0,0.0,0.0,0.0,0.0,0.0,0.0,0.0,0.0,0.0,0.0,0.0,0.0,0.0,0.0,0.0,0.0,0.0,0.0,0.0,0.0,0.0,0.0,0.0,0.0,0.0,0.0,0.0,0.0,0.0,0.0,0.0,0.0,0.0,0.0,0.0,0.0,0.0,0.0,0.0,0.0,0.0,0.0,0.0,0.0,0.0,0.0,0.0,0.0,0.0,0.0,0.0,0.0,0.0,0.0,0.0,0.0,0.0,0.0,0.0,0.0,0.0,0.0,0.0,0.0,0.0,0.0,0.0,0.0,0.0,0.0,0.0,0.0,0.0,0.0,0.0,0.0,0.0,0.0,0.0,-0.6547,-0.6936,-0.7137,-0.7531,-0.8115,0.0,0.0,0.0,0.0,0.0,0.0,0.0,0.0,0.0,0.0,0.0,0.0,0.0,0.0,0.0,0.0,0.0,0.0,0.0,0.0,0.0,0.0,0.0,0.0,0.0,0.0,0.0,0.0,0.0,0.0,0.0,0.0,0.0,0.0,0.0,0.0,0.0,0.0,0.0,0.0,0.0,0.0,0.0,0.0,0.0,0.0,0.0,0.0,0.0,0.0,0.0,0.0,0.0,0.0,0.0,0.0,0.0,0.0,0.0,0.0,0.0,0.0,0.0,0.0,0.0,0.0,0.0,0.0,0.0,0.0,0.0,0.0,0.0,0.0,0.0,0.0,0.0,0.0,0.0,0.0,0.0,0.0,0.0,0.0,0.0,0.0,0.0,0.0,0.0,0.0,0.0,0.0,0.0,0.0,0.0,0.0,0.0,0.0,0.0,0.0,0.0,0.0,0.0,0.0,0.0,0.0,0.0,0.0,0.0,0.0,0.0,0.0,-0.776,-0.8172,-0.9206,0.0,0.0,0.0,0.0,0.0,0.0,0.0,0.0,0.0,0.0,0.0,0.0,0.0,0.0,0.0,0.0,0.0,0.0,0.0,0.0,0.0,0.0,0.0,0.0,0.0,0.0,0.0,0.0,0.0,0.0,0.0,0.0,0.0,0.0,0.0,0.0,0.0,0.0,0.0,0.0,0.0,0.0,0.0,0.0,0.0,0.0,0.0,0.0,0.0,0.0,0.0,0.0,0.0,0.0,0.0,0.0,0.0,0.0,0.0,0.0,0.0,0.0,0.0,0.0,0.0,0.0,0.0,0.0,0.0,0.0,0.0,0.0,0.0,0.0,0.0,0.0,0.0,0.0,0.0,0.0,0.0,0.0,0.0,0.0,0.0,0.0,0.0,0.0,0.0,0.0,0.0,0.0,0.0,0.0,0.0,0.0,0.0,0.0,0.0,0.0,0.0,0.0,0.0,0.0,0.0,0.0,0.0,0.0,0.0,0.0,-0.7408,-0.9073,-0.9126,0.0,-1.0251,0.0,0.0,0.0,0.0,0.0,0.0,0.0,0.0,0.0,0.0,0.0,0.0,0.0,0.0,0.0,0.0,0.0,0.0,0.0,0.0,0.0,0.0,0.0,0.0,0.0,0.0,0.0,0.0,0.0,0.0,0.0,0.0,0.0,0.0,0.0,0.0,0.0,0.0,0.0,0.0,0.0,0.0,0.0,0.0,0.0,0.0,0.0,0.0,0.0,0.0,0.0,0.0,0.0,0.0,0.0,0.0,0.0,0.0,0.0,0.0,0.0,0.0,0.0,0.0,0.0,0.0,0.0,0.0,0.0,0.0,0.0,0.0,0.0,0.0,0.0,0.0,0.0,0.0,0.0,0.0,0.0,0.0,0.0,0.0,0.0,0.0,0.0,0.0,0.0,0.0,0.0,0.0,0.0,0.0,0.0,0.0,0.0,0.0,0.0,0.0,0.0,0.0,0.0,0.0,0.0,0.0,0.0,0.0,0.0,0.0,-0.7706,-0.9053,-0.9514,-0.9744,0.0,0.0,0.0,0.0,0.0,0.0,0.0,0.0,0.0,0.0,0.0,0.0,0.0,0.0,0.0,0.0,0.0,0.0,0.0,0.0,0.0,0.0,0.0,0.0,0.0,0.0,0.0,0.0,0.0,0.0,0.0,0.0,0.0,0.0,0.0,0.0,0.0,0.0,0.0,0.0,0.0,0.0,0.0,0.0,0.0,0.0,0.0,0.0,0.0,0.0,0.0,0.0,0.0,0.0,0.0,0.0,0.0,0.0,0.0,0.0,0.0,0.0,0.0,0.0,0.0,0.0,0.0,0.0,0.0,0.0,0.0,0.0,0.0,0.0,0.0,0.0,0.0,0.0,0.0,0.0,0.0,0.0,0.0,0.0,0.0,0.0,0.0,0.0,0.0,0.0,0.0,0.0,0.0,0.0,0.0,0.0,0.0,0.0,0.0,0.0,0.0,0.0,0.0,0.0,0.0,0.0,0.0,0.0,0.0,0.0,-0.7621,-0.8219,-0.9367,-0.9821,-0.9859,-0.9466,0.0,0.0,0.0,0.0,0.0,0.0,0.0,0.0,0.0,0.0,0.0,0.0,0.0,0.0,0.0,0.0,0.0,0.0,0.0,0.0,0.0,0.0,0.0,0.0,0.0,0.0,0.0,0.0,0.0,0.0,0.0,0.0,0.0,0.0,0.0,0.0,0.0,0.0,0.0,0.0,0.0,0.0,0.0,0.0,0.0,0.0,0.0,0.0,0.0,0.0,0.0,0.0,0.0,0.0,0.0,0.0,0.0,0.0,0.0,0.0,0.0,0.0,0.0,0.0,0.0,0.0,0.0,0.0,0.0,0.0,0.0,0.0,0.0,0.0,0.0,0.0,0.0,0.0,0.0,0.0,0.0,0.0,0.0,0.0,0.0,0.0,0.0,0.0,0.0,0.0,0.0,0.0,0.0,0.0,0.0,0.0,0.0,0.0,0.0,0.0,0.0,0.0,0.0,0.0,0.0,0.0,0.0,0.0,-0.9753,-0.8817,-0.9037,-1.0597,-1.0207,-1.0036,0.0,0.0,0.0,0.0,0.0,0.0,0.0,0.0,0.0,0.0,0.0,0.0,0.0,0.0,0.0,0.0,0.0,0.0,0.0,0.0,0.0,0.0,0.0,0.0,0.0,0.0,0.0,0.0,0.0,0.0,0.0,0.0,0.0,0.0,0.0,0.0,0.0,0.0,0.0,0.0,0.0,0.0,0.0,0.0,0.0,0.0,0.0,0.0,0.0,0.0,0.0,0.0,0.0,0.0,0.0,0.0,0.0,0.0,0.0,0.0,0.0,0.0,0.0,0.0,0.0,0.0,0.0,0.0,0.0,0.0,0.0,0.0,0.0,0.0,0.0,0.0,0.0,0.0,0.0,0.0,0.0,0.0,0.0,0.0,0.0,0.0,0.0,0.0,0.0,0.0,0.0,0.0,0.0,0.0,0.0,0.0,0.0,0.0,0.0,0.0,0.0,0.0,0.0,0.0,0.0,0.0,0.0,0.0,0.0,-0.7974,-0.848,-0.9155,-0.9972,-1.0061,-1.0187,0.0,0.0,0.0,0.0,0.0,0.0,0.0,0.0,0.0,0.0,0.0,0.0,0.0,0.0,0.0,0.0,0.0,0.0,0.0,0.0,0.0,0.0,0.0,0.0,0.0,0.0,0.0,0.0,0.0,0.0,0.0,0.0,0.0,0.0,0.0,0.0,0.0,0.0,0.0,0.0,0.0,0.0,0.0,0.0,0.0,0.0,0.0,0.0,0.0,0.0,0.0,0.0,0.0,0.0,0.0,0.0,0.0,0.0,0.0,0.0,0.0,0.0,0.0,0.0,0.0,0.0,0.0,0.0,0.0,0.0,0.0,0.0,0.0,0.0,0.0,0.0,0.0,0.0,0.0,0.0,0.0,0.0,0.0,0.0,0.0,0.0,0.0,0.0,0.0,0.0,0.0,0.0,0.0,0.0,0.0,0.0,0.0,0.0,0.0,0.0,0.0,0.0,0.0,0.0,0.0,0.0,0.0,0.0,0.0,-0.8043,0.0,-1.0212,-1.0383,-1.0269,-1.0183,0.0,0.0,0.0,0.0,0.0,0.0,0.0,0.0,0.0,0.0,0.0,0.0,0.0,0.0,0.0,0.0,0.0,0.0,0.0,0.0,0.0,0.0,0.0,0.0,0.0,0.0,0.0,0.0,0.0,0.0,0.0,0.0,0.0,0.0,0.0,0.0,0.0,0.0,0.0,0.0,0.0,0.0,0.0,0.0,0.0,0.0,0.0,0.0,0.0,0.0,0.0,0.0,0.0,0.0,0.0,0.0,0.0,0.0,0.0,0.0,0.0,0.0,0.0,0.0,0.0,0.0,0.0,0.0,0.0,0.0,0.0,0.0,0.0,0.0,0.0,0.0,0.0,0.0,0.0,0.0,0.0,0.0,0.0,0.0,0.0,0.0,0.0,0.0,0.0,0.0,0.0,0.0,0.0,0.0,0.0,0.0,0.0,0.0,0.0,0.0,0.0,0.0,0.0,0.0,0.0,0.0,0.0,0.0,-0.8475,-1.0479,-1.1643,-1.211,-1.2043,-1.0833,-1.0097,0.0,0.0,0.0,0.0,0.0,0.0,0.0,0.0,0.0,0.0,0.0,0.0,0.0,0.0,0.0,0.0,0.0,0.0,0.0,0.0,0.0,0.0,0.0,0.0,0.0,0.0,0.0,0.0,0.0,0.0,0.0,0.0,0.0,0.0,0.0,0.0,0.0,0.0,0.0,0.0,0.0,0.0,0.0,0.0,0.0,0.0,0.0,0.0,0.0,0.0,0.0,0.0,0.0,0.0,0.0,0.0,0.0,0.0,0.0,0.0,0.0,0.0,0.0,0.0,0.0,0.0,0.0,0.0,0.0,0.0,0.0,0.0,0.0,0.0,0.0,0.0,0.0,0.0,0.0,0.0,0.0,0.0,0.0,0.0,0.0,0.0,0.0,0.0,0.0,0.0,0.0,0.0,0.0,0.0,0.0,0.0,0.0,0.0,0.0,0.0,0.0,0.0,0.0,0.0,0.0,0.0,0.0,0.0,0.0,-0.9803,-1.0828,-1.1438,-1.1588,-1.0651,-1.0508,0.0,0.0,0.0,0.0,0.0,0.0,0.0,0.0,0.0,0.0,0.0,0.0,0.0,0.0,0.0,0.0,0.0,0.0,0.0,0.0,0.0,0.0,0.0,0.0,0.0,0.0,0.0,0.0,0.0,0.0,0.0,0.0,0.0,0.0,0.0,0.0,0.0,0.0,0.0,0.0,0.0,0.0,0.0,0.0,0.0,0.0,0.0,0.0,0.0,0.0,0.0,0.0,0.0,0.0,0.0,0.0,0.0,0.0,0.0,0.0,0.0,0.0,0.0,0.0,0.0,0.0,0.0,0.0,0.0,0.0,0.0,0.0,0.0,0.0,0.0,0.0,0.0,0.0,0.0,0.0,0.0,0.0,0.0,0.0,0.0,0.0,0.0,0.0,0.0,0.0,0.0,0.0,0.0,0.0,0.0,0.0,0.0,0.0,0.0,0.0,0.0,0.0,0.0,0.0,0.0,0.0,0.0,0.0,0.0,-1.2857,-1.3085,-1.3347,-1.3522,-1.2529,-1.1737,-1.1203,0.0,0.0,0.0,0.0,0.0,0.0,0.0,0.0,0.0,0.0,0.0,0.0,0.0,0.0,0.0,0.0,0.0,0.0,0.0,0.0,0.0,0.0,0.0,0.0,0.0,0.0,0.0,0.0,0.0,0.0,0.0,0.0,0.0,0.0,0.0,0.0,0.0,0.0,0.0,0.0,0.0,0.0,0.0,0.0,0.0,0.0,0.0,0.0,0.0,0.0,0.0,0.0,0.0,0.0,0.0,0.0,0.0,0.0,0.0,0.0,0.0,0.0,0.0,0.0,0.0,0.0,0.0,0.0,0.0,0.0,0.0,0.0,0.0,0.0,0.0,0.0,0.0,0.0,0.0,0.0,0.0,0.0,0.0,0.0,0.0,0.0,0.0,0.0,0.0,0.0,0.0,0.0,0.0,0.0,0.0,0.0,0.0,0.0,0.0,0.0,0.0,0.0,0.0,0.0,0.0,0.0,0.0,0.0,-1.8702,-1.8072,-1.7643,-1.7361,-1.5923,-1.3623,0.0,0.0,0.0,0.0,0.0,0.0,0.0,0.0,0.0,0.0,0.0,0.0,0.0,0.0,0.0,0.0,0.0,0.0,0.0,0.0,0.0,0.0,0.0,0.0,0.0,0.0,0.0,0.0,0.0,0.0,0.0,0.0,0.0,0.0,0.0,0.0,0.0,0.0,0.0,0.0,0.0,0.0,0.0,0.0,0.0,0.0,0.0,0.0,0.0,0.0,0.0,0.0,0.0,0.0,0.0,0.0,0.0,0.0,0.0,0.0,0.0,0.0,0.0,0.0,0.0,0.0,0.0,0.0,0.0,0.0,0.0,0.0,0.0,0.0,0.0,0.0,0.0,0.0,0.0,0.0,0.0,0.0,0.0,0.0,0.0,0.0,0.0,0.0,0.0,0.0,0.0,0.0,0.0,0.0,0.0,0.0,0.0,0.0,0.0,0.0,0.0,0.0,0.0,0.0,0.0,0.0,0.0,0.0,0.0,-2.1283,-2.3252,-2.3189,-2.088,-1.7193,-1.4702,0.0,0.0,0.0,0.0,0.0,0.0,0.0,0.0,0.0,0.0,0.0,0.0,0.0,0.0,0.0,0.0,0.0,0.0,0.0,0.0,0.0,0.0,0.0,0.0,0.0,0.0,0.0,0.0,0.0,0.0,0.0,0.0,0.0,0.0,0.0,0.0,0.0,0.0,0.0,0.0,0.0,0.0,0.0,0.0,0.0,0.0,0.0,0.0,0.0,0.0,0.0,0.0,0.0,0.0,0.0,0.0,0.0,0.0,0.0,0.0,0.0,0.0,0.0,0.0,0.0,0.0,0.0,0.0,0.0,0.0,0.0,0.0,0.0,0.0,0.0,0.0,0.0,0.0,0.0,0.0,0.0,0.0,0.0,0.0,0.0,0.0,0.0,0.0,0.0,0.0,0.0,0.0,0.0,0.0,0.0,0.0,0.0,0.0,0.0,0.0,0.0,0.0,0.0,0.0,0.0,0.0,0.0,0.0,-2.1606,-2.3727,-2.7514,-2.8524,-2.652,-2.0933,-1.6791,0.0,0.0,0.0,0.0,0.0,0.0,0.0,0.0,0.0,0.0,0.0,0.0,0.0,0.0,0.0,0.0,0.0,0.0,0.0,0.0,0.0,0.0,0.0,0.0,0.0,0.0,0.0,0.0,0.0,0.0,0.0,0.0,0.0,0.0,0.0,0.0,0.0,0.0,0.0,0.0,0.0,0.0,0.0,0.0,0.0,0.0,0.0,0.0,0.0,0.0,0.0,0.0,0.0,0.0,0.0,0.0,0.0,0.0,0.0,0.0,0.0,0.0,0.0,0.0,0.0,0.0,0.0,0.0,0.0,0.0,0.0,0.0,0.0,0.0,0.0,0.0,0.0,0.0,0.0,0.0,0.0,0.0,0.0,0.0,0.0,0.0,0.0,0.0,0.0,0.0,0.0,0.0,0.0,0.0,0.0,0.0,0.0,0.0,0.0,0.0,0.0,0.0,0.0,0.0,0.0,0.0,0.0,0.0,-2.4882,-2.5999,-3.0737,-3.2935,-3.2124,-2.5354,-1.9304,0.0,0.0,0.0,0.0,0.0,0.0,0.0,0.0,0.0,0.0,0.0,0.0,0.0,0.0,0.0,0.0,0.0,0.0,0.0,0.0,0.0,0.0,0.0,0.0,0.0,0.0,0.0,0.0,0.0,0.0,0.0,0.0,0.0,0.0,0.0,0.0,0.0,0.0,0.0,0.0,0.0,0.0,0.0,0.0,0.0,0.0,0.0,0.0,0.0,0.0,0.0,0.0,0.0,0.0,0.0,0.0,0.0,0.0,0.0,0.0,0.0,0.0,0.0,0.0,0.0,0.0,0.0,0.0,0.0,0.0,0.0,0.0,0.0,0.0,0.0,0.0,0.0,0.0,0.0,0.0,0.0,0.0,0.0,0.0,0.0,0.0,0.0,0.0,0.0,0.0,0.0,0.0,0.0,0.0,0.0,0.0,0.0,0.0,0.0,0.0,0.0,0.0,0.0,0.0,0.0,0.0,0.0,0.0,-2.5686,-2.7918,-3.1623,-3.2938,-3.1558,-2.4687,-2.0053,0.0,0.0,0.0,0.0,0.0,0.0,0.0,0.0,0.0,0.0,0.0,0.0,0.0,0.0,0.0,0.0,0.0,0.0,0.0,0.0,0.0,0.0,0.0,0.0,0.0,0.0,0.0,0.0,0.0,0.0,0.0,0.0,0.0,0.0,0.0,0.0,0.0,0.0,0.0,0.0,0.0,0.0,0.0,0.0,0.0,0.0,0.0,0.0,-0.4348,0.0,0.0,0.0,0.0,0.0,0.0,0.0,0.0,0.0,0.0,0.0,0.0,0.0,0.0,0.0,0.0,0.0,0.0,0.0,0.0,0.0,0.0,0.0,0.0,0.0,0.0,0.0,0.0,0.0,0.0,0.0,0.0,0.0,0.0,0.0,0.0,0.0,0.0,0.0,0.0,0.0,0.0,0.0,0.0,0.0,0.0,0.0,0.0,0.0,0.0,0.0,0.0,0.0,0.0,0.0,0.0,0.0,0.0,0.0,-2.6416,-2.9845,-3.2432,-3.3126,-3.1721,-2.5957,-2.1643,0.0,0.0,0.0,0.0,0.0,0.0,0.0,0.0,0.0,0.0,0.0,0.0,0.0,0.0,0.0,0.0,0.0,0.0,0.0,0.0,0.0,0.0,0.0,0.0,0.0,0.0,0.0,0.0,0.0,0.0,0.0,0.0,0.0,0.0,0.0,0.0,0.0,0.0,0.0,0.0,0.0,0.0,0.0,0.0,0.0,0.0,0.0,0.0,0.0,0.0,0.0,0.0,0.0,0.0,0.0,0.0,0.0,0.0,0.0,0.0,0.0,0.0,0.0,0.0,0.0,0.0,0.0,0.0,0.0,0.0,0.0,0.0,0.0,0.0,0.0,0.0,0.0,0.0,0.0,0.0,0.0,0.0,0.0,0.0,0.0,0.0,0.0,0.0,0.0,0.0,0.0,0.0,0.0,0.0,0.0,0.0,0.0,0.0,0.0,0.0,0.0,0.0,0.0,0.0,0.0,0.0,0.0,-2.3836,-2.7286,-3.1927,-3.3256,-3.3375,-3.2346,-2.7639,-2.3348,-1.9617,0.0,0.0,0.0,0.0,0.0,0.0,0.0,0.0,0.0,0.0,0.0,0.0,0.0,0.0,0.0,0.0,0.0,0.0,0.0,0.0,0.0,0.0,0.0,0.0,0.0,0.0,0.0,0.0,0.0,0.0,0.0,0.0,0.0,0.0,0.0,0.0,0.0,0.0,-0.3713,-0.3966,0.0,0.0,0.0,0.0,0.0,0.0,0.0,0.0,-0.4643,0.0,0.0,0.0,0.0,0.0,0.0,0.0,0.0,0.0,0.0,0.0,0.0,0.0,0.0,0.0,0.0,0.0,0.0,0.0,0.0,0.0,0.0,0.0,0.0,0.0,0.0,0.0,0.0,0.0,0.0,0.0,0.0,0.0,0.0,0.0,0.0,0.0,0.0,0.0,0.0,0.0,0.0,0.0,0.0,0.0,0.0,0.0,0.0,0.0,0.0,0.0,0.0,0.0,0.0,0.0,0.0,-2.5463,-2.5546,-2.8571,-3.4709,-3.4351,-3.3346,-3.1784,-2.7768,-2.4113,-2.0911,0.0,0.0,0.0,0.0,0.0,0.0,0.0,0.0,0.0,0.0,0.0,0.0,0.0,0.0,0.0,0.0,0.0,0.0,0.0,0.0,0.0,0.0,0.0,0.0,0.0,0.0,0.0,0.0,0.0,0.0,0.0,0.0,0.0,0.0,0.0,0.0,0.0,0.0,0.0,-0.5428,-0.555,0.0,0.0,0.0,0.0,0.0,0.0,0.0,0.0,-0.5598,0.0,0.0,0.0,0.0,0.0,0.0,0.0,0.0,0.0,0.0,0.0,0.0,0.0,0.0,0.0,0.0,0.0,0.0,0.0,0.0,0.0,0.0,0.0,0.0,0.0,0.0,0.0,0.0,0.0,0.0,0.0,0.0,0.0,0.0,0.0,0.0,0.0,0.0,0.0,0.0,0.0,0.0,0.0,0.0,0.0,0.0,0.0,0.0,0.0,0.0,0.0,0.0,0.0,0.0,0.0,-2.6775,-2.7479,-3.0401,-3.5882,-3.4515,-3.2866,-3.122,-2.7329,-2.3867,0.0,0.0,0.0,0.0,0.0,0.0,0.0,0.0,0.0,0.0,0.0,0.0,0.0,0.0,0.0,0.0,0.0,0.0,0.0,0.0,0.0,0.0,0.0,0.0,0.0,0.0,0.0,0.0,0.0,0.0,0.0,0.0,0.0,0.0,0.0,0.0,0.0,0.0,0.0,0.0,-0.6528,-0.6924,-0.825,0.0,0.0,0.0,0.0,0.0,0.0,-0.6754,-0.6583,0.0,0.0,0.0,0.0,0.0,0.0,0.0,0.0,0.0,0.0,0.0,0.0,0.0,0.0,0.0,0.0,0.0,0.0,0.0,0.0,0.0,0.0,0.0,0.0,0.0,0.0,0.0,0.0,0.0,0.0,0.0,0.0,0.0,0.0,0.0,0.0,0.0,0.0,0.0,0.0,0.0,0.0,0.0,0.0,0.0,0.0,0.0,0.0,0.0,0.0,0.0,0.0,0.0,0.0,0.0,-2.7603,-2.916,-3.2061,-3.6357,-3.4563,-3.2652,-3.0976,-2.6623,-2.3178,0.0,0.0,0.0,0.0,0.0,0.0,0.0,0.0,0.0,0.0,0.0,0.0,0.0,0.0,0.0,0.0,0.0,0.0,0.0,0.0,0.0,0.0,0.0,0.0,0.0,0.0,0.0,0.0,0.0,0.0,0.0,0.0,0.0,0.0,0.0,0.0,0.0,0.0,0.0,0.0,0.0,-0.8422,-0.9495,-0.856,0.0,0.0,0.0,0.0,-0.7594,-0.7904,0.0,0.0,0.0,0.0,0.0,0.0,0.0,0.0,0.0,0.0,0.0,0.0,0.0,0.0,0.0,0.0,0.0,0.0,0.0,0.0,0.0,0.0,0.0,0.0,0.0,0.0,0.0,0.0,0.0,0.0,0.0,0.0,0.0,0.0,0.0,0.0,0.0,0.0,0.0,0.0,0.0,0.0,0.0,0.0,0.0,0.0,0.0,0.0,0.0,0.0,0.0,0.0,0.0,0.0,0.0,0.0,-2.7671,-3.0146,-3.3073,-3.639,-3.5043,-3.3353,-3.1585,-2.5741,-2.2219,0.0,0.0,0.0,0.0,0.0,0.0,0.0,0.0,0.0,0.0,0.0,0.0,0.0,0.0,0.0,0.0,0.0,0.0,0.0,0.0,0.0,0.0,0.0,0.0,0.0,0.0,0.0,0.0,0.0,0.0,0.0,0.0,0.0,0.0,0.0,0.0,0.0,0.0,0.0,0.0,0.0,-0.974,-0.9566,-0.9579,-0.8967,0.0,0.0,-0.999,-0.9848,-1.0596,0.0,0.0,0.0,0.0,0.0,0.0,0.0,0.0,0.0,0.0,0.0,0.0,0.0,0.0,0.0,0.0,0.0,0.0,0.0,0.0,0.0,0.0,0.0,0.0,0.0,0.0,0.0,0.0,0.0,0.0,0.0,0.0,0.0,0.0,0.0,0.0,0.0,0.0,0.0,0.0,0.0,0.0,0.0,0.0,0.0,0.0,0.0,0.0,0.0,0.0,0.0,0.0,0.0,0.0,0.0,-2.4441,-2.7772,-3.1608,-3.4388,-3.5973,-3.453,-3.2847,-3.105,-2.5105,-2.1549,0.0,0.0,0.0,0.0,0.0,0.0,0.0,0.0,0.0,0.0,0.0,0.0,0.0,0.0,0.0,0.0,0.0,0.0,0.0,0.0,0.0,0.0,0.0,0.0,0.0,0.0,0.0,0.0,0.0,0.0,0.0,0.0,0.0,0.0,0.0,0.0,0.0,0.0,0.0,0.0,0.0,0.0,-0.9871,-1.0922,0.0,0.0,0.0,-1.126,-1.0095,0.0,0.0,0.0,0.0,0.0,0.0,0.0,0.0,0.0,0.0,0.0,0.0,0.0,0.0,0.0,0.0,0.0,0.0,0.0,0.0,0.0,0.0,0.0,0.0,0.0,0.0,0.0,0.0,0.0,0.0,0.0,0.0,0.0,0.0,0.0,0.0,0.0,0.0,0.0,0.0,0.0,0.0,0.0,0.0,0.0,0.0,0.0,0.0,0.0,0.0,0.0,0.0,0.0,0.0,0.0,0.0,0.0,-2.7822,-3.2787,-3.5413,-3.5512,-3.4264,-3.2676,-3.0837,-2.5388,0.0,0.0,0.0,0.0,0.0,0.0,0.0,0.0,0.0,0.0,0.0,0.0,0.0,0.0,0.0,0.0,0.0,0.0,0.0,0.0,0.0,0.0,0.0,0.0,0.0,0.0,0.0,-0.3897,0.0,0.0,0.0,0.0,0.0,0.0,0.0,0.0,0.0,0.0,0.0,0.0,0.0,0.0,-1.261,-1.1272,-1.2552,-1.324,0.0,0.0,-1.2411,-1.119,-1.3027,-1.3506,0.0,0.0,0.0,0.0,0.0,0.0,0.0,0.0,0.0,0.0,0.0,0.0,0.0,0.0,0.0,0.0,0.0,0.0,0.0,0.0,0.0,0.0,0.0,0.0,0.0,0.0,0.0,0.0,0.0,0.0,0.0,0.0,0.0,0.0,0.0,0.0,0.0,0.0,0.0,0.0,0.0,0.0,0.0,0.0,0.0,0.0,0.0,0.0,0.0,0.0,0.0,0.0,0.0,0.0,0.0,-2.7817,-3.3189,-3.5786,-3.5402,-3.4643,-3.3486,-3.1801,-2.7294,-2.3911,0.0,0.0,0.0,0.0,0.0,0.0,0.0,0.0,0.0,0.0,0.0,0.0,0.0,0.0,0.0,0.0,0.0,0.0,0.0,0.0,0.0,0.0,0.0,0.0,0.0,0.0,0.0,0.0,0.0,0.0,0.0,0.0,0.0,0.0,0.0,0.0,0.0,0.0,0.0,0.0,0.0,-1.3651,-1.4451,-1.4437,-1.4295,0.0,0.0,-1.3735,-1.4337,-1.5469,-1.5229,-1.2046,0.0,0.0,0.0,0.0,0.0,0.0,0.0,0.0,0.0,0.0,0.0,0.0,0.0,0.0,0.0,0.0,0.0,0.0,0.0,0.0,0.0,0.0,0.0,0.0,0.0,0.0,0.0,0.0,0.0,0.0,0.0,0.0,0.0,0.0,0.0,0.0,0.0,0.0,0.0,0.0,0.0,0.0,0.0,0.0,0.0,0.0,0.0,0.0,0.0,0.0,0.0,0.0,0.0,-2.5497,-2.6992,-3.2468,-3.5102,-3.4716,-3.3963,-3.3033,-3.1908,-2.766,-2.4171,0.0,0.0,0.0,0.0,0.0,0.0,0.0,0.0,0.0,0.0,0.0,0.0,0.0,0.0,0.0,0.0,0.0,0.0,0.0,0.0,0.0,0.0,0.0,0.0,0.0,0.0,0.0,0.0,-0.6507,-0.6362,-0.6107,0.0,0.0,0.0,0.0,0.0,0.0,0.0,0.0,0.0,0.0,-1.4618,-1.5573,-1.6024,0.0,0.0,-1.565,-1.532,-1.4284,-1.5315,-1.5044,-1.1427,-1.0714,0.0,0.0,0.0,0.0,0.0,0.0,0.0,0.0,0.0,0.0,0.0,0.0,0.0,0.0,0.0,0.0,0.0,0.0,0.0,0.0,0.0,0.0,0.0,0.0,0.0,0.0,0.0,0.0,0.0,0.0,0.0,0.0,0.0,0.0,0.0,0.0,0.0,0.0,0.0,0.0,0.0,0.0,0.0,0.0,0.0,0.0,0.0,0.0,0.0,0.0,0.0,0.0,-2.5297,-2.647,-3.2019,-3.4682,-3.4234,-3.3581,-3.2877,-3.2041,-2.8516,-2.5369,0.0,0.0,0.0,0.0,0.0,0.0,0.0,0.0,0.0,0.0,0.0,0.0,0.0,0.0,0.0,0.0,0.0,0.0,0.0,0.0,0.0,0.0,0.0,0.0,0.0,0.0,0.0,0.0,-0.7077,-0.6791,-0.6269,0.0,0.0,0.0,0.0,0.0,0.0,0.0,0.0,0.0,0.0,-1.4976,-1.5005,-1.5863,-1.6187,-1.5372,-1.5361,-1.5019,-1.3854,-1.4597,-1.4324,-1.1583,0.0,0.0,0.0,0.0,0.0,0.0,0.0,0.0,0.0,0.0,0.0,0.0,0.0,0.0,0.0,0.0,0.0,0.0,0.0,0.0,0.0,0.0,0.0,0.0,0.0,0.0,0.0,0.0,0.0,0.0,-1.2915,0.0,0.0,0.0,0.0,0.0,0.0,0.0,0.0,0.0,0.0,0.0,0.0,0.0,0.0,0.0,0.0,0.0,0.0,0.0,0.0,0.0,0.0,-2.5204,-2.645,-3.2129,-3.4763,-3.4126,-3.3694,-3.3182,-3.2555,-3.0325,-2.7986,-2.5539,0.0,0.0,0.0,0.0,0.0,0.0,0.0,0.0,0.0,0.0,0.0,0.0,0.0,0.0,0.0,0.0,0.0,0.0,0.0,0.0,0.0,0.0,0.0,0.0,0.0,0.0,-0.6019,-0.6301,-0.6467,0.0,0.0,0.0,0.0,0.0,0.0,0.0,0.0,0.0,0.0,-1.3372,-1.4643,-1.2659,-1.3411,-1.4008,-1.3154,-1.2407,-1.2296,-1.3554,-1.3586,-1.3343,0.0,0.0,0.0,0.0,0.0,0.0,0.0,0.0,0.0,0.0,0.0,0.0,0.0,0.0,0.0,0.0,0.0,0.0,0.0,0.0,0.0,0.0,0.0,0.0,0.0,0.0,0.0,-1.9423,-1.8961,0.0,0.0,0.0,0.0,0.0,0.0,0.0,0.0,0.0,0.0,0.0,-2.7221,-2.6938,0.0,0.0,0.0,0.0,0.0,0.0,0.0,0.0,0.0,0.0,0.0,0.0,-2.5204,-2.66,-3.1978,-3.4611,-3.4101,-3.3529,-3.2985,-3.2465,-3.051,-2.7538,-2.3425,0.0,0.0,0.0,0.0,0.0,0.0,0.0,0.0,0.0,0.0,0.0,0.0,0.0,0.0,0.0,0.0,0.0,0.0,0.0,0.0,0.0,0.0,0.0,0.0,0.0,-0.6709,0.0,0.0,0.0,0.0,0.0,0.0,0.0,0.0,0.0,0.0,0.0,-1.1277,-1.2388,-1.3236,-1.381,-1.3972,-1.4332,-1.4922,0.0,0.0,0.0,0.0,0.0,0.0,0.0,0.0,0.0,0.0,0.0,0.0,0.0,0.0,-1.0767,-0.8885,-0.8624,-0.8632,-0.8327,0.0,0.0,0.0,0.0,0.0,0.0,0.0,0.0,0.0,0.0,0.0,0.0,0.0,0.0,-2.3809,0.0,-2.274,0.0,0.0,0.0,0.0,0.0,0.0,0.0,0.0,-2.7637,-2.9972,-3.1685,-3.1566,-3.1145,0.0,-2.8984,-2.5325,0.0,0.0,0.0,0.0,0.0,0.0,0.0,0.0,-2.5393,-2.653,-3.1912,-3.4521,-3.4025,-3.3435,-3.2904,-3.2367,-3.0413,-2.7366,-2.315,-2.022,-1.7668,0.0,0.0,0.0,0.0,0.0,0.0,0.0,0.0,0.0,0.0,0.0,0.0,0.0,0.0,0.0,0.0,0.0,0.0,0.0,0.0,0.0,0.0,0.0,-0.7696,0.0,0.0,0.0,0.0,0.0,0.0,0.0,0.0,0.0,-1.0176,-1.1318,-1.2584,-1.3825,-1.4056,-1.4072,-1.4023,0.0,0.0,0.0,0.0,0.0,0.0,0.0,-1.2144,-1.1643,-1.1956,-1.2581,-1.34,-1.3546,-1.3331,-1.2747,0.0,0.0,-1.0571,-1.0393,-1.0359,-0.9867,-0.9784,-0.9498,-0.8763,-0.8547,-0.8423,0.0,0.0,0.0,0.0,0.0,0.0,0.0,0.0,-2.8711,-2.7533,0.0,-2.6592,0.0,0.0,0.0,0.0,0.0,-2.6269,0.0,0.0,-3.6424,-3.8561,-3.5075,-3.4841,-3.4403,-3.3582,-3.108,-2.9075,-2.761,-2.5415,0.0,0.0,0.0,0.0,0.0,0.0,-2.5799,-2.6626,-3.2022,-3.457,-3.3899,-3.3445,-3.2911,-3.2293,-3.0108,-2.7626,-2.4957,-2.2581,-2.0599,-1.9031,-1.5131,0.0,0.0,0.0,0.0,0.0,0.0,0.0,0.0,0.0,0.0,0.0,0.0,0.0,0.0,0.0,0.0,0.0,0.0,0.0,0.0,-0.9217,0.0,0.0,0.0,0.0,0.0,0.0,0.0,0.0,0.0,0.0,-1.18,-1.2508,-1.3515,-1.4651,0.0,0.0,0.0,0.0,-1.3513,-1.1006,-1.0488,-1.0557,-1.0693,-1.1713,-1.3169,-1.5008,0.0,0.0,-1.6561,-1.4739,-1.3277,-1.2606,-1.3113,-1.3317,-1.3018,-1.2577,-1.2051,-1.1224,-1.0959,-1.048,-0.9659,-0.9714,-0.9632,-3.5508,0.0,0.0,0.0,0.0,-2.984,-3.218,-3.5878,-3.6222,-3.5527,-3.4065,-3.3402,0.0,0.0,0.0,0.0,0.0,0.0,-3.0445,-3.3512,-3.6039,-3.8104,-3.9867,-3.9785,-3.9344,-3.8669,-3.7782,-3.6317,-3.4337,-3.3508,-2.8877,-2.0705,0.0,0.0,0.0,0.0,-2.6631,-2.94,-3.2933,-3.4423,-3.3761,-3.3298,-3.2408,-3.1071,-2.965,-2.8116,-2.6424,-2.4655,-2.2498,-1.9952,-1.788,0.0,0.0,0.0,0.0,0.0,0.0,0.0,0.0,0.0,0.0,0.0,0.0,0.0,0.0,0.0,0.0,0.0,0.0,0.0,-0.9261,-0.9545,-0.9543,0.0,0.0,0.0,0.0,0.0,0.0,0.0,0.0,0.0,-1.3919,-1.3396,-1.3098,0.0,0.0,-1.2324,-1.1583,-1.2533,-1.3494,-1.3887,-1.378,0.0,0.0,-1.5309,-1.4953,-1.5338,-1.6287,-1.6883,-1.656,-1.65,-1.6445,-1.6122,-1.555,-1.5117,-1.4919,-1.4566,-1.4058,-1.3515,-1.3618,-1.3596,-1.2882,-1.2668,-1.244,-4.2231,-3.839,-3.5009,-3.4164,-3.5029,-3.5599,-3.7923,-4.1324,-4.15,-4.0775,-3.9478,-3.9171,-3.5759,-3.0097,-2.8556,0.0,0.0,0.0,-3.4091,-3.7734,-3.8284,-3.9691,-4.1679,-4.1688,-4.1266,-4.0609,-4.0528,-3.9571,-3.785,-3.6402,-3.2379,-2.5975,0.0,0.0,-2.3294,-2.6067,-2.8519,-3.0651,-3.3208,-3.425,-3.371,-3.2996,-3.1772,-3.0135,-2.9304,-2.8188,-2.6705,-2.5479,-2.3814,-2.1644,-1.9818,-1.7447,0.0,0.0,0.0,0.0,0.0,0.0,0.0,0.0,0.0,0.0,0.0,-1.0042,-0.8577,0.0,0.0,0.0,-1.1203,-1.078,-1.0236,-1.0557,0.0,0.0,0.0,0.0,0.0,0.0,0.0,-1.2357,-1.3834,-1.5022,-1.5271,-1.4641,-1.4277,-1.4575,-1.4027,-1.3451,-1.2875,0.0,-1.4802,-1.5342,-1.5245,-1.5648,-1.6996,-1.7031,-1.7011,-1.7504,-1.7807,-1.7946,-1.779,-1.7926,-1.797,-1.7697,-1.6968,-1.6293,-1.6186,-1.6078,-1.5622,-1.4673,-1.5022,-1.5234,-1.4455,-1.4214,-1.3929,-4.6652,-4.6099,-4.0503,-3.8622,-3.9487,-4.123,-4.305,-4.4821,-4.493,-4.3907,-4.225,-4.3722,-4.069,-3.4374,-3.2065,0.0,-3.5436,-3.6901,-3.8644,-4.0732,-4.2105,-4.2291,-4.142,-4.1473,-4.1089,-4.0372,-4.0372,-3.9953,-3.9041,-3.6058,-3.3958,-3.2957,-3.1613,-2.9678,-2.742,-2.9709,-3.1012,-3.1095,-3.3217,-3.4068,-3.3563,-3.252,-3.1164,-2.9446,-2.907,-2.8043,-2.6266,-2.5425,-2.458,-2.3601,-2.1102,-1.9167,-1.7906,0.0,0.0,0.0,0.0,0.0,0.0,0.0,0.0,0.0,0.0,0.0,0.0,0.0,0.0,0.0,-1.3791,0.0,-1.2181,-1.2234,0.0,0.0,0.0,-1.3464,-1.4977,-1.5444,-1.5694,-1.5827,0.0,0.0,-1.6123,-1.6104,-1.6455,-1.755,-1.7497,-1.6871,-1.5595,-1.6344,-1.6807,-1.5797,-1.5701,-1.5889,-1.6619,-1.7706,-1.9046,-2.0233,-2.031,-1.9656,-1.9399,-1.8869,-1.8331,-1.8097,-1.7513,-1.7049,-1.6975,-1.7118,-1.6842,-1.5174,-1.5543,-1.5853,-1.5065,-1.4806,-1.4559,-4.8816,-4.8018,-4.8052,-4.6791,-4.4778,-4.5069,-4.5888,-4.7037,-4.7289,-4.6703,-4.5582,-4.5229,-4.3228,-4.0093,-3.9456,-3.9575,-4.0306,-4.0573,-4.0926,-4.1398,-4.2142,-4.2044,-4.129,-4.1882,-4.1742,-4.1028,-4.0993,-4.0588,-3.9856,-3.9147,-3.705,-3.3788,-3.3311,-3.2145,-3.0253,-3.0566,-3.193,-3.4175,-3.4273,-3.3625,-3.2311,-3.2097,-3.1164,-2.9391,-2.9042,-2.8176,-2.668,-2.566,-2.4723,-2.3787,-2.2196,-2.0413,-1.8444,-1.5431,0.0,0.0,0.0,0.0,0.0,0.0,0.0,0.0,0.0,-1.2144,-0.989,0.0,-1.2943,0.0,-1.4032,-1.503,-1.5383,-1.5209,0.0,0.0,-1.4773,-1.4928,-1.6087,-1.6557,-1.6646,-1.6231,-1.6816,-1.7298,-1.7298,-1.7429,-1.7964,-1.9117,-1.7465,-1.5949,-1.5498,-1.6555,-1.7343,-1.7159,-1.7999,-1.9001,-1.9435,-1.988,-2.0182,-2.0602,-1.9894,-1.9236,-1.9137,-1.8985,-1.8754,-1.8567,-1.8189,-1.7791,-1.7461,-1.7333,-1.7172,-1.6769,-1.6949,-1.6998,-1.652,-1.6325,-1.5987,-4.8577,-4.7987,-4.8804,-4.8134,-4.6601,-4.7922,-4.8442,-4.8395,-4.8656,-4.8219,-4.7261,-4.6203,-4.4985,-4.3736,-4.3287,-4.2992,-4.2877,-4.3172,-4.3002,-4.2474,-4.3054,-4.2881,-4.2046,-4.215,-4.1953,-4.1456,-4.1261,-4.092,-4.0458,-4.0242,-3.8907,-3.6594,-3.5873,-3.5032,-3.3912,-3.1069,-3.0406,-3.2016,-3.2292,-3.2192,-3.1716,-3.1619,-3.0262,-2.7687,-2.731,-2.6139,-2.398,-2.3213,-2.2552,-2.1865,-2.0962,-1.9735,-1.8111,-1.5624,-1.3545,0.0,0.0,0.0,0.0,0.0,0.0,0.0,0.0,0.0,0.0,0.0,-1.4761,-1.4149,-1.5777,-1.6727,-1.6417,-1.6309,-1.6484,-1.6999,-1.6784,-1.7032,-1.8109,-1.832,-1.8286,-1.7941,-1.8347,-1.8647,-1.8551,-1.8811,-1.9145,-1.97,-1.8485,-1.7561,-1.7605,-1.8107,-1.8486,-1.8743,-1.9421,-2.0163,-2.0912,-2.0736,-2.0518,-2.0612,-1.9897,-1.928,-1.924,-1.928,-1.9201,-1.9103,-1.894,-1.8716,-1.8346,-1.8158,-1.7996,-1.7914,-1.7891,-1.7713,-1.7297,-1.6967,-1.6431,-4.7567,-4.7281,-4.6838,-4.6671,-4.6936,-4.9749,-5.0176,-4.892,-4.9125,-4.8746,-4.7895,-4.6837,-4.6212,-4.5914,-4.5134,-4.4461,-4.4021,-4.4836,-4.4571,-4.3485,-4.4148,-4.3998,-4.3088,-4.24,-4.199,-4.1753,-4.1267,-4.0959,-4.0871,-4.0314,-3.9818,-3.9363,-3.7962,-3.6978,-3.6273,-3.0969,-2.8395,-2.8784,-2.9694,-3.0539,-3.1218,-3.0674,-2.8686,-2.5286,-2.4861,-2.3378,-2.0507,-2.0049,-1.9756,-1.9427,-1.8999,-1.8513,-1.7938,-1.5498,-1.421,0.0,-1.2543,0.0,0.0,0.0,0.0,0.0,0.0,0.0,0.0,-1.6806,-1.6949,-1.6695,-1.8011,-1.8258,-1.6874,-1.6982,-1.7595,-1.8694,-1.8871,-1.9247,-2.013,-2.0069,-1.9902,-1.9863,-1.9833,-1.9714,-1.962,-1.987,-1.9897,-1.9727,-1.9661,-1.9668,-2.0051,-1.9731,-1.9651,-2.0283,-2.0184,-2.0416,-2.0896,-2.0663,-2.0438,-2.0638,-2.0148,-1.9645,-1.9557,-1.9597,-1.9636,-1.9636,-1.9587,-1.9539,-1.942,-1.9173,-1.8976,-1.8722,-1.8442,-1.8082,-1.7622,-1.707,-1.6449,-4.875,-4.8023,-4.8715,-4.8798,-4.8502,-4.9317,-4.901,-4.7977,-4.812,-4.8029,-4.772,-4.7132,-4.6816,-4.6748,-4.6376,-4.5521,-4.4422,-4.5011,-4.4471,-4.3054,-4.393,-4.3905,-4.3105,-4.2748,-4.2244,-4.1621,-4.0959,-4.0655,-4.0745,-4.0709,-3.9359,-3.6774,-3.5856,-3.3928,-3.1079,0.0,0.0,0.0,-3.134,-3.0148,-2.9374,-2.7834,-2.5872,-2.3495,-2.3378,0.0,-2.0656,-2.0128,-1.9823,-1.9646,-1.9193,0.0,0.0,0.0,0.0,0.0,0.0,0.0,0.0,0.0,0.0,0.0,-1.6846,-1.6622,-1.6978,-1.7545,-1.8108,-1.8701,-1.8977,-1.944,-2.0175,-1.9972,-1.994,-2.0171,-2.023,-2.0263,-2.0313,-2.0069,-1.9824,-1.9685,-1.9363,-1.9348,-1.9778,-1.9483,-1.9469,-1.9935,-1.9851,-1.9764,-1.9951,-1.9764,-1.9876,-2.0608,-2.0816,-2.0858,-2.0723,-2.0527,-2.0323,-2.0361,-2.0135,-1.9794,-1.9636,-1.9715,-1.9824,-1.9833,-1.9824,-1.9824,-1.9784,-1.9499,-1.9194,-1.9,-1.8526,-1.8064,-1.7803,-1.7491,-1.6952,-4.9002,0.0,-4.8374,-4.8125,0.0,-4.7909,-4.7803,-4.7395,-4.8091,-4.814,-4.7675,-4.7316,-4.7053,-4.6888,-4.6684,-4.6065,-4.5152,-4.5418,-4.5009,-4.4091,-4.4458,-4.4395,-4.3905,-4.3388,-4.272,-4.1937,-4.1315,-4.0861,-4.0519,-4.0631,-3.9866,-3.8328,-3.7136,-3.5633,-3.3897,-3.2381,-3.1873,-3.237,-3.1062,-3.037,-3.0297,-2.8898,-2.6907,-2.4465,0.0,0.0,0.0,0.0,0.0,0.0,0.0,0.0,0.0,0.0,0.0,-1.9078,-1.8244,-1.7875,-1.8287,-1.8301,-1.8854,-2.02,-2.0374,-2.0065,-1.9303,-1.9859,-2.0496,-2.1045,-2.0663,-2.0575,-2.1084,-2.0741,-2.0498,-2.0566,-2.0489,-2.0372,-2.0147,-1.999,-1.9839,-1.9653,-1.9675,-1.9793,-1.9826,-1.9996,-1.9934,-1.9912,-1.9841,-1.9814,-1.9996,-1.9867,-2.0023,-2.0772,-2.106,-2.1162,-2.1046,-2.0684,-2.0459,-2.0411,-2.0137,-1.9824,-1.9636,-1.9676,-1.9754,-1.9863,-2.0098,-2.0216,-2.0079,-1.981,-1.9496,-1.9052,-1.8498,-1.8023,-1.7708,-1.7245,-1.6757,-4.9104,-4.8186,-4.7579,-4.6966,-4.6397,-4.6619,-4.6842,-4.7101,0.0,0.0,0.0,-4.7341,-4.7075,-4.6795,-4.6637,-4.6213,-4.568,-4.5768,-4.5528,-4.5094,-4.5018,-4.4923,-4.4797,-4.3922,-4.3095,-4.2296,-4.1741,-4.1061,-4.0322,-4.0387,-4.051,-4.0511,-3.8995,-3.8083,-3.7758,-3.5977,-3.3771,-3.1324,-3.0593,-3.0669,-3.1435,-3.0104,-2.8122,-2.5561,-2.4476,-2.2959,-2.0958,-2.0705,-2.0472,-2.0093,-1.9976,-1.9942,-2.0003,-1.9842,-1.9781,-1.985,-1.9972,-2.0342,-2.1085,-2.1077,-2.1584,-2.2871,-2.3475,-2.3179,-2.1717,-2.2261,-2.2768,-2.2942,-2.2149,-2.1502,-2.1244,-2.0731,-2.0498,-2.0752,-2.0498,-2.0215,-2.0036,-1.9901,-1.9795,-1.9725,-2.0016,-2.0265,-2.0103,-2.0506,-2.0738,-2.0042,-1.9902,-2.0016,-2.0214,-2.0247,-2.0353,-2.0707,-2.0973,-2.1251,-2.1223,-2.0919,-2.0625,-2.0566,-2.0294,-1.9981,-1.9794,-1.9764,-1.9833,-1.9951,-2.0333,-2.0489,-2.0391,-2.012,-1.9748,-1.9128,-1.8514,-1.7944,-1.7517,-1.693,-1.6459,-4.9649,-4.8653,-4.8048,-4.75,-4.7025,-4.6632,-4.6749,-4.7196,-4.7441,-4.7471,-4.7341,-4.7138,-4.6957,-4.6795,-4.6542,-4.5939,-4.5141,-4.5573,-4.5412,0.0,-4.4911,-4.4978,-4.4917,-4.3775,-4.2922,-4.2243,-4.1375,-4.0686,-4.0323,-4.0188,-4.0288,-4.0339,-3.8965,-3.7404,-3.5903,-3.5124,-3.4374,-3.359,-3.1574,-3.0497,-3.0385,-2.7656,-2.5586,-2.4377,-2.3432,-2.2325,-2.119,-2.095,-2.0571,-2.0128,-1.9962,-2.0315,-2.1193,-2.1248,-2.168,-2.2684,-2.2808,-2.2807,-2.2761,-2.2561,-2.2646,-2.3136,-2.3758,-2.3763,-2.2957,-2.3205,-2.3257,-2.2777,-2.2289,-2.1873,-2.1502,-2.1051,-2.0918,-2.1224,-2.0712,-2.032,-2.0427,-2.001,-1.9743,-1.9825,-1.9757,-2.0111,-2.0682,-2.0628,-2.0582,-2.0702,-2.0318,-2.0075,-2.0489,-2.0964,-2.0993,-2.0621,-2.0837,-2.0995,-2.0909,-2.0674,-2.0615,-2.0615,-2.0527,-2.0333,-2.0157,-2.0225,-2.0303,-2.0264,-2.0537,-2.0741,-2.0595,-2.0339,-1.986,-1.9172,-1.8531,-1.7915,-1.7414,-1.6986,-1.6741,-4.9823,-4.8916,-4.8609,-4.8211,-4.7761,-4.7343,-4.7092,-4.6998,-4.7093,-4.7165,-4.7245,-4.7156,-4.6975,-4.6684,-4.6495,-4.6059,-4.5449,-4.5527,-4.5286,-4.4828,-4.478,-4.4703,-4.4575,-4.3973,-4.3351,-4.2667,-4.2221,-4.151,-4.0643,-4.0516,-4.0408,-4.0095,-3.8672,-3.7017,-3.5335,-3.4899,-3.4546,-3.4209,-3.2933,-3.2081,-3.1652,-2.9417,-2.7959,-2.732,-2.6027,-2.5019,-2.4364,-2.4066,-2.3654,-2.3153,-2.2828,-2.2825,-2.3147,-2.3006,-2.3163,-2.3725,-2.3789,-2.37,-2.3539,-2.3412,-2.347,-2.3795,-2.3942,-2.3843,-2.3388,-2.3312,-2.3113,-2.274,-2.2262,-2.1797,-2.1512,-2.1041,-2.0859,-2.1135,-2.0615,-2.0263,-2.0246,-2.0231,-2.0139,-2.0117,-2.0271,-2.0564,-2.1004,-2.1029,-2.0953,-2.0944,-2.0656,-2.062,-2.0729,-2.1059,-2.1345,-2.1215,-2.1189,-2.1152,-2.1056,-2.0781,-2.0635,-2.0615,-2.0527,-2.0333,-2.0147,-2.0177,-2.0255,-2.0303,-2.0547,-2.0731,-2.0722,-2.0246,-1.9755,-1.9426,-1.8498,-1.7827,-1.7426,-1.7256,-1.7026,-4.9944,-4.9221,-4.9031,-4.8601,-4.8041,-4.7844,-4.7375,-4.679,-4.6865,-4.6998,-4.7111,-4.7151,-4.6934,-4.6631,-4.6447,-4.6154,-4.5795,-4.5459,-4.5177,-4.4906,-4.4433,-4.4125,-4.3967,-4.3724,-4.3181,-4.2557,-4.2434,-4.1765,-4.0665,-4.0521,-4.0105,-3.9312,-3.8042,-3.6604,-3.5058,-3.4828,-3.4546,-3.4234,-3.3754,-3.3318,-3.2958,-3.1597,-3.0598,-2.9924,-2.8589,-2.7597,-2.7055,-2.6683,-2.6244,-2.5729,-2.5272,-2.4946,-2.4749,-2.45,-2.4338,-2.4308,-2.4308,-2.4203,-2.3987,-2.4057,-2.414,-2.4266,-2.3998,-2.3751,-2.3593,-2.3187,-2.2852,-2.2628,-2.2214,-2.1845,-2.1578,-2.1079,-2.0848,-2.1064,-2.0596,-2.0283,-2.0133,-2.0261,-2.0398,-2.0322,-2.0586,-2.0834,-2.1131,-2.1373,-2.1359,-2.0998,-2.103,-2.1056,-2.1001,-2.1109,-2.1377,-2.1571,-2.1405,-2.1114,-2.1253,-2.0919,-2.0635,-2.0615,-2.0498,-2.0303,-2.0098,-2.002,-2.0098,-2.0294,-2.0537,-2.0741,-2.0808,-2.0349,-1.9879,-1.9624,-1.8756,-1.7898,-1.7558,-1.7449,-1.7264,-5.0114,-4.9815,-4.9131,-4.8224,-4.7412,-4.755,-4.7254,-4.6667,-4.6637,-4.6708,-4.6865,-4.6975,-4.6865,-4.659,-4.635,-4.6062,-4.5709,-4.5274,-4.4934,-4.4667,-4.3753,-4.3255,-4.3054,-4.2345,-4.161,-4.1097,-4.0889,-4.0556,-3.996,-3.973,-3.8979,-3.7777,-3.6913,-3.6016,-3.5046,-3.478,-3.4497,-3.4093,-3.3246,-3.2927,-3.3188,-3.2238,-3.1155,-3.0015,-2.9161,-2.8229,-2.7211,-2.6736,-2.6244,-2.5729,-2.5397,-2.519,-2.5163,-2.5123,-2.5064,-2.4943,-2.4926,-2.4715,-2.4258,-2.4485,-2.4514,-2.4291,-2.389,-2.3641,-2.3556,-2.3065,-2.2628,-2.244,-2.2365,-2.2138,-2.1807,-2.1397,-2.1258,-2.15,-2.085,-2.0369,-2.0398,-2.0017,-1.9879,-2.0438,-2.0287,-2.0382,-2.1306,-2.1403,-2.1209,-2.1092,-2.1172,-2.1222,-2.1299,-2.1269,-2.1262,-2.1377,-2.1041,-2.0723,-2.0742,-2.0654,-2.0615,-2.0615,-2.0625,-2.0498,-2.0371,-2.043,-2.0537,-2.0429,-2.0586,-2.0829,-2.0817,-2.0604,-2.0266,-1.9799,-1.9081,-1.8288,-1.7709,-1.747,-1.728,-5.0206,-4.9976,-4.9648,-4.8844,-4.7875,-4.8072,-4.7569,-4.653,-4.6566,-4.6678,-4.6795,-4.6754,-4.6661,-4.6471,-4.6211,-4.5711,-4.5068,-4.5014,-4.4456,-4.3666,-4.373,-4.3317,-4.2406,-4.2383,-4.2109,-4.1652,-4.1125,-4.0717,-4.0365,-3.9632,-3.8804,-3.8028,-3.7203,-3.6397,-3.5554,-3.4832,-3.4374,-3.4226,-3.3524,-3.3258,-3.3192,-3.1589,-3.0489,-3.0129,-2.892,-2.7965,-2.7399,-2.7166,-2.6896,-2.6497,-2.6352,-2.6247,-2.6163,-2.59,-2.5704,-2.5656,-2.5335,-2.5165,-2.5191,-2.4829,-2.4604,-2.4683,-2.4015,-2.3567,-2.342,-2.2964,-2.2553,-2.2289,-2.2214,-2.2101,-2.1797,-2.155,-2.1391,-2.1377,-2.0956,-2.0547,-2.0208,-2.0203,-2.0199,-2.0186,-2.0448,-2.0759,-2.1264,-2.157,-2.154,-2.141,-2.1475,-2.1655,-2.1519,-2.1366,-2.1306,-2.1294,-2.0993,-2.077,-2.0644,-2.0615,-2.0615,-2.0654,-2.0801,-2.0887,-2.0729,-2.0808,-2.0887,-2.0679,-2.0693,-2.079,-2.0858,-2.0444,-2.0056,-1.973,-1.9098,-1.8262,-1.7876,-1.7668,-1.7552,-5.0074,-4.9918,-5.0005,-4.9377,-4.8323,-4.8426,-4.7766,-4.6671,-4.6462,-4.6495,-4.6661,-4.6518,-4.6398,-4.6277,-4.6087,-4.5444,-4.4593,-4.4644,-4.396,-4.279,-4.3152,-4.2691,-4.1638,-4.1638,-4.164,-4.1329,-4.0774,-4.0458,-4.0308,-3.9517,-3.8741,-3.8257,-3.7492,-3.6713,-3.5952,-3.5013,-3.4471,-3.4184,-3.3569,-3.3296,-3.3165,-3.1237,-3.0285,-3.0458,-2.8971,-2.801,-2.7906,-2.7698,-2.7465,-2.7286,-2.7233,-2.7166,-2.7043,-2.6733,-2.6454,-2.6266,-2.5856,-2.564,-2.5798,-2.5142,-2.4787,-2.4874,-2.4129,-2.353,-2.3335,-2.2852,-2.244,-2.2138,-2.1949,-2.1807,-2.1731,-2.1512,-2.1282,-2.1138,-2.0945,-2.0576,-2.0019,-2.0245,-2.0263,-2.0003,-2.0407,-2.1016,-2.1333,-2.1798,-2.2045,-2.1814,-2.1901,-2.2022,-2.1689,-2.1596,-2.1553,-2.1278,-2.1164,-2.096,-2.0664,-2.0615,-2.0635,-2.0791,-2.1045,-2.115,-2.1045,-2.1167,-2.114,-2.0816,-2.0742,-2.0722,-2.0867,-2.0455,-2.0082,-1.9866,-1.9304,-1.858,-1.8277,-1.8071,-1.7954,-4.9607,-4.9755,-5.0046,-4.9573,-4.8728,-4.8179,-4.7648,-4.6974,-4.6226,-4.6062,-4.6374,-4.6172,-4.603,-4.603,-4.5963,-4.5418,-4.4541,-4.4147,-4.3456,-4.2421,-4.1627,-4.0929,-4.0617,-3.9654,-3.9287,-3.9594,-3.9352,-3.9132,-3.9051,-3.9007,-3.8677,-3.8028,-3.7456,-3.6695,-3.5992,-3.5511,-3.495,-3.4262,-3.3223,-3.2908,-3.3212,-3.1724,-3.0944,-3.1178,-2.9655,-2.8892,-2.9005,-2.823,-2.7791,-2.7982,-2.7863,-2.7774,-2.7676,-2.7633,-2.735,-2.6776,-2.6453,-2.614,-2.5724,-2.5357,-2.5158,-2.4898,-2.4129,-2.3556,-2.3446,-2.2703,-2.2187,-2.2101,-2.1589,-2.132,-2.1425,-2.1205,-2.0984,-2.0945,-2.077,-2.0411,-1.9951,-1.9987,-1.993,-1.9937,-2.0249,-2.0852,-2.1674,-2.2133,-2.2322,-2.2259,-2.2183,-2.205,-2.1985,-2.1994,-2.1792,-2.1515,-2.14,-2.1277,-2.0761,-2.0674,-2.083,-2.1005,-2.116,-2.1304,-2.1331,-2.1329,-2.1165,-2.0983,-2.0899,-2.0839,-2.0877,-2.0757,-2.0538,-2.0263,-1.9839,-1.931,-1.8899,-1.863,-1.8483,-4.9898,-4.9307,-4.9619,-4.9033,-4.7939,-4.7896,-4.7342,-4.6434,-4.6095,-4.6005,-4.6087,-4.5938,-4.5778,-4.5606,-4.5546,-4.5079,-4.4379,-4.4026,-4.3175,-4.2065,-4.2179,-4.1523,-4.0151,-4.0354,-4.0484,-4.0221,-3.967,-3.9385,-3.932,-3.9051,-3.8799,-3.8568,-3.7979,-3.751,-3.7044,-3.5847,-3.5198,-3.5269,-3.3856,-3.3393,-3.3884,-3.2405,-3.1768,-3.2237,-3.046,-2.9429,-2.9423,-2.9093,-2.8857,-2.8709,-2.8854,-2.8887,-2.8771,-2.8466,-2.794,-2.7288,-2.6958,-2.6544,-2.6005,-2.5449,-2.5064,-2.4838,-2.4068,-2.3494,-2.315,-2.2515,-2.1997,-2.1693,-2.132,-2.1099,-2.1089,-2.1089,-2.1061,-2.0906,-2.0829,-2.0566,-2.0156,-2.0169,-2.02,-1.9941,-2.0361,-2.1212,-2.1968,-2.2444,-2.2469,-2.2129,-2.2193,-2.2098,-2.1773,-2.1778,-2.1727,-2.155,-2.1565,-2.1578,-2.1289,-2.1072,-2.1073,-2.1267,-2.146,-2.1672,-2.1738,-2.1556,-2.1354,-2.1343,-2.1203,-2.1023,-2.1079,-2.0888,-2.0717,-2.0653,-2.0226,-1.9918,-1.9641,-1.9278,-1.9063,-4.9579,-4.8829,-4.8914,-4.8396,-4.7483,-4.7186,-4.6707,-4.6014,-4.5728,-4.5658,-4.576,-4.5658,-4.552,-4.5336,-4.5203,-4.4936,-4.4474,-4.4057,-4.3149,-4.2023,-4.25,-4.1802,-4.0471,-4.0951,-4.0955,-4.0316,-3.987,-3.9637,-3.9601,-3.9287,-3.9039,-3.8843,-3.8422,-3.8103,-3.7646,-3.6119,-3.5546,-3.5648,-3.4218,-3.3571,-3.4045,-3.2949,-3.2387,-3.2517,-3.132,-3.0398,-3.0163,-2.9952,-2.9711,-2.9498,-2.9638,-2.9602,-2.9275,-2.8621,-2.8042,-2.7517,-2.7041,-2.6604,-2.6139,-2.5488,-2.5004,-2.479,-2.4043,-2.3446,-2.3113,-2.2515,-2.1949,-2.154,-2.1041,-2.078,-2.0751,-2.0741,-2.0839,-2.0957,-2.0997,-2.0859,-2.049,-2.0716,-2.074,-2.0706,-2.1087,-2.1821,-2.249,-2.2755,-2.2669,-2.227,-2.2368,-2.2158,-2.193,-2.1706,-2.1667,-2.1505,-2.1556,-2.1627,-2.1587,-2.1537,-2.1646,-2.1831,-2.1848,-2.2044,-2.2059,-2.1861,-2.1678,-2.1637,-2.1539,-2.1379,-2.1194,-2.0984,-2.0913,-2.0958,-2.072,-2.038,-2.0114,-1.9834,-1.9633,-4.8547,-4.824,-4.7992,-4.7825,-4.7329,-4.6241,-4.5784,-4.5843,-4.5162,-4.5089,-4.5372,-4.5283,-4.5203,-4.5167,-4.5032,-4.4944,-4.479,-4.4143,-4.3348,-4.259,-4.224,-4.167,-4.0873,-4.1036,-4.0443,-3.9229,-3.9345,-3.9476,-3.946,-3.9458,-3.9186,-3.8714,-3.8689,-3.8395,-3.7756,-3.6518,-3.5849,-3.5612,-3.4241,-3.3544,-3.377,-3.3244,-3.2773,-3.2609,-3.2099,-3.1673,-3.1404,-3.0682,-3.0221,-3.009,-3.0052,-2.9772,-2.9093,-2.8234,-2.7571,-2.7399,-2.6855,-2.6311,-2.5928,-2.5464,-2.5051,-2.4636,-2.3975,-2.3337,-2.304,-2.2467,-2.1869,-2.1464,-2.0954,-2.0566,-2.0352,-2.0234,-2.0378,-2.1013,-2.1162,-2.1218,-2.1344,-2.1457,-2.1669,-2.1934,-2.214,-2.2428,-2.2877,-2.3047,-2.2965,-2.2911,-2.2668,-2.2432,-2.241,-2.2059,-2.1776,-2.1649,-2.1676,-2.1757,-2.1873,-2.2007,-2.2244,-2.2425,-2.233,-2.2399,-2.2423,-2.2254,-2.1935,-2.1848,-2.163,-2.1468,-2.1461,-2.1285,-2.1241,-2.1193,-2.0983,-2.0819,-2.0677,-2.0427,-2.0129,-4.8147,-4.8065,-4.809,-4.756,-4.6747,-4.6389,-4.5982,-4.5354,-4.5101,-4.5069,-4.5113,-4.5086,-4.4951,-4.4803,-4.4737,-4.4737,-4.4703,-4.441,-4.3963,-4.3352,-4.2879,-4.2272,-4.1694,-4.1667,-4.1069,-3.9959,-3.9454,-3.924,-3.9146,-3.8917,-3.8659,-3.8508,-3.8588,-3.8557,-3.8236,-3.7062,-3.6577,-3.6842,-3.5301,-3.4466,-3.4491,-3.3715,-3.2987,-3.2487,-3.215,-3.1811,-3.1394,-3.1026,-3.072,-3.0462,-3.0219,-2.9727,-2.8998,-2.8506,-2.799,-2.7417,-2.7159,-2.6646,-2.5916,-2.522,-2.461,-2.4038,-2.3163,-2.2562,-2.2371,-2.1961,-2.1572,-2.1288,-2.0886,-2.0537,-2.0342,-2.0345,-2.0545,-2.092,-2.114,-2.1345,-2.1578,-2.1534,-2.1861,-2.2419,-2.2481,-2.2682,-2.3158,-2.3276,-2.3144,-2.3091,-2.2828,-2.2618,-2.2407,-2.2309,-2.2043,-2.1802,-2.1866,-2.1967,-2.2026,-2.2172,-2.2433,-2.2597,-2.2606,-2.265,-2.2655,-2.2436,-2.2146,-2.1855,-2.1638,-2.1594,-2.1596,-2.1552,-2.1456,-2.1302,-2.0997,-2.1011,-2.1193,-2.0984,-2.0644,-4.8099,-4.8065,-4.7944,-4.7454,-4.6675,-4.6589,-4.6127,-4.5546,-4.5575,-4.5439,-4.5207,-4.5228,-4.5003,-4.4677,-4.4598,-4.4598,-4.4598,-4.4598,-4.4372,-4.401,-4.3609,-4.3009,-4.2222,-4.149,-4.0951,-4.0204,-3.9216,-3.8822,-3.8987,-3.8563,-3.8351,-3.8351,-3.8464,-3.8476,-3.8278,-3.699,-3.6552,-3.6963,-3.5154,-3.4151,-3.4253,-3.3521,-3.2732,-3.2308,-3.2053,-3.1798,-3.1467,-3.1264,-3.091,-3.0507,-3.0142,-2.9557,-2.8853,-2.8415,-2.7937,-2.7404,-2.6953,-2.6473,-2.5881,-2.504,-2.4314,-2.3711,-2.2753,-2.2105,-2.197,-2.169,-2.1432,-2.1191,-2.0925,-2.0566,-2.0273,-2.032,-2.0564,-2.0866,-2.1354,-2.1741,-2.2007,-2.2188,-2.2434,-2.2959,-2.304,-2.3222,-2.3404,-2.3406,-2.3319,-2.3309,-2.3013,-2.2803,-2.253,-2.2441,-2.2176,-2.2008,-2.205,-2.212,-2.2113,-2.2334,-2.2633,-2.2702,-2.277,-2.2829,-2.2872,-2.232,-2.1909,-2.1528,-2.1268,-2.143,-2.1433,-2.1445,-2.1374,-2.1176,-2.1066,-2.1213,-2.1369,-2.1308,-2.1017,-4.8295,-4.8194,-4.7736,-4.7531,-4.7247,-4.6586,-4.6246,-4.6207,-4.625,-4.5954,-4.5618,-4.5532,-4.5297,-4.4756,-4.4609,-4.4542,-4.457,-4.4598,-4.4581,-4.4429,-4.4152,-4.3566,-4.2615,-4.0984,-4.018,-3.9872,-3.8665,-3.8304,-3.8706,-3.8354,-3.818,-3.818,-3.8294,-3.8258,-3.7798,-3.6326,-3.5975,-3.6169,-3.4061,-3.3255,-3.3862,-3.293,-3.2198,-3.2012,-3.1826,-3.1698,-3.1539,-3.1176,-3.0732,-3.0296,-2.9766,-2.9195,-2.868,-2.7954,-2.7429,-2.7191,-2.6432,-2.605,-2.5689,-2.4912,-2.4116,-2.3561,-2.2672,-2.2026,-2.1833,-2.1658,-2.1449,-2.1221,-2.0964,-2.0605,-2.0135,-2.0186,-2.0525,-2.0988,-2.1759,-2.238,-2.2984,-2.325,-2.3337,-2.3454,-2.3667,-2.3797,-2.3797,-2.3634,-2.3634,-2.358,-2.3242,-2.3023,-2.2925,-2.2706,-2.2441,-2.2353,-2.2309,-2.2274,-2.2274,-2.2451,-2.2696,-2.2711,-2.2726,-2.2746,-2.2785,-2.2242,-2.1787,-2.1369,-2.0995,-2.1158,-2.1262,-2.1161,-2.1217,-2.1187,-2.1217,-2.1405,-2.1385,-2.1247,-2.1237,-4.9642,-4.9043,-4.9022,-4.8353,-4.7323,-4.7101,-4.6669,-4.6155,-4.628,-4.6284,-4.6085,-4.5585,-4.5278,-4.5142,-4.4586,-4.4384,-4.4412,-4.4542,-4.4598,-4.4542,-4.4258,-4.3419,-4.2343,-4.1105,-4.0056,-3.9301,-3.8352,-3.7884,-3.7912,-3.7871,-3.7831,-3.7863,-3.7976,-3.7776,-3.7118,-3.6334,-3.5765,-3.5379,-3.4412,-3.3446,-3.321,-3.288,-3.2309,-3.1668,-3.1509,-3.1322,-3.1058,-3.0627,-3.0249,-2.9903,-2.9035,-2.8522,-2.8405,-2.7616,-2.7092,-2.6878,-2.6633,-2.6149,-2.5483,-2.4727,-2.3884,-2.2926,-2.2306,-2.1695,-2.1296,-2.1266,-2.1236,-2.1123,-2.0886,-2.0489,-2.0134,-2.0333,-2.1006,-2.1891,-2.2351,-2.2824,-2.3236,-2.346,-2.3493,-2.3537,-2.3677,-2.3894,-2.398,-2.3884,-2.3764,-2.3764,-2.3547,-2.3242,-2.3144,-2.3003,-2.274,-2.2671,-2.2583,-2.2495,-2.2495,-2.2627,-2.2687,-2.2683,-2.2664,-2.2587,-2.2494,-2.2165,-2.1774,-2.1419,-2.08,-2.0741,-2.077,-2.0769,-2.0925,-2.1089,-2.1128,-2.1167,-2.1089,-2.1011,-2.1126,-4.9858,-4.9408,-4.9303,-4.8748,-4.7899,-4.7864,-4.7502,-4.696,-4.6739,-4.6514,-4.624,-4.5885,-4.5349,-4.4867,-4.4716,-4.4481,-4.4258,-4.4384,-4.444,-4.4276,-4.3647,-4.2692,-4.1668,-4.085,-3.9893,-3.859,-3.7905,-3.7569,-3.7435,-3.7449,-3.7365,-3.7263,-3.7587,-3.7307,-3.6366,-3.5935,-3.5529,-3.4942,-3.3977,-3.3091,-3.3126,-3.248,-3.1914,-3.138,-3.1234,-3.1058,-3.0702,-3.0249,-2.9915,-2.9645,-2.9035,-2.8492,-2.8271,-2.7746,-2.7229,-2.6897,-2.6692,-2.622,-2.5461,-2.4657,-2.3804,-2.2914,-2.2213,-2.1701,-2.1378,-2.1282,-2.1236,-2.1163,-2.0954,-2.0605,-2.0271,-2.0599,-2.1438,-2.2311,-2.2715,-2.2979,-2.3329,-2.3416,-2.3493,-2.359,-2.3764,-2.4024,-2.4163,-2.4034,-2.398,-2.3937,-2.3677,-2.346,-2.3319,-2.3178,-2.3047,-2.2882,-2.2847,-2.2794,-2.275,-2.2838,-2.2824,-2.2819,-2.2626,-2.2494,-2.2074,-2.1842,-2.1361,-2.0945,-2.0543,-2.0303,-2.0342,-2.045,-2.0683,-2.0809,-2.0858,-2.0867,-2.0819,-2.0995,-2.1102,-4.9609,-4.9623,-4.9112,-4.8822,-4.8642,-4.8547,-4.8224,-4.7996,-4.7432,-4.6882,-4.6364,-4.6221,-4.5484,-4.4307,-4.4741,-4.4671,-4.4097,-4.4056,-4.391,-4.3459,-4.2709,-4.1762,-4.0918,-4.0378,-3.9296,-3.8057,-3.7419,-3.716,-3.7006,-3.7021,-3.6735,-3.6461,-3.6938,-3.6584,-3.5505,-3.4986,-3.4924,-3.4511,-3.3061,-3.2511,-3.272,-3.2094,-3.1471,-3.1058,-3.0734,-3.0704,-3.0389,-2.9966,-2.9603,-2.9732,-2.9251,-2.8598,-2.8187,-2.8059,-2.755,-2.6939,-2.6508,-2.6117,-2.5475,-2.4601,-2.3828,-2.3128,-2.2378,-2.1832,-2.1703,-2.1497,-2.1387,-2.1213,-2.1167,-2.0898,-2.068,-2.0935,-2.165,-2.2451,-2.2759,-2.2813,-2.3115,-2.3388,-2.3573,-2.3563,-2.3975,-2.4191,-2.4224,-2.4184,-2.411,-2.3807,-2.3634,-2.345,-2.3319,-2.3178,-2.3047,-2.2925,-2.2969,-2.3057,-2.3057,-2.3057,-2.3013,-2.2925,-2.2639,-2.2357,-2.1627,-2.1257,-2.074,-2.0366,-2.0251,-2.0116,-1.9942,-2.0137,-2.0411,-2.0527,-2.0547,-2.0576,-2.0673,-2.1055,-2.1271,-5.076,-4.9958,-4.9574,-4.8987,-4.8391,-4.826,-4.8098,-4.7803,-4.7622,-4.7357,-4.7077,-4.6167,-4.5566,-4.5291,-4.4567,-4.409,-4.3873,-4.3516,-4.2914,-4.216,-4.1761,-4.0959,-4.0189,-3.9625,-3.8731,-3.7737,-3.7433,-3.6987,-3.6479,-3.6249,-3.5873,-3.5383,-3.543,-3.5055,-3.4226,-3.3877,-3.3444,-3.3169,-3.2422,-3.2169,-3.224,-3.2016,-3.141,-3.0776,-3.0058,-2.9893,-2.9913,-2.9219,-2.896,-2.9042,-2.8524,-2.8002,-2.7841,-2.7289,-2.6806,-2.6535,-2.6336,-2.5886,-2.5147,-2.4696,-2.413,-2.3157,-2.2922,-2.2637,-2.1748,-2.1707,-2.1539,-2.1282,-2.1071,-2.1056,-2.1192,-2.1174,-2.1736,-2.2432,-2.2495,-2.2564,-2.3188,-2.3668,-2.3782,-2.3791,-2.4068,-2.4408,-2.4368,-2.4025,-2.3901,-2.3687,-2.3537,-2.3406,-2.3266,-2.3135,-2.3057,-2.2925,-2.3057,-2.3188,-2.3363,-2.3323,-2.3172,-2.2957,-2.2679,-2.2428,-2.1729,-2.1115,-2.0753,-2.0451,-2.0189,-2.0025,-1.9912,-1.9863,-2.0137,-2.0186,-2.0352,-2.0517,-2.0732,-2.1105,-2.1471,-5.0639,-5.0123,-4.9244,-4.8594,-4.8228,-4.8195,-4.7984,-4.7655,-4.7325,-4.693,-4.6487,-4.5666,-4.5105,-4.4572,-4.4172,-4.3949,-4.3555,-4.3024,-4.2109,-4.116,-4.0654,-3.9993,-3.9113,-3.8724,-3.8163,-3.7537,-3.73,-3.6699,-3.5992,-3.5549,-3.5073,-3.4322,-3.4417,-3.4063,-3.3295,-3.3058,-3.2968,-3.2661,-3.2258,-3.2031,-3.1909,-3.1803,-3.1327,-3.0416,-2.9555,-2.922,-2.9389,-2.878,-2.8491,-2.8453,-2.8094,-2.7752,-2.7716,-2.7183,-2.6708,-2.6352,-2.6233,-2.5804,-2.5147,-2.4766,-2.4338,-2.3295,-2.3312,-2.2815,-2.2264,-2.1985,-2.17,-2.132,-2.1169,-2.1214,-2.1644,-2.1732,-2.2083,-2.233,-2.2318,-2.2288,-2.261,-2.3114,-2.3464,-2.3509,-2.3795,-2.389,-2.383,-2.373,-2.3737,-2.3547,-2.3353,-2.3222,-2.3101,-2.296,-2.2969,-2.2969,-2.3144,-2.3319,-2.358,-2.3554,-2.3318,-2.3031,-2.2611,-2.248,-2.2142,-2.1535,-2.1001,-2.0716,-2.0464,-2.0203,-2.0069,-2.0029,-2.0016,-2.0305,-2.052,-2.0638,-2.0933,-2.1477,-2.1807,-4.9985,-4.9991,-4.8531,-4.8017,-4.813,-4.813,-4.7984,-4.7556,-4.6897,-4.6241,-4.5407,-4.5179,-4.4361,-4.3591,-4.3737,-4.3647,-4.2993,-4.2485,-4.1456,-4.0117,-3.9834,-3.9186,-3.837,-3.8072,-3.7881,-3.7626,-3.7225,-3.6473,-3.5491,-3.4942,-3.4195,-3.3395,-3.3505,-3.3111,-3.2499,-3.248,-3.2524,-3.2288,-3.2208,-3.1934,-3.1813,-3.1644,-3.1166,-2.9913,-2.9015,-2.8614,-2.8611,-2.8237,-2.8002,-2.7896,-2.8005,-2.7947,-2.7723,-2.7436,-2.6998,-2.6427,-2.6186,-2.5746,-2.5111,-2.4778,-2.4406,-2.3666,-2.3372,-2.3001,-2.2505,-2.2155,-2.1797,-2.1389,-2.1142,-2.1293,-2.1787,-2.188,-2.2131,-2.2312,-2.2223,-2.2002,-2.1986,-2.2308,-2.263,-2.3002,-2.3274,-2.3403,-2.3413,-2.3359,-2.3422,-2.3416,-2.3188,-2.3057,-2.2945,-2.2882,-2.2891,-2.3013,-2.3232,-2.3537,-2.3807,-2.3701,-2.3497,-2.3272,-2.2788,-2.266,-2.2549,-2.2074,-2.1578,-2.1122,-2.0809,-2.0546,-2.0312,-2.0231,-2.0343,-2.0581,-2.0783,-2.0922,-2.1347,-2.1916,-2.216,-4.9464,-4.8737,-4.805,-4.777,-4.7803,-4.7951,-4.782,-4.7456,-4.6733,-4.6109,-4.54,-4.4464,-4.3896,-4.3507,-4.3176,-4.2577,-4.1855,-4.1416,-4.0654,-3.9402,-3.9111,-3.8641,-3.8298,-3.7963,-3.7727,-3.7433,-3.7042,-3.6119,-3.4787,-3.4166,-3.3471,-3.2236,-3.2073,-3.1864,-3.1719,-3.1455,-3.1693,-3.1851,-3.2015,-3.1932,-3.1517,-3.1524,-3.0991,-2.9369,-2.842,-2.7966,-2.7767,-2.7575,-2.7514,-2.7855,-2.7849,-2.7723,-2.751,-2.7188,-2.6756,-2.6324,-2.5998,-2.5556,-2.4981,-2.4682,-2.4236,-2.3703,-2.3261,-2.2889,-2.2488,-2.2176,-2.1769,-2.1344,-2.1095,-2.1146,-2.1527,-2.1755,-2.2049,-2.2199,-2.2123,-2.2017,-2.2236,-2.2161,-2.2121,-2.2473,-2.2728,-2.2936,-2.2923,-2.2953,-2.3008,-2.3013,-2.2838,-2.2905,-2.3017,-2.2924,-2.2823,-2.3033,-2.3319,-2.3677,-2.4067,-2.3884,-2.3684,-2.3527,-2.3236,-2.3079,-2.2885,-2.2598,-2.2178,-2.1732,-2.1203,-2.0742,-2.0585,-2.0571,-2.059,-2.0825,-2.1028,-2.1282,-2.181,-2.2386,-2.2685,-4.8915,-4.8539,-4.7664,-4.7404,-4.7588,-4.7754,-4.7424,-4.6797,-4.6487,-4.5651,-4.4656,-4.3864,-4.3299,-4.2928,-4.2638,-4.1871,-4.104,-4.0598,-3.9849,-3.8913,-3.8655,-3.8432,-3.8164,-3.7876,-3.7567,-3.724,-3.6875,-3.5921,-3.4225,-3.3879,-3.3036,-3.2184,-3.1782,-3.1679,-3.1589,-3.1543,-3.12,-3.1232,-3.1423,-3.1447,-3.0747,-3.094,-3.006,-2.9187,-2.8263,-2.7755,-2.7393,-2.7203,-2.7056,-2.7072,-2.7235,-2.7249,-2.7121,-2.6696,-2.632,-2.6042,-2.5687,-2.5293,-2.4874,-2.461,-2.4236,-2.3666,-2.3213,-2.2815,-2.244,-2.2101,-2.1693,-2.1268,-2.1351,-2.1354,-2.1368,-2.1579,-2.1704,-2.1678,-2.1617,-2.1642,-2.1624,-2.1456,-2.1655,-2.1989,-2.2254,-2.2425,-2.2509,-2.2536,-2.2602,-2.253,-2.2495,-2.2742,-2.3009,-2.2875,-2.2694,-2.309,-2.3369,-2.3457,-2.3833,-2.3777,-2.3704,-2.3611,-2.3544,-2.3387,-2.3177,-2.285,-2.2627,-2.2318,-2.1745,-2.1104,-2.1252,-2.1307,-2.1216,-2.1167,-2.1692,-2.2135,-2.2465,-2.2816,-2.3189,-4.8402,-4.8392,-4.7445,-4.7167,-4.737,-4.7407,-4.693,-4.6191,-4.593,-4.4935,-4.3507,-4.3168,-4.2686,-4.2108,-4.1757,-4.1276,-4.0393,-3.9988,-3.9272,-3.8618,-3.8403,-3.8148,-3.7876,-3.7798,-3.7624,-3.706,-3.694,-3.5845,-3.4379,-3.3682,-3.2988,-3.2267,-3.1997,-3.1788,-3.1605,-3.1469,-3.0919,-3.0637,-3.0728,-3.0725,-3.0256,-2.9704,-2.9268,-2.8896,-2.8295,-2.7616,-2.7037,-2.6733,-2.6465,-2.6285,-2.6367,-2.6642,-2.6634,-2.596,-2.5607,-2.5721,-2.5283,-2.4897,-2.4625,-2.4351,-2.3887,-2.3285,-2.3047,-2.2729,-2.2327,-2.1921,-2.1474,-2.1133,-2.1328,-2.1476,-2.1235,-2.1506,-2.1444,-2.1203,-2.1216,-2.1226,-2.1125,-2.1105,-2.1202,-2.1507,-2.1816,-2.198,-2.2049,-2.226,-2.2362,-2.2377,-2.2342,-2.2619,-2.2877,-2.2618,-2.259,-2.3127,-2.3364,-2.3274,-2.3431,-2.3607,-2.3567,-2.3594,-2.3534,-2.344,-2.3264,-2.302,-2.288,-2.2787,-2.2205,-2.1701,-2.1892,-2.2014,-2.1829,-2.1957,-2.2534,-2.293,-2.3125,-2.3551,-2.3999,-4.8226,-4.7399,-4.7402,-4.7251,-4.6967,-4.6699,-4.6405,-4.5929,-4.487,-4.3816,-4.2921,-4.2393,-4.1895,-4.1366,-4.0975,-4.0577,-4.0011,-3.9403,-3.8843,-3.8253,-3.8116,-3.7886,-3.763,-3.8158,-3.7586,-3.6971,-3.6953,-3.6098,-3.4644,-3.3691,-3.296,-3.2268,-3.1678,-3.1291,-3.1166,-3.1166,-3.0742,-3.0309,-3.0711,-3.0828,-3.0372,-2.9462,-2.8829,-2.8288,-2.7663,-2.701,-2.6515,-2.6215,-2.5824,-2.5598,-2.5496,-2.5749,-2.5921,-2.4784,-2.4896,-2.5179,-2.5044,-2.4332,-2.4177,-2.3838,-2.347,-2.2983,-2.262,-2.2397,-2.1997,-2.1627,-2.1215,-2.0985,-2.1296,-2.1409,-2.1203,-2.1404,-2.1346,-2.1266,-2.1206,-2.1297,-2.1237,-2.1068,-2.1121,-2.1234,-2.1552,-2.1581,-2.1599,-2.1913,-2.215,-2.2182,-2.2277,-2.2553,-2.2767,-2.2612,-2.2584,-2.3045,-2.3245,-2.3159,-2.3225,-2.3381,-2.3404,-2.3497,-2.3481,-2.345,-2.3337,-2.3191,-2.3317,-2.3133,-2.2578,-2.2355,-2.2514,-2.2542,-2.2405,-2.2639,-2.3057,-2.3382,-2.3647,-2.4156,-2.4699,-4.795,-4.7385,-4.7098,-4.6892,-4.6675,-4.625,-4.5714,-4.5096,-4.435,-4.3412,-4.2508,-4.209,-4.1463,-4.06,-3.9787,-3.928,-3.9037,-3.8599,-3.8283,-3.795,-3.7783,-3.7578,-3.745,-3.7416,-3.7048,-3.6645,-3.6281,-3.5754,-3.4592,-3.3615,-3.2832,-3.228,-3.1619,-3.1134,-3.0818,-3.0754,-3.026,-2.9855,-2.9792,-2.9887,-2.9609,-2.9141,-2.8689,-2.8402,-2.7752,-2.7063,-2.65,-2.5832,-2.5428,-2.5159,-2.5008,-2.5076,-2.5204,-2.477,-2.4656,-2.4718,-2.4384,-2.4148,-2.4307,-2.3652,-2.3178,-2.2871,-2.2499,-2.2014,-2.1578,-2.1331,-2.1191,-2.1076,-2.1341,-2.1374,-2.1287,-2.1295,-2.1203,-2.1112,-2.1186,-2.1153,-2.1209,-2.1265,-2.1206,-2.1239,-2.1361,-2.1505,-2.1634,-2.1826,-2.1996,-2.1934,-2.2144,-2.2493,-2.2797,-2.2898,-2.2917,-2.3066,-2.3076,-2.3003,-2.3105,-2.3212,-2.3202,-2.3284,-2.3284,-2.3276,-2.3363,-2.3353,-2.345,-2.358,-2.3322,-2.3208,-2.3163,-2.2911,-2.2663,-2.3081,-2.3555,-2.3799,-2.4053,-2.4657,-2.504,-4.7671,-4.7369,-4.6927,-4.6633,-4.6413,-4.5717,-4.5074,-4.4491,-4.38,-4.2895,-4.1885,-4.1276,-4.049,-3.9649,-3.8668,-3.8263,-3.8246,-3.775,-3.7617,-3.7522,-3.7261,-3.7035,-3.6996,-3.677,-3.6367,-3.5878,-3.5954,-3.5276,-3.4262,-3.3346,-3.2588,-3.2382,-3.1472,-3.0952,-3.0626,-3.0409,-3.0029,-2.9277,-2.9109,-2.9091,-2.9045,-2.8871,-2.8716,-2.8375,-2.7863,-2.7209,-2.6705,-2.5627,-2.4955,-2.4793,-2.4507,-2.4546,-2.4829,-2.4536,-2.4466,-2.4394,-2.3962,-2.3601,-2.3722,-2.3408,-2.3024,-2.2758,-2.2429,-2.1655,-2.1128,-2.1071,-2.1163,-2.1152,-2.1469,-2.1581,-2.1573,-2.1298,-2.1123,-2.1003,-2.0948,-2.0924,-2.0996,-2.1386,-2.1673,-2.1833,-2.1908,-2.1942,-2.201,-2.197,-2.1916,-2.1734,-2.1987,-2.2405,-2.2829,-2.3173,-2.3215,-2.3268,-2.3133,-2.3109,-2.3164,-2.3242,-2.3154,-2.3101,-2.3101,-2.3101,-2.3144,-2.3319,-2.345,-2.358,-2.3754,-2.3664,-2.3453,-2.3189,-2.2975,-2.3462,-2.3889,-2.4111,-2.447,-2.5098,-2.5391,-4.7251,-4.7217,-4.7132,-4.6703,-4.6024,-4.4809,-4.4387,-4.423,-4.3073,-4.1997,-4.088,-3.9688,-3.8953,-3.8385,-3.7959,-3.7606,-3.7558,-3.7203,-3.7153,-3.6826,-3.6332,-3.6366,-3.6446,-3.6367,-3.6022,-3.5602,-3.5547,-3.4887,-3.3711,-3.272,-3.2532,-3.2563,-3.1144,-3.0586,-3.0188,-2.9868,-2.961,-2.9036,-2.878,-2.8748,-2.878,-2.8716,-2.8587,-2.8311,-2.7458,-2.6698,-2.6695,-2.5365,-2.449,-2.4416,-2.4033,-2.4055,-2.4381,-2.4135,-2.4134,-2.4059,-2.3526,-2.3152,-2.3026,-2.2765,-2.2343,-2.2038,-2.1716,-2.1397,-2.0945,-2.0906,-2.1007,-2.124,-2.1525,-2.1587,-2.1506,-2.1315,-2.1168,-2.1047,-2.1112,-2.1254,-2.1461,-2.189,-2.22,-2.2407,-2.2508,-2.2447,-2.2339,-2.2247,-2.2082,-2.1935,-2.214,-2.2604,-2.3169,-2.3468,-2.351,-2.3523,-2.3347,-2.3326,-2.3374,-2.3315,-2.3023,-2.2969,-2.3013,-2.2969,-2.2925,-2.3101,-2.3363,-2.3624,-2.3797,-2.3754,-2.3784,-2.3614,-2.3646,-2.393,-2.4224,-2.4411,-2.4822,-2.5377,-2.5613,-4.7064,-4.6775,-4.6251,-4.5798,-4.5365,-4.4464,-4.3862,-4.342,-4.2574,-4.155,-4.0371,-3.8917,-3.7989,-3.7563,-3.704,-3.6814,-3.6877,-3.6879,-3.6862,-3.6831,-3.6522,-3.6369,-3.6383,-3.6054,-3.5735,-3.5439,-3.5252,-3.4687,-3.3532,-3.2315,-3.1663,-3.1217,-3.0403,-2.9761,-2.9348,-2.9111,-2.8869,-2.8806,-2.8522,-2.8438,-2.8702,-2.8527,-2.8411,-2.8303,-2.7818,-2.7022,-2.6512,-2.5385,-2.4695,-2.4178,-2.3747,-2.3811,-2.3959,-2.3698,-2.3638,-2.3697,-2.3025,-2.2739,-2.2314,-2.2026,-2.1715,-2.1647,-2.1405,-2.1205,-2.0906,-2.0819,-2.1105,-2.1375,-2.152,-2.148,-2.1954,-2.1702,-2.141,-2.1263,-2.134,-2.1554,-2.1966,-2.2417,-2.2718,-2.2955,-2.2931,-2.2858,-2.2739,-2.2593,-2.2368,-2.2212,-2.2451,-2.2788,-2.3309,-2.369,-2.3662,-2.3634,-2.3475,-2.3334,-2.3338,-2.3119,-2.2832,-2.2882,-2.2925,-2.2925,-2.2882,-2.3013,-2.3276,-2.358,-2.3841,-2.3884,-2.3964,-2.4112,-2.4157,-2.4182,-2.4375,-2.4639,-2.5145,-2.5663,-2.5664,-4.6789,-4.6397,-4.5496,-4.5034,-4.4818,-4.4008,-4.3341,-4.2838,-4.2044,-4.0928,-3.9612,-3.8153,-3.7247,-3.6793,-3.6407,-3.6241,-3.6382,-3.6445,-3.643,-3.6245,-3.5968,-3.5967,-3.5764,-3.5448,-3.5014,-3.4978,-3.4595,-3.3951,-3.2535,-3.1839,-3.097,-3.0132,-2.9539,-2.9054,-2.8724,-2.8243,-2.8177,-2.8308,-2.8229,-2.8177,-2.8476,-2.8379,-2.8048,-2.7913,-2.7341,-2.6764,-2.6035,-2.514,-2.4524,-2.4103,-2.376,-2.3522,-2.352,-2.3449,-2.3237,-2.2945,-2.2718,-2.2568,-2.185,-2.162,-2.1403,-2.1218,-2.1281,-2.1096,-2.0935,-2.0751,-2.0977,-2.1709,-2.1572,-2.1594,-2.2221,-2.1848,-2.1617,-2.1479,-2.158,-2.1831,-2.2473,-2.3003,-2.3253,-2.3477,-2.3434,-2.3461,-2.3216,-2.301,-2.2553,-2.2386,-2.2463,-2.2876,-2.348,-2.3713,-2.366,-2.359,-2.3551,-2.3381,-2.3267,-2.3076,-2.2866,-2.2662,-2.275,-2.2882,-2.2935,-2.3076,-2.3285,-2.3667,-2.3884,-2.398,-2.4041,-2.4075,-2.4157,-2.4236,-2.4601,-2.5049,-2.5273,-2.5674,-2.5596,-4.6285,-4.617,-4.5116,-4.4658,-4.4468,-4.3263,-4.2764,-4.2469,-4.1294,-3.9882,-3.8481,-3.7297,-3.6553,-3.6191,-3.6084,-3.6068,-3.6068,-3.6085,-3.5966,-3.5599,-3.5413,-3.495,-3.4793,-3.4658,-3.4558,-3.4153,-3.383,-3.2933,-3.1224,-3.1032,-3.0116,-2.919,-2.8738,-2.8554,-2.8522,-2.8052,-2.7934,-2.8046,-2.7868,-2.7934,-2.8099,-2.8099,-2.778,-2.7498,-2.6934,-2.6401,-2.5677,-2.4885,-2.4327,-2.3975,-2.3628,-2.3525,-2.377,-2.3455,-2.321,-2.2982,-2.2642,-2.2048,-2.1107,-2.1563,-2.145,-2.1062,-2.12,-2.1126,-2.0935,-2.08,-2.1017,-2.1789,-2.1595,-2.1651,-2.1839,-2.1939,-2.1826,-2.1877,-2.1988,-2.2336,-2.3042,-2.3429,-2.3681,-2.3794,-2.4002,-2.4084,-2.3777,-2.3425,-2.281,-2.2559,-2.254,-2.2935,-2.3479,-2.3764,-2.369,-2.3703,-2.364,-2.343,-2.3287,-2.3087,-2.2896,-2.2656,-2.2618,-2.2794,-2.2984,-2.3174,-2.3451,-2.3794,-2.4028,-2.4206,-2.4135,-2.4031,-2.4302,-2.4647,-2.5142,-2.5527,-2.5664,-2.5684,-2.5635,-4.5454,-4.5308,-4.4058,-4.3445,-4.3311,-4.29,-4.2206,-4.1244,-3.9929,-3.8825,-3.8044,-3.7111,-3.6445,-3.6132,-3.6053,-3.6006,-3.5864,-3.6258,-3.6075,-3.5672,-3.5391,-3.5369,-3.5132,-3.4785,-3.4445,-3.3974,-3.3446,-3.2511,-3.1098,-3.0568,-2.9717,-2.8796,-2.8164,-2.7954,-2.7921,-2.7689,-2.7536,-2.7603,-2.7469,-2.7436,-2.7822,-2.7776,-2.7598,-2.7438,-2.6913,-2.6255,-2.552,-2.4675,-2.4205,-2.3769,-2.339,-2.3276,-2.3342,-2.3028,-2.2693,-2.2464,-2.2168,-2.1891,-2.1285,-2.1315,-2.1439,-2.1282,-2.1206,-2.1223,-2.1233,-2.0848,-2.1223,-2.1662,-2.1556,-2.1679,-2.2058,-2.2159,-2.2172,-2.2545,-2.277,-2.3217,-2.3697,-2.391,-2.4097,-2.4097,-2.4202,-2.3904,-2.3655,-2.3359,-2.2844,-2.2448,-2.2374,-2.2752,-2.3288,-2.3696,-2.3795,-2.3825,-2.3772,-2.351,-2.3308,-2.3205,-2.3038,-2.2793,-2.2763,-2.2838,-2.3037,-2.3252,-2.3516,-2.3861,-2.4156,-2.4432,-2.4284,-2.4239,-2.4752,-2.52,-2.5447,-2.5624,-2.5693,-2.5723,-2.5771,-4.4964,-4.4735,-4.3387,-4.259,-4.2365,-4.2382,-4.1591,-4.0182,-3.8951,-3.8152,-3.7561,-3.6894,-3.6445,-3.6195,-3.6085,-3.581,-3.5543,-3.5946,-3.566,-3.5425,-3.5614,-3.5287,-3.5046,-3.4967,-3.4277,-3.3685,-3.2953,-3.2004,-3.0466,-2.9959,-2.9143,-2.8278,-2.7703,-2.757,-2.7469,-2.7302,-2.7248,-2.7217,-2.7038,-2.6994,-2.7168,-2.7084,-2.6772,-2.6725,-2.6382,-2.5844,-2.5127,-2.4511,-2.3983,-2.3449,-2.309,-2.2818,-2.2726,-2.2512,-2.2216,-2.2024,-2.1603,-2.1538,-2.1339,-2.1123,-2.1289,-2.1465,-2.136,-2.1318,-2.132,-2.0974,-2.1145,-2.1406,-2.1387,-2.1768,-2.2167,-2.2247,-2.2465,-2.2786,-2.3151,-2.3584,-2.3697,-2.3843,-2.4152,-2.4202,-2.4053,-2.3746,-2.3415,-2.3092,-2.2756,-2.2435,-2.2182,-2.2594,-2.3046,-2.3438,-2.3759,-2.3821,-2.3849,-2.3664,-2.3502,-2.3383,-2.3165,-2.2923,-2.2961,-2.3094,-2.3178,-2.3447,-2.3639,-2.3819,-2.3971,-2.4119,-2.4279,-2.4516,-2.4937,-2.52,-2.5349,-2.5527,-2.5684,-2.5674,-2.5713,-4.4862,-4.448,-4.3234,-4.2206,-4.1669,-4.1626,-4.0785,-3.9408,-3.859,-3.7762,-3.7,-3.6739,-3.6491,-3.6241,-3.6131,-3.5777,-3.5366,-3.5666,-3.5195,-3.4707,-3.5164,-3.4837,-3.4673,-3.4515,-3.3879,-3.3068,-3.2235,-3.1231,-2.9681,-2.9193,-2.8499,-2.7788,-2.7382,-2.7167,-2.7032,-2.6909,-2.6858,-2.67,-2.6263,-2.6238,-2.6363,-2.6005,-2.5833,-2.5716,-2.5392,-2.4826,-2.4192,-2.3683,-2.3329,-2.3,-2.2769,-2.2708,-2.2586,-2.2352,-2.2123,-2.1765,-2.1177,-2.1096,-2.1244,-2.1035,-2.1055,-2.1255,-2.136,-2.1303,-2.1244,-2.1081,-2.1174,-2.1348,-2.1418,-2.1813,-2.2136,-2.2267,-2.2419,-2.2777,-2.3153,-2.3331,-2.3426,-2.3684,-2.4079,-2.4102,-2.3945,-2.3646,-2.3273,-2.2941,-2.2707,-2.2299,-2.2037,-2.2097,-2.2544,-2.3179,-2.3475,-2.361,-2.3706,-2.3818,-2.3723,-2.353,-2.3448,-2.3243,-2.3357,-2.3464,-2.3557,-2.3613,-2.3722,-2.3806,-2.3634,-2.3791,-2.4202,-2.4614,-2.5019,-2.524,-2.5477,-2.5605,-2.5732,-2.5459,-2.5372,-4.418,-4.3801,-4.2216,-4.1326,-4.0783,-3.9882,-3.9124,-3.8574,-3.7853,-3.72,-3.6816,-3.7219,-3.6799,-3.6272,-3.6779,-3.6408,-3.607,-3.5838,-3.5682,-3.5431,-3.5158,-3.5023,-3.4676,-3.4182,-3.3449,-3.2479,-3.1527,-3.0573,-2.9417,-2.8714,-2.8133,-2.7562,-2.71,-2.6816,-2.6589,-2.6349,-2.6189,-2.5908,-2.5365,-2.5339,-2.546,-2.528,-2.5178,-2.511,-2.4956,-2.4391,-2.3892,-2.3367,-2.3055,-2.28,-2.2494,-2.2371,-2.2309,-2.2023,-2.1757,-2.1617,-2.0939,-2.0468,-2.0733,-2.053,-2.0464,-2.0828,-2.0983,-2.1299,-2.1293,-2.1198,-2.1135,-2.1378,-2.145,-2.1752,-2.2203,-2.2476,-2.2544,-2.2732,-2.3055,-2.3183,-2.3287,-2.3563,-2.3898,-2.4003,-2.3845,-2.3555,-2.3173,-2.2935,-2.2613,-2.2146,-2.19,-2.1933,-2.2138,-2.278,-2.3114,-2.3251,-2.3672,-2.3871,-2.3802,-2.3677,-2.3645,-2.3597,-2.3744,-2.3907,-2.3987,-2.3991,-2.3874,-2.3728,-2.3588,-2.3828,-2.4271,-2.4648,-2.4984,-2.54,-2.5615,-2.5722,-2.575,-2.5477,-2.5156,-4.3516,-4.3178,-4.1725,-4.0625,-3.9739,-3.8617,-3.7975,-3.773,-3.7307,-3.6953,-3.6677,-3.6939,-3.6783,-3.6349,-3.661,-3.6394,-3.5595,-3.5869,-3.5729,-3.5125,-3.5307,-3.4931,-3.4496,-3.3885,-3.2966,-3.1965,-3.096,-3.0048,-2.9068,-2.8222,-2.757,-2.7281,-2.6816,-2.6508,-2.6086,-2.549,-2.5163,-2.4985,-2.4748,-2.4563,-2.4633,-2.4711,-2.4666,-2.4872,-2.4747,-2.4255,-2.3703,-2.3147,-2.28,-2.2525,-2.2197,-2.2011,-2.1937,-2.1698,-2.1463,-2.1249,-2.0654,-2.0346,-2.0434,-2.0178,-2.0212,-2.0354,-2.0533,-2.091,-2.1138,-2.1129,-2.1303,-2.1518,-2.1533,-2.1644,-2.2221,-2.272,-2.2725,-2.274,-2.2899,-2.3035,-2.3232,-2.3441,-2.3601,-2.3791,-2.3646,-2.3406,-2.3143,-2.2911,-2.2629,-2.2243,-2.1977,-2.189,-2.2092,-2.2587,-2.2807,-2.2858,-2.3484,-2.3978,-2.3892,-2.3842,-2.3934,-2.3994,-2.4173,-2.4294,-2.4405,-2.4096,-2.3676,-2.3518,-2.3472,-2.3796,-2.4132,-2.4555,-2.4889,-2.5333,-2.5604,-2.5621,-2.563,-2.5543,-2.5222,-4.2979,-4.2854,-4.1582,-4.0114,-3.8654,-3.7903,-3.7473,-3.703,-3.7045,-3.6816,-3.6492,-3.6365,-3.6364,-3.6256,-3.6424,-3.5979,-3.5564,-3.567,-3.5498,-3.4563,-3.4818,-3.4638,-3.4121,-3.3563,-3.2469,-3.1329,-3.0397,-2.966,-2.8746,-2.7973,-2.7403,-2.699,-2.6589,-2.6205,-2.5672,-2.4983,-2.4604,-2.4377,-2.4435,-2.4426,-2.4396,-2.4177,-2.3867,-2.4384,-2.421,-2.3729,-2.3199,-2.275,-2.2433,-2.2161,-2.1803,-2.1561,-2.1466,-2.1244,-2.1057,-2.0786,-2.0271,-2.0072,-1.9963,-1.9763,-1.9778,-1.9931,-2.0126,-2.0507,-2.0691,-2.0875,-2.1096,-2.1507,-2.1559,-2.1805,-2.2346,-2.2596,-2.2633,-2.2728,-2.2834,-2.3015,-2.3208,-2.3441,-2.3754,-2.3809,-2.3605,-2.3406,-2.3214,-2.296,-2.2545,-2.2252,-2.2045,-2.1888,-2.2177,-2.2536,-2.2696,-2.2752,-2.3466,-2.4049,-2.399,-2.3978,-2.424,-2.438,-2.4488,-2.4603,-2.4622,-2.4067,-2.3336,-2.323,-2.314,-2.3542,-2.3898,-2.4223,-2.4658,-2.5225,-2.5408,-2.5427,-2.5438,-2.5483,-2.5309,-4.3492,-4.297,-4.1502,-3.9751,-3.8084,-3.8173,-3.7802,-3.7165,-3.7045,-3.6739,-3.6428,-3.6654,-3.659,-3.6114,-3.6447,-3.6035,-3.5305,-3.5378,-3.5237,-3.4653,-3.4488,-3.4156,-3.3533,-3.2701,-3.1809,-3.1137,-3.0295,-2.9274,-2.84,-2.7769,-2.7335,-2.6977,-2.6543,-2.6039,-2.5502,-2.4808,-2.4544,-2.4188,-2.4232,-2.4292,-2.422,-2.4203,-2.4126,-2.401,-2.3649,-2.3516,-2.2924,-2.223,-2.2049,-2.1863,-2.1117,-2.0868,-2.0892,-2.0571,-2.04,-2.0238,-1.9931,-1.9707,-1.9548,-1.9437,-1.9414,-1.953,-1.9729,-2.0008,-2.0301,-2.0515,-2.0869,-2.1366,-2.1697,-2.1996,-2.2303,-2.2434,-2.2555,-2.2676,-2.2778,-2.2944,-2.3176,-2.3531,-2.3879,-2.3791,-2.3596,-2.3397,-2.3247,-2.2904,-2.2435,-2.2196,-2.2032,-2.2006,-2.2302,-2.2639,-2.2989,-2.3132,-2.3699,-2.4112,-2.4053,-2.4125,-2.4331,-2.4457,-2.4558,-2.4665,-2.4781,-2.4088,-2.3364,-2.2922,-2.2792,-2.3277,-2.3611,-2.373,-2.4216,-2.4982,-2.5242,-2.5236,-2.5322,-2.5347,-2.5242,-4.2936,-4.2525,-4.1024,-3.9338,-3.7925,-3.7951,-3.7722,-3.7257,-3.7044,-3.6739,-3.6367,-3.6531,-3.6356,-3.591,-3.6256,-3.5969,-3.5029,-3.5133,-3.4853,-3.4439,-3.386,-3.3517,-3.2779,-3.2004,-3.1344,-3.069,-2.9764,-2.8812,-2.8066,-2.7636,-2.7235,-2.7032,-2.6586,-2.6049,-2.5521,-2.5241,-2.482,-2.4369,-2.4371,-2.4309,-2.423,-2.422,-2.4049,-2.3749,-2.353,-2.3247,-2.2476,-2.1722,-2.1475,-2.1353,-2.0849,-2.0536,-2.0473,-2.0269,-2.0172,-2.0115,-1.9933,-1.9599,-1.9432,-1.9291,-1.9274,-1.9475,-1.965,-2.0049,-2.0529,-2.081,-2.1105,-2.1473,-2.118,-2.141,-2.2161,-2.2475,-2.2536,-2.2657,-2.275,-2.2875,-2.3242,-2.3672,-2.3867,-2.3827,-2.3655,-2.3546,-2.3297,-2.2837,-2.2519,-2.2689,-2.2424,-2.2343,-2.2625,-2.3008,-2.3239,-2.3522,-2.4033,-2.4224,-2.4148,-2.4236,-2.4393,-2.452,-2.4489,-2.4575,-2.4522,-2.3966,-2.3377,-2.316,-2.3072,-2.3235,-2.347,-2.3683,-2.424,-2.5103,-2.52,-2.5098,-2.5176,-2.5201,-2.5096,-4.1947,-4.163,-4.0482,-3.9037,-3.7814,-3.7666,-3.75,-3.721,-3.7075,-3.6831,-3.6523,-3.621,-3.5926,-3.5735,-3.5593,-3.5142,-3.4825,-3.47,-3.4392,-3.4027,-3.3229,-3.2964,-3.2451,-3.1678,-3.0886,-3.0187,-2.9397,-2.8688,-2.7987,-2.759,-2.7335,-2.7154,-2.679,-2.6308,-2.5918,-2.5426,-2.4874,-2.4784,-2.4751,-2.4658,-2.4547,-2.4374,-2.4056,-2.376,-2.3381,-2.2689,-2.1916,-2.1223,-2.0824,-2.0769,-2.0691,-2.0438,-2.0247,-2.0129,-2.0258,-2.0208,-2.0065,-1.9915,-1.983,-1.9696,-1.9716,-1.9844,-1.9919,-2.0243,-2.0763,-2.1006,-2.1303,-2.1331,-2.1036,-2.1094,-2.187,-2.2552,-2.2629,-2.2906,-2.2944,-2.3017,-2.3447,-2.3923,-2.3934,-2.3954,-2.3854,-2.3746,-2.3447,-2.2979,-2.2893,-2.3074,-2.3095,-2.3026,-2.3074,-2.3545,-2.3891,-2.4057,-2.436,-2.4403,-2.434,-2.417,-2.4279,-2.4242,-2.4214,-2.4315,-2.4272,-2.3883,-2.366,-2.3694,-2.3642,-2.3573,-2.3714,-2.3917,-2.4563,-2.5115,-2.4882,-2.4759,-2.4924,-2.4951,-2.4909,-4.1478,-4.0244,-4.0467,-3.9404,-3.77,-3.8033,-3.7895,-3.7271,-3.7164,-3.6952,-3.6616,-3.6305,-3.5973,-3.5537,-3.5344,-3.4971,-3.4437,-3.4237,-3.422,-3.4038,-3.2676,-3.2416,-3.2065,-3.1236,-3.034,-2.9741,-2.9293,-2.8835,-2.8137,-2.7656,-2.7403,-2.7255,-2.6918,-2.6413,-2.5879,-2.5528,-2.5406,-2.522,-2.507,-2.4977,-2.4525,-2.4318,-2.4114,-2.3649,-2.3013,-2.2317,-2.1517,-2.0481,-2.0364,-2.0396,-2.0439,-2.0257,-2.0161,-2.0107,-2.0278,-2.0475,-2.0329,-2.0233,-2.0177,-2.0168,-2.0221,-1.987,-2.0052,-2.0558,-2.0817,-2.0846,-2.1125,-2.146,-2.1224,-2.1005,-2.1586,-2.2529,-2.2926,-2.3521,-2.3851,-2.3771,-2.4021,-2.4279,-2.4452,-2.4341,-2.4143,-2.4093,-2.4003,-2.365,-2.3474,-2.352,-2.3539,-2.3489,-2.3696,-2.4132,-2.4458,-2.46,-2.4648,-2.4736,-2.4701,-2.4044,-2.3945,-2.389,-2.3935,-2.4122,-2.4135,-2.3912,-2.3826,-2.3914,-2.3857,-2.3755,-2.3962,-2.4276,-2.4412,-2.4756,-2.4423,-2.4284,-2.4622,-2.4771,-2.481]},{"header":{"parameterUnit":"m.s-1","parameterCategory":1,"la1":31.0,"la2":29.5877,"lo1":-88.7671,"lo2":-86.6584,"dy":0.0162,"dx":0.0185,"nx":115,"ny":88,"refTime":"2024-05-03T06:00:00:Z","depth":0,"parameterNumber":3,"parameterNumberName":"V-component_of_WINDS"},"data":[0.0,0.0,0.0,0.0,0.0,0.0,0.0,0.0,0.0,0.0,0.0,0.0,0.0,0.0,0.0,0.0,0.0,0.0,0.0,0.0,0.0,0.0,0.0,0.0,0.0,0.0,0.0,0.0,0.0,0.0,0.0,0.0,0.0,0.0,0.0,0.0,0.0,0.0,0.0,0.0,0.0,0.0,0.0,0.0,0.0,0.0,0.0,0.0,0.0,0.0,0.0,0.0,0.0,0.0,0.0,0.0,0.0,0.0,0.0,0.0,0.0,0.0,0.0,0.0,0.0,0.0,0.0,0.0,0.0,0.0,0.0,0.0,0.0,0.0,0.0,0.0,0.0,0.0,0.0,0.0,0.0,0.0,0.0,0.0,0.0,0.0,0.0,0.0,0.0,0.0,0.0,0.0,0.0,0.0,0.0,0.0,0.0,0.0,0.0,0.0,0.0,0.0,0.0,0.0,0.0,0.0,0.0,0.0,0.0,0.0,0.0,0.0,0.0,0.0,0.0,0.0,0.0,0.0,0.0,0.0,0.0,0.0,0.0,0.0,0.0,0.0,0.0,0.0,0.0,0.0,0.0,0.0,0.0,0.0,0.0,0.0,0.0,0.0,0.0,0.0,0.0,0.0,0.0,0.0,0.0,0.0,0.0,0.0,0.0,0.0,0.0,0.0,0.0,0.0,0.0,0.0,0.0,0.0,0.0,0.0,0.0,0.0,0.0,0.0,0.0,0.0,0.0,0.0,0.0,0.0,0.0,0.0,0.0,0.0,0.0,0.0,0.0,0.0,0.0,0.0,0.0,0.0,0.0,0.0,0.0,0.0,0.0,0.0,0.0,0.0,0.0,0.0,0.0,0.0,0.0,0.0,0.0,0.0,0.0,0.0,0.0,0.0,0.0,0.0,0.0,0.0,0.0,0.0,0.0,0.0,0.0,0.0,0.0,0.0,0.0,0.0,0.0,0.0,0.0,0.0,0.0,0.0,0.0,0.0,0.0,0.0,0.0,0.0,0.0,0.0,0.0,0.0,0.0,0.0,0.0,0.0,0.0,0.0,0.0,0.0,0.0,0.0,0.0,0.0,0.0,0.0,0.0,0.0,0.0,0.0,0.0,0.0,0.0,0.0,0.0,0.0,0.0,0.0,0.0,0.0,0.0,0.0,0.0,0.0,0.0,0.0,0.0,0.0,0.0,0.0,0.0,0.0,0.0,0.0,0.0,0.0,0.0,0.0,0.0,0.0,0.0,0.0,0.0,0.0,0.0,0.0,0.0,0.0,0.0,0.0,0.0,0.0,0.0,0.0,0.0,0.0,0.0,0.0,0.0,0.0,0.0,0.0,0.0,0.0,0.0,0.0,0.0,0.0,0.0,0.0,0.0,0.0,0.0,0.0,0.0,0.0,0.0,0.0,0.0,0.0,0.0,0.0,0.0,0.0,0.0,0.0,0.0,0.0,0.0,0.0,0.0,0.0,0.0,0.0,0.0,0.0,0.0,0.0,0.0,0.0,0.0,0.0,0.0,0.0,0.0,0.0,0.0,0.0,0.0,0.0,0.0,0.0,0.0,0.0,0.0,0.0,0.0,0.0,0.0,0.0,0.0,0.0,0.0,0.0,0.0,0.0,0.0,0.0,0.0,0.0,0.0,0.0,0.0,0.0,0.0,0.0,0.0,0.0,0.0,0.0,0.0,0.0,0.0,0.0,0.0,0.0,0.0,0.0,0.0,0.0,0.0,0.0,0.0,0.0,0.0,0.0,0.0,0.0,0.0,0.0,0.0,0.0,0.0,0.0,0.0,0.0,0.0,0.0,0.0,0.0,0.0,0.0,0.0,0.0,0.0,0.0,0.0,0.0,0.0,0.0,0.0,0.0,0.0,0.0,0.0,0.0,0.0,0.0,0.0,0.0,0.0,0.0,0.0,0.0,0.0,0.0,0.0,0.0,0.0,0.0,0.0,0.0,0.0,0.0,0.0,0.0,0.0,0.0,0.0,0.0,0.0,0.0,0.0,0.0,0.0,0.0,0.0,0.0,0.0,0.0,0.0,0.0,0.0,0.0,0.0,0.0,0.0,0.0,0.0,0.0,0.0,0.0,0.0,0.0,0.0,0.0,0.0,0.0,0.0,0.0,0.0,0.0,0.0,0.0,0.0,0.0,0.0,0.0,0.0,0.0,0.0,0.0,0.0,0.0,0.0,0.0,0.0,0.0,0.0,0.0,0.0,0.0,0.0,0.0,0.0,0.0,0.0,0.0,0.0,0.0,0.0,0.0,0.0,0.0,0.0,0.0,0.0,0.0,0.0,0.0,0.0,0.0,0.0,0.0,0.0,0.0,0.0,0.0,0.0,0.0,0.0,0.0,0.0,0.0,0.0,0.0,0.0,0.0,0.0,0.0,0.0,0.0,0.0,0.0,0.0,0.0,0.0,0.0,0.0,0.0,0.0,0.0,0.0,0.0,0.0,0.0,0.0,0.0,0.0,0.0,0.0,0.0,0.0,0.0,0.0,0.0,0.0,0.0,0.0,0.0,0.0,0.0,0.0,0.0,0.0,0.0,0.0,0.0,0.0,0.0,0.0,0.0,0.0,0.0,0.0,0.0,0.0,0.0,0.0,0.0,0.0,0.0,0.0,0.0,0.0,0.0,0.0,0.0,0.0,0.0,0.0,0.0,0.0,0.0,0.0,0.0,0.0,0.0,0.0,0.0,0.0,0.0,0.0,0.0,0.0,0.0,0.0,0.0,0.0,0.0,0.0,0.0,0.0,0.0,0.0,0.0,0.0,0.0,0.0,0.0,0.0,0.0,0.0,0.0,0.0,0.0,0.0,0.0,0.0,0.0,0.0,0.0,0.0,0.0,0.0,0.0,0.0,0.0,0.0,0.0,0.0,0.0,0.0,0.0,0.0,0.0,0.0,0.0,0.0,0.0,0.0,0.0,0.0,0.0,0.0,0.0,0.0,0.0,0.0,0.0,0.0,0.0,0.0,0.0,0.0,0.0,0.0,0.0,0.0,0.0,0.0,0.0,0.0,0.0,0.0,0.0,0.0,0.0,0.0,0.0,0.0,0.0,0.0,0.0,0.0,0.0,0.0,0.0,0.0,0.0,0.0,0.0,0.0,0.0,0.0,0.0,0.0,0.0,0.0,0.0,0.0,0.0,0.0,0.0,0.0,0.0,0.0,0.0,0.0,0.0,0.0,0.0,0.0,0.0,0.0,0.0,0.0,0.0,0.0,0.0,0.0,0.0,0.0,0.0,0.0,0.0,0.0,0.0,0.0,0.0,0.0,0.0,0.0,0.0,0.0,0.0,0.0,0.0,0.0,0.0,0.0,0.0,0.0,0.0,0.0,0.0,0.0,0.0,0.0,0.0,0.0,0.0,0.0,0.0,0.0,0.0,0.0,0.0,0.0,0.0,0.0,0.0,0.0,0.0,0.0,0.0,0.0,0.0,0.0,0.0,0.0,0.0,0.0,0.0,0.0,0.0,0.0,0.0,0.0,0.0,0.0,0.0,0.0,0.0,0.0,0.0,0.0,0.0,0.0,0.0,0.0,0.0,0.0,0.0,0.0,0.0,0.0,0.0,0.0,0.0,0.0,0.0,0.0,0.0,0.0,0.0,0.0,0.0,0.0,0.0,0.0,0.0,0.0,0.0,0.0,0.0,0.0,0.0,0.0,0.0,0.0,0.0,0.0,0.0,0.0,0.0,0.0,0.0,0.0,0.0,0.0,0.0,0.0,0.0,0.0,0.0,0.0,0.0,0.0,0.0,0.0,0.0,0.0,0.0,0.0,0.0,0.0,0.0,0.0,0.0,0.0,0.0,0.0,0.0,0.0,0.0,0.0,0.0,0.0,0.0,0.0,0.0,0.0,0.0,0.0,0.0,0.0,0.0,0.0,0.0,0.0,0.0,0.0,0.0,0.0,0.0,0.0,0.0,0.0,0.0,0.0,0.0,0.0,0.0,0.0,0.0,0.0,0.0,0.0,0.0,0.0,0.0,0.0,0.0,0.0,0.0,0.0,0.0,0.0,0.0,0.0,0.0,0.0,0.0,0.0,0.0,0.0,0.0,0.0,0.0,0.0,0.0,0.0,0.0,0.0,0.0,0.0,0.0,0.0,0.0,0.0,0.0,0.0,0.0,0.0,0.0,0.0,0.0,0.0,0.0,0.0,0.0,0.0,0.0,0.0,0.0,0.0,0.0,0.0,0.0,0.0,0.0,0.0,0.0,0.0,0.0,0.0,0.0,0.0,0.0,0.0,0.0,0.0,0.0,0.0,0.0,0.9118,0.0,0.0,0.0,0.0,0.0,0.0,0.0,0.0,0.0,0.0,0.0,0.0,0.0,0.0,0.0,0.0,0.0,0.0,0.0,0.0,0.0,0.0,0.0,0.0,0.0,0.0,0.0,0.0,0.0,0.0,0.0,0.0,0.0,0.0,0.0,0.0,0.0,0.0,0.0,0.0,0.0,0.0,0.0,0.0,0.0,0.0,0.0,0.0,0.0,0.0,0.0,0.0,0.0,0.0,0.0,0.0,0.0,0.0,0.0,0.0,0.0,0.0,0.0,0.0,0.0,0.0,0.0,0.0,0.0,0.0,0.0,0.0,0.0,0.0,0.0,0.0,0.0,0.0,0.0,0.0,0.0,0.0,0.0,0.0,0.0,0.0,0.0,0.0,0.0,0.0,0.0,0.0,0.0,0.0,0.0,0.0,0.0,0.0,0.0,0.0,0.0,0.0,0.0,0.0,0.0,0.0,0.0,0.0,0.0,0.0,0.8194,0.8508,0.8873,0.9383,1.0066,0.0,0.0,0.0,0.0,0.0,0.0,0.0,0.0,0.0,0.0,0.0,0.0,0.0,0.0,0.0,0.0,0.0,0.0,0.0,0.0,0.0,0.0,0.0,0.0,0.0,0.0,0.0,0.0,0.0,0.0,0.0,0.0,0.0,0.0,0.0,0.0,0.0,0.0,0.0,0.0,0.0,0.0,0.0,0.0,0.0,0.0,0.0,0.0,0.0,0.0,0.0,0.0,0.0,0.0,0.0,0.0,0.0,0.0,0.0,0.0,0.0,0.0,0.0,0.0,0.0,0.0,0.0,0.0,0.0,0.0,0.0,0.0,0.0,0.0,0.0,0.0,0.0,0.0,0.0,0.0,0.0,0.0,0.0,0.0,0.0,0.0,0.0,0.0,0.0,0.0,0.0,0.0,0.0,0.0,0.0,0.0,0.0,0.0,0.0,0.0,0.0,0.0,0.0,0.0,0.0,0.0,0.0,0.0,0.0,0.0,0.0,0.0,0.9372,1.007,1.1318,0.0,0.0,0.0,0.0,0.0,0.0,0.0,0.0,0.0,0.0,0.0,0.0,0.0,0.0,0.0,0.0,0.0,0.0,0.0,0.0,0.0,0.0,0.0,0.0,0.0,0.0,0.0,0.0,0.0,0.0,0.0,0.0,0.0,0.0,0.0,0.0,0.0,0.0,0.0,0.0,0.0,0.0,0.0,0.0,0.0,0.0,0.0,0.0,0.0,0.0,0.0,0.0,0.0,0.0,0.0,0.0,0.0,0.0,0.0,0.0,0.0,0.0,0.0,0.0,0.0,0.0,0.0,0.0,0.0,0.0,0.0,0.0,0.0,0.0,0.0,0.0,0.0,0.0,0.0,0.0,0.0,0.0,0.0,0.0,0.0,0.0,0.0,0.0,0.0,0.0,0.0,0.0,0.0,0.0,0.0,0.0,0.0,0.0,0.0,0.0,0.0,0.0,0.0,0.0,0.0,0.0,0.0,0.0,0.0,0.0,0.875,1.0461,1.0545,0.0,1.2659,0.0,0.0,0.0,0.0,0.0,0.0,0.0,0.0,0.0,0.0,0.0,0.0,0.0,0.0,0.0,0.0,0.0,0.0,0.0,0.0,0.0,0.0,0.0,0.0,0.0,0.0,0.0,0.0,0.0,0.0,0.0,0.0,0.0,0.0,0.0,0.0,0.0,0.0,0.0,0.0,0.0,0.0,0.0,0.0,0.0,0.0,0.0,0.0,0.0,0.0,0.0,0.0,0.0,0.0,0.0,0.0,0.0,0.0,0.0,0.0,0.0,0.0,0.0,0.0,0.0,0.0,0.0,0.0,0.0,0.0,0.0,0.0,0.0,0.0,0.0,0.0,0.0,0.0,0.0,0.0,0.0,0.0,0.0,0.0,0.0,0.0,0.0,0.0,0.0,0.0,0.0,0.0,0.0,0.0,0.0,0.0,0.0,0.0,0.0,0.0,0.0,0.0,0.0,0.0,0.0,0.0,0.0,0.0,0.0,0.0,0.9265,1.0837,1.1748,1.2389,0.0,0.0,0.0,0.0,0.0,0.0,0.0,0.0,0.0,0.0,0.0,0.0,0.0,0.0,0.0,0.0,0.0,0.0,0.0,0.0,0.0,0.0,0.0,0.0,0.0,0.0,0.0,0.0,0.0,0.0,0.0,0.0,0.0,0.0,0.0,0.0,0.0,0.0,0.0,0.0,0.0,0.0,0.0,0.0,0.0,0.0,0.0,0.0,0.0,0.0,0.0,0.0,0.0,0.0,0.0,0.0,0.0,0.0,0.0,0.0,0.0,0.0,0.0,0.0,0.0,0.0,0.0,0.0,0.0,0.0,0.0,0.0,0.0,0.0,0.0,0.0,0.0,0.0,0.0,0.0,0.0,0.0,0.0,0.0,0.0,0.0,0.0,0.0,0.0,0.0,0.0,0.0,0.0,0.0,0.0,0.0,0.0,0.0,0.0,0.0,0.0,0.0,0.0,0.0,0.0,0.0,0.0,0.0,0.0,0.0,0.9082,0.9905,1.1414,1.2403,1.2819,1.2676,0.0,0.0,0.0,0.0,0.0,0.0,0.0,0.0,0.0,0.0,0.0,0.0,0.0,0.0,0.0,0.0,0.0,0.0,0.0,0.0,0.0,0.0,0.0,0.0,0.0,0.0,0.0,0.0,0.0,0.0,0.0,0.0,0.0,0.0,0.0,0.0,0.0,0.0,0.0,0.0,0.0,0.0,0.0,0.0,0.0,0.0,0.0,0.0,0.0,0.0,0.0,0.0,0.0,0.0,0.0,0.0,0.0,0.0,0.0,0.0,0.0,0.0,0.0,0.0,0.0,0.0,0.0,0.0,0.0,0.0,0.0,0.0,0.0,0.0,0.0,0.0,0.0,0.0,0.0,0.0,0.0,0.0,0.0,0.0,0.0,0.0,0.0,0.0,0.0,0.0,0.0,0.0,0.0,0.0,0.0,0.0,0.0,0.0,0.0,0.0,0.0,0.0,0.0,0.0,0.0,0.0,0.0,0.0,1.1294,1.0346,1.0698,1.2601,1.2164,1.2229,0.0,0.0,0.0,0.0,0.0,0.0,0.0,0.0,0.0,0.0,0.0,0.0,0.0,0.0,0.0,0.0,0.0,0.0,0.0,0.0,0.0,0.0,0.0,0.0,0.0,0.0,0.0,0.0,0.0,0.0,0.0,0.0,0.0,0.0,0.0,0.0,0.0,0.0,0.0,0.0,0.0,0.0,0.0,0.0,0.0,0.0,0.0,0.0,0.0,0.0,0.0,0.0,0.0,0.0,0.0,0.0,0.0,0.0,0.0,0.0,0.0,0.0,0.0,0.0,0.0,0.0,0.0,0.0,0.0,0.0,0.0,0.0,0.0,0.0,0.0,0.0,0.0,0.0,0.0,0.0,0.0,0.0,0.0,0.0,0.0,0.0,0.0,0.0,0.0,0.0,0.0,0.0,0.0,0.0,0.0,0.0,0.0,0.0,0.0,0.0,0.0,0.0,0.0,0.0,0.0,0.0,0.0,0.0,0.0,0.9113,1.0017,1.1057,1.2232,1.2536,1.2835,0.0,0.0,0.0,0.0,0.0,0.0,0.0,0.0,0.0,0.0,0.0,0.0,0.0,0.0,0.0,0.0,0.0,0.0,0.0,0.0,0.0,0.0,0.0,0.0,0.0,0.0,0.0,0.0,0.0,0.0,0.0,0.0,0.0,0.0,0.0,0.0,0.0,0.0,0.0,0.0,0.0,0.0,0.0,0.0,0.0,0.0,0.0,0.0,0.0,0.0,0.0,0.0,0.0,0.0,0.0,0.0,0.0,0.0,0.0,0.0,0.0,0.0,0.0,0.0,0.0,0.0,0.0,0.0,0.0,0.0,0.0,0.0,0.0,0.0,0.0,0.0,0.0,0.0,0.0,0.0,0.0,0.0,0.0,0.0,0.0,0.0,0.0,0.0,0.0,0.0,0.0,0.0,0.0,0.0,0.0,0.0,0.0,0.0,0.0,0.0,0.0,0.0,0.0,0.0,0.0,0.0,0.0,0.0,0.0,0.8816,0.0,1.1852,1.2373,1.2569,1.2688,0.0,0.0,0.0,0.0,0.0,0.0,0.0,0.0,0.0,0.0,0.0,0.0,0.0,0.0,0.0,0.0,0.0,0.0,0.0,0.0,0.0,0.0,0.0,0.0,0.0,0.0,0.0,0.0,0.0,0.0,0.0,0.0,0.0,0.0,0.0,0.0,0.0,0.0,0.0,0.0,0.0,0.0,0.0,0.0,0.0,0.0,0.0,0.0,0.0,0.0,0.0,0.0,0.0,0.0,0.0,0.0,0.0,0.0,0.0,0.0,0.0,0.0,0.0,0.0,0.0,0.0,0.0,0.0,0.0,0.0,0.0,0.0,0.0,0.0,0.0,0.0,0.0,0.0,0.0,0.0,0.0,0.0,0.0,0.0,0.0,0.0,0.0,0.0,0.0,0.0,0.0,0.0,0.0,0.0,0.0,0.0,0.0,0.0,0.0,0.0,0.0,0.0,0.0,0.0,0.0,0.0,0.0,0.0,0.8401,1.0923,1.2215,1.2929,1.323,1.2191,1.1719,0.0,0.0,0.0,0.0,0.0,0.0,0.0,0.0,0.0,0.0,0.0,0.0,0.0,0.0,0.0,0.0,0.0,0.0,0.0,0.0,0.0,0.0,0.0,0.0,0.0,0.0,0.0,0.0,0.0,0.0,0.0,0.0,0.0,0.0,0.0,0.0,0.0,0.0,0.0,0.0,0.0,0.0,0.0,0.0,0.0,0.0,0.0,0.0,0.0,0.0,0.0,0.0,0.0,0.0,0.0,0.0,0.0,0.0,0.0,0.0,0.0,0.0,0.0,0.0,0.0,0.0,0.0,0.0,0.0,0.0,0.0,0.0,0.0,0.0,0.0,0.0,0.0,0.0,0.0,0.0,0.0,0.0,0.0,0.0,0.0,0.0,0.0,0.0,0.0,0.0,0.0,0.0,0.0,0.0,0.0,0.0,0.0,0.0,0.0,0.0,0.0,0.0,0.0,0.0,0.0,0.0,0.0,0.0,0.0,0.9446,1.0828,1.187,1.2481,1.1934,1.2009,0.0,0.0,0.0,0.0,0.0,0.0,0.0,0.0,0.0,0.0,0.0,0.0,0.0,0.0,0.0,0.0,0.0,0.0,0.0,0.0,0.0,0.0,0.0,0.0,0.0,0.0,0.0,0.0,0.0,0.0,0.0,0.0,0.0,0.0,0.0,0.0,0.0,0.0,0.0,0.0,0.0,0.0,0.0,0.0,0.0,0.0,0.0,0.0,0.0,0.0,0.0,0.0,0.0,0.0,0.0,0.0,0.0,0.0,0.0,0.0,0.0,0.0,0.0,0.0,0.0,0.0,0.0,0.0,0.0,0.0,0.0,0.0,0.0,0.0,0.0,0.0,0.0,0.0,0.0,0.0,0.0,0.0,0.0,0.0,0.0,0.0,0.0,0.0,0.0,0.0,0.0,0.0,0.0,0.0,0.0,0.0,0.0,0.0,0.0,0.0,0.0,0.0,0.0,0.0,0.0,0.0,0.0,0.0,0.0,1.0717,1.1912,1.2861,1.3464,1.3232,1.3007,1.2802,0.0,0.0,0.0,0.0,0.0,0.0,0.0,0.0,0.0,0.0,0.0,0.0,0.0,0.0,0.0,0.0,0.0,0.0,0.0,0.0,0.0,0.0,0.0,0.0,0.0,0.0,0.0,0.0,0.0,0.0,0.0,0.0,0.0,0.0,0.0,0.0,0.0,0.0,0.0,0.0,0.0,0.0,0.0,0.0,0.0,0.0,0.0,0.0,0.0,0.0,0.0,0.0,0.0,0.0,0.0,0.0,0.0,0.0,0.0,0.0,0.0,0.0,0.0,0.0,0.0,0.0,0.0,0.0,0.0,0.0,0.0,0.0,0.0,0.0,0.0,0.0,0.0,0.0,0.0,0.0,0.0,0.0,0.0,0.0,0.0,0.0,0.0,0.0,0.0,0.0,0.0,0.0,0.0,0.0,0.0,0.0,0.0,0.0,0.0,0.0,0.0,0.0,0.0,0.0,0.0,0.0,0.0,0.0,1.4093,1.5198,1.5782,1.5804,1.5647,1.4482,0.0,0.0,0.0,0.0,0.0,0.0,0.0,0.0,0.0,0.0,0.0,0.0,0.0,0.0,0.0,0.0,0.0,0.0,0.0,0.0,0.0,0.0,0.0,0.0,0.0,0.0,0.0,0.0,0.0,0.0,0.0,0.0,0.0,0.0,0.0,0.0,0.0,0.0,0.0,0.0,0.0,0.0,0.0,0.0,0.0,0.0,0.0,0.0,0.0,0.0,0.0,0.0,0.0,0.0,0.0,0.0,0.0,0.0,0.0,0.0,0.0,0.0,0.0,0.0,0.0,0.0,0.0,0.0,0.0,0.0,0.0,0.0,0.0,0.0,0.0,0.0,0.0,0.0,0.0,0.0,0.0,0.0,0.0,0.0,0.0,0.0,0.0,0.0,0.0,0.0,0.0,0.0,0.0,0.0,0.0,0.0,0.0,0.0,0.0,0.0,0.0,0.0,0.0,0.0,0.0,0.0,0.0,0.0,0.0,1.6442,1.8956,1.9674,1.8432,1.6639,1.5425,0.0,0.0,0.0,0.0,0.0,0.0,0.0,0.0,0.0,0.0,0.0,0.0,0.0,0.0,0.0,0.0,0.0,0.0,0.0,0.0,0.0,0.0,0.0,0.0,0.0,0.0,0.0,0.0,0.0,0.0,0.0,0.0,0.0,0.0,0.0,0.0,0.0,0.0,0.0,0.0,0.0,0.0,0.0,0.0,0.0,0.0,0.0,0.0,0.0,0.0,0.0,0.0,0.0,0.0,0.0,0.0,0.0,0.0,0.0,0.0,0.0,0.0,0.0,0.0,0.0,0.0,0.0,0.0,0.0,0.0,0.0,0.0,0.0,0.0,0.0,0.0,0.0,0.0,0.0,0.0,0.0,0.0,0.0,0.0,0.0,0.0,0.0,0.0,0.0,0.0,0.0,0.0,0.0,0.0,0.0,0.0,0.0,0.0,0.0,0.0,0.0,0.0,0.0,0.0,0.0,0.0,0.0,0.0,1.5518,1.8166,2.1885,2.3461,2.275,1.9821,1.7426,0.0,0.0,0.0,0.0,0.0,0.0,0.0,0.0,0.0,0.0,0.0,0.0,0.0,0.0,0.0,0.0,0.0,0.0,0.0,0.0,0.0,0.0,0.0,0.0,0.0,0.0,0.0,0.0,0.0,0.0,0.0,0.0,0.0,0.0,0.0,0.0,0.0,0.0,0.0,0.0,0.0,0.0,0.0,0.0,0.0,0.0,0.0,0.0,0.0,0.0,0.0,0.0,0.0,0.0,0.0,0.0,0.0,0.0,0.0,0.0,0.0,0.0,0.0,0.0,0.0,0.0,0.0,0.0,0.0,0.0,0.0,0.0,0.0,0.0,0.0,0.0,0.0,0.0,0.0,0.0,0.0,0.0,0.0,0.0,0.0,0.0,0.0,0.0,0.0,0.0,0.0,0.0,0.0,0.0,0.0,0.0,0.0,0.0,0.0,0.0,0.0,0.0,0.0,0.0,0.0,0.0,0.0,0.0,1.7585,1.937,2.3853,2.6551,2.7075,2.3643,1.9859,0.0,0.0,0.0,0.0,0.0,0.0,0.0,0.0,0.0,0.0,0.0,0.0,0.0,0.0,0.0,0.0,0.0,0.0,0.0,0.0,0.0,0.0,0.0,0.0,0.0,0.0,0.0,0.0,0.0,0.0,0.0,0.0,0.0,0.0,0.0,0.0,0.0,0.0,0.0,0.0,0.0,0.0,0.0,0.0,0.0,0.0,0.0,0.0,0.0,0.0,0.0,0.0,0.0,0.0,0.0,0.0,0.0,0.0,0.0,0.0,0.0,0.0,0.0,0.0,0.0,0.0,0.0,0.0,0.0,0.0,0.0,0.0,0.0,0.0,0.0,0.0,0.0,0.0,0.0,0.0,0.0,0.0,0.0,0.0,0.0,0.0,0.0,0.0,0.0,0.0,0.0,0.0,0.0,0.0,0.0,0.0,0.0,0.0,0.0,0.0,0.0,0.0,0.0,0.0,0.0,0.0,0.0,0.0,1.7489,1.9685,2.3722,2.6141,2.6716,2.3071,2.063,0.0,0.0,0.0,0.0,0.0,0.0,0.0,0.0,0.0,0.0,0.0,0.0,0.0,0.0,0.0,0.0,0.0,0.0,0.0,0.0,0.0,0.0,0.0,0.0,0.0,0.0,0.0,0.0,0.0,0.0,0.0,0.0,0.0,0.0,0.0,0.0,0.0,0.0,0.0,0.0,0.0,0.0,0.0,0.0,0.0,0.0,0.0,0.0,1.1218,0.0,0.0,0.0,0.0,0.0,0.0,0.0,0.0,0.0,0.0,0.0,0.0,0.0,0.0,0.0,0.0,0.0,0.0,0.0,0.0,0.0,0.0,0.0,0.0,0.0,0.0,0.0,0.0,0.0,0.0,0.0,0.0,0.0,0.0,0.0,0.0,0.0,0.0,0.0,0.0,0.0,0.0,0.0,0.0,0.0,0.0,0.0,0.0,0.0,0.0,0.0,0.0,0.0,0.0,0.0,0.0,0.0,0.0,0.0,1.7734,2.0849,2.3943,2.5997,2.6735,2.3942,2.1833,0.0,0.0,0.0,0.0,0.0,0.0,0.0,0.0,0.0,0.0,0.0,0.0,0.0,0.0,0.0,0.0,0.0,0.0,0.0,0.0,0.0,0.0,0.0,0.0,0.0,0.0,0.0,0.0,0.0,0.0,0.0,0.0,0.0,0.0,0.0,0.0,0.0,0.0,0.0,0.0,0.0,0.0,0.0,0.0,0.0,0.0,0.0,0.0,0.0,0.0,0.0,0.0,0.0,0.0,0.0,0.0,0.0,0.0,0.0,0.0,0.0,0.0,0.0,0.0,0.0,0.0,0.0,0.0,0.0,0.0,0.0,0.0,0.0,0.0,0.0,0.0,0.0,0.0,0.0,0.0,0.0,0.0,0.0,0.0,0.0,0.0,0.0,0.0,0.0,0.0,0.0,0.0,0.0,0.0,0.0,0.0,0.0,0.0,0.0,0.0,0.0,0.0,0.0,0.0,0.0,0.0,0.0,1.5221,1.8189,2.2097,2.4273,2.59,2.6962,2.4996,2.2944,2.0991,0.0,0.0,0.0,0.0,0.0,0.0,0.0,0.0,0.0,0.0,0.0,0.0,0.0,0.0,0.0,0.0,0.0,0.0,0.0,0.0,0.0,0.0,0.0,0.0,0.0,0.0,0.0,0.0,0.0,0.0,0.0,0.0,0.0,0.0,0.0,0.0,0.0,0.0,0.9767,0.9878,0.0,0.0,0.0,0.0,0.0,0.0,0.0,0.0,1.1564,0.0,0.0,0.0,0.0,0.0,0.0,0.0,0.0,0.0,0.0,0.0,0.0,0.0,0.0,0.0,0.0,0.0,0.0,0.0,0.0,0.0,0.0,0.0,0.0,0.0,0.0,0.0,0.0,0.0,0.0,0.0,0.0,0.0,0.0,0.0,0.0,0.0,0.0,0.0,0.0,0.0,0.0,0.0,0.0,0.0,0.0,0.0,0.0,0.0,0.0,0.0,0.0,0.0,0.0,0.0,0.0,1.5149,1.6353,1.8866,2.2756,2.4389,2.5587,2.6201,2.4352,2.2882,2.1891,0.0,0.0,0.0,0.0,0.0,0.0,0.0,0.0,0.0,0.0,0.0,0.0,0.0,0.0,0.0,0.0,0.0,0.0,0.0,0.0,0.0,0.0,0.0,0.0,0.0,0.0,0.0,0.0,0.0,0.0,0.0,0.0,0.0,0.0,0.0,0.0,0.0,0.0,0.0,1.113,1.1937,0.0,0.0,0.0,0.0,0.0,0.0,0.0,0.0,1.2108,0.0,0.0,0.0,0.0,0.0,0.0,0.0,0.0,0.0,0.0,0.0,0.0,0.0,0.0,0.0,0.0,0.0,0.0,0.0,0.0,0.0,0.0,0.0,0.0,0.0,0.0,0.0,0.0,0.0,0.0,0.0,0.0,0.0,0.0,0.0,0.0,0.0,0.0,0.0,0.0,0.0,0.0,0.0,0.0,0.0,0.0,0.0,0.0,0.0,0.0,0.0,0.0,0.0,0.0,0.0,1.5732,1.7171,1.9601,2.3246,2.4224,2.4992,2.5565,2.3756,2.2403,0.0,0.0,0.0,0.0,0.0,0.0,0.0,0.0,0.0,0.0,0.0,0.0,0.0,0.0,0.0,0.0,0.0,0.0,0.0,0.0,0.0,0.0,0.0,0.0,0.0,0.0,0.0,0.0,0.0,0.0,0.0,0.0,0.0,0.0,0.0,0.0,0.0,0.0,0.0,0.0,1.2213,1.3196,1.4922,0.0,0.0,0.0,0.0,0.0,0.0,1.3328,1.2955,0.0,0.0,0.0,0.0,0.0,0.0,0.0,0.0,0.0,0.0,0.0,0.0,0.0,0.0,0.0,0.0,0.0,0.0,0.0,0.0,0.0,0.0,0.0,0.0,0.0,0.0,0.0,0.0,0.0,0.0,0.0,0.0,0.0,0.0,0.0,0.0,0.0,0.0,0.0,0.0,0.0,0.0,0.0,0.0,0.0,0.0,0.0,0.0,0.0,0.0,0.0,0.0,0.0,0.0,0.0,1.6017,1.7869,2.0376,2.3554,2.4089,2.4661,2.5308,2.299,2.1567,0.0,0.0,0.0,0.0,0.0,0.0,0.0,0.0,0.0,0.0,0.0,0.0,0.0,0.0,0.0,0.0,0.0,0.0,0.0,0.0,0.0,0.0,0.0,0.0,0.0,0.0,0.0,0.0,0.0,0.0,0.0,0.0,0.0,0.0,0.0,0.0,0.0,0.0,0.0,0.0,0.0,1.4623,1.6281,1.5129,0.0,0.0,0.0,0.0,1.4587,1.471,0.0,0.0,0.0,0.0,0.0,0.0,0.0,0.0,0.0,0.0,0.0,0.0,0.0,0.0,0.0,0.0,0.0,0.0,0.0,0.0,0.0,0.0,0.0,0.0,0.0,0.0,0.0,0.0,0.0,0.0,0.0,0.0,0.0,0.0,0.0,0.0,0.0,0.0,0.0,0.0,0.0,0.0,0.0,0.0,0.0,0.0,0.0,0.0,0.0,0.0,0.0,0.0,0.0,0.0,0.0,0.0,1.6056,1.8428,2.0969,2.3575,2.4424,2.519,2.5921,2.1888,2.036,0.0,0.0,0.0,0.0,0.0,0.0,0.0,0.0,0.0,0.0,0.0,0.0,0.0,0.0,0.0,0.0,0.0,0.0,0.0,0.0,0.0,0.0,0.0,0.0,0.0,0.0,0.0,0.0,0.0,0.0,0.0,0.0,0.0,0.0,0.0,0.0,0.0,0.0,0.0,0.0,0.0,1.609,1.624,1.6141,1.5571,0.0,0.0,1.7259,1.7318,1.8352,0.0,0.0,0.0,0.0,0.0,0.0,0.0,0.0,0.0,0.0,0.0,0.0,0.0,0.0,0.0,0.0,0.0,0.0,0.0,0.0,0.0,0.0,0.0,0.0,0.0,0.0,0.0,0.0,0.0,0.0,0.0,0.0,0.0,0.0,0.0,0.0,0.0,0.0,0.0,0.0,0.0,0.0,0.0,0.0,0.0,0.0,0.0,0.0,0.0,0.0,0.0,0.0,0.0,0.0,0.0,1.3758,1.6115,1.918,2.1593,2.325,2.4066,2.4921,2.571,2.1159,1.9617,0.0,0.0,0.0,0.0,0.0,0.0,0.0,0.0,0.0,0.0,0.0,0.0,0.0,0.0,0.0,0.0,0.0,0.0,0.0,0.0,0.0,0.0,0.0,0.0,0.0,0.0,0.0,0.0,0.0,0.0,0.0,0.0,0.0,0.0,0.0,0.0,0.0,0.0,0.0,0.0,0.0,0.0,1.6307,1.7565,0.0,0.0,0.0,1.9163,1.8165,0.0,0.0,0.0,0.0,0.0,0.0,0.0,0.0,0.0,0.0,0.0,0.0,0.0,0.0,0.0,0.0,0.0,0.0,0.0,0.0,0.0,0.0,0.0,0.0,0.0,0.0,0.0,0.0,0.0,0.0,0.0,0.0,0.0,0.0,0.0,0.0,0.0,0.0,0.0,0.0,0.0,0.0,0.0,0.0,0.0,0.0,0.0,0.0,0.0,0.0,0.0,0.0,0.0,0.0,0.0,0.0,0.0,1.6185,1.9798,2.2128,2.3062,2.3936,2.4791,2.5477,2.1398,0.0,0.0,0.0,0.0,0.0,0.0,0.0,0.0,0.0,0.0,0.0,0.0,0.0,0.0,0.0,0.0,0.0,0.0,0.0,0.0,0.0,0.0,0.0,0.0,0.0,0.0,0.0,0.9527,0.0,0.0,0.0,0.0,0.0,0.0,0.0,0.0,0.0,0.0,0.0,0.0,0.0,0.0,1.8917,1.7482,1.9422,2.0883,0.0,0.0,2.1069,1.9879,2.2225,2.2759,0.0,0.0,0.0,0.0,0.0,0.0,0.0,0.0,0.0,0.0,0.0,0.0,0.0,0.0,0.0,0.0,0.0,0.0,0.0,0.0,0.0,0.0,0.0,0.0,0.0,0.0,0.0,0.0,0.0,0.0,0.0,0.0,0.0,0.0,0.0,0.0,0.0,0.0,0.0,0.0,0.0,0.0,0.0,0.0,0.0,0.0,0.0,0.0,0.0,0.0,0.0,0.0,0.0,0.0,0.0,1.6426,2.0189,2.2525,2.3266,2.4314,2.5176,2.581,2.3106,2.1577,0.0,0.0,0.0,0.0,0.0,0.0,0.0,0.0,0.0,0.0,0.0,0.0,0.0,0.0,0.0,0.0,0.0,0.0,0.0,0.0,0.0,0.0,0.0,0.0,0.0,0.0,0.0,0.0,0.0,0.0,0.0,0.0,0.0,0.0,0.0,0.0,0.0,0.0,0.0,0.0,0.0,2.0382,2.0543,2.176,2.2988,0.0,0.0,2.3259,2.3627,2.5681,2.5597,2.0604,0.0,0.0,0.0,0.0,0.0,0.0,0.0,0.0,0.0,0.0,0.0,0.0,0.0,0.0,0.0,0.0,0.0,0.0,0.0,0.0,0.0,0.0,0.0,0.0,0.0,0.0,0.0,0.0,0.0,0.0,0.0,0.0,0.0,0.0,0.0,0.0,0.0,0.0,0.0,0.0,0.0,0.0,0.0,0.0,0.0,0.0,0.0,0.0,0.0,0.0,0.0,0.0,0.0,1.4389,1.5979,1.9945,2.2255,2.2924,2.4058,2.5062,2.5896,2.3158,2.1432,0.0,0.0,0.0,0.0,0.0,0.0,0.0,0.0,0.0,0.0,0.0,0.0,0.0,0.0,0.0,0.0,0.0,0.0,0.0,0.0,0.0,0.0,0.0,0.0,0.0,0.0,0.0,0.0,1.3015,1.276,1.1485,0.0,0.0,0.0,0.0,0.0,0.0,0.0,0.0,0.0,0.0,2.2295,2.3981,2.4852,0.0,0.0,2.5663,2.5247,2.3773,2.5364,2.5162,2.0351,1.963,0.0,0.0,0.0,0.0,0.0,0.0,0.0,0.0,0.0,0.0,0.0,0.0,0.0,0.0,0.0,0.0,0.0,0.0,0.0,0.0,0.0,0.0,0.0,0.0,0.0,0.0,0.0,0.0,0.0,0.0,0.0,0.0,0.0,0.0,0.0,0.0,0.0,0.0,0.0,0.0,0.0,0.0,0.0,0.0,0.0,0.0,0.0,0.0,0.0,0.0,0.0,0.0,1.4385,1.5787,1.9669,2.2042,2.2767,2.3787,2.4718,2.5543,2.3717,2.2199,0.0,0.0,0.0,0.0,0.0,0.0,0.0,0.0,0.0,0.0,0.0,0.0,0.0,0.0,0.0,0.0,0.0,0.0,0.0,0.0,0.0,0.0,0.0,0.0,0.0,0.0,0.0,0.0,1.3667,1.3221,1.1486,0.0,0.0,0.0,0.0,0.0,0.0,0.0,0.0,0.0,0.0,2.3967,2.4546,2.5509,2.5905,2.5146,2.5313,2.4995,2.3461,2.4474,2.4317,2.1113,0.0,0.0,0.0,0.0,0.0,0.0,0.0,0.0,0.0,0.0,0.0,0.0,0.0,0.0,0.0,0.0,0.0,0.0,0.0,0.0,0.0,0.0,0.0,0.0,0.0,0.0,0.0,0.0,0.0,0.0,0.8407,0.0,0.0,0.0,0.0,0.0,0.0,0.0,0.0,0.0,0.0,0.0,0.0,0.0,0.0,0.0,0.0,0.0,0.0,0.0,0.0,0.0,0.0,1.4588,1.6011,1.964,2.1987,2.2964,2.3593,2.4274,2.4981,2.5054,2.4489,2.3096,0.0,0.0,0.0,0.0,0.0,0.0,0.0,0.0,0.0,0.0,0.0,0.0,0.0,0.0,0.0,0.0,0.0,0.0,0.0,0.0,0.0,0.0,0.0,0.0,0.0,0.0,1.0372,1.075,1.1286,0.0,0.0,0.0,0.0,0.0,0.0,0.0,0.0,0.0,0.0,2.2815,2.5172,2.149,2.2996,2.414,2.2784,2.2041,2.2013,2.3184,2.3414,2.3464,0.0,0.0,0.0,0.0,0.0,0.0,0.0,0.0,0.0,0.0,0.0,0.0,0.0,0.0,0.0,0.0,0.0,0.0,0.0,0.0,0.0,0.0,0.0,0.0,0.0,0.0,0.0,0.9499,0.9766,0.0,0.0,0.0,0.0,0.0,0.0,0.0,0.0,0.0,0.0,0.0,1.3424,1.3468,0.0,0.0,0.0,0.0,0.0,0.0,0.0,0.0,0.0,0.0,0.0,0.0,1.4588,1.6102,1.9885,2.2262,2.3001,2.3861,2.4575,2.5194,2.4983,2.3992,2.2132,0.0,0.0,0.0,0.0,0.0,0.0,0.0,0.0,0.0,0.0,0.0,0.0,0.0,0.0,0.0,0.0,0.0,0.0,0.0,0.0,0.0,0.0,0.0,0.0,0.0,1.3132,0.0,0.0,0.0,0.0,0.0,0.0,0.0,0.0,0.0,0.0,0.0,1.9582,2.1242,2.2192,2.2759,2.2912,2.3676,2.4711,0.0,0.0,0.0,0.0,0.0,0.0,0.0,0.0,0.0,0.0,0.0,0.0,0.0,0.0,2.4837,2.0075,2.0379,2.1432,2.1553,0.0,0.0,0.0,0.0,0.0,0.0,0.0,0.0,0.0,0.0,0.0,0.0,0.0,0.0,1.0725,0.0,1.103,0.0,0.0,0.0,0.0,0.0,0.0,0.0,0.0,1.3817,1.478,1.5411,1.561,1.5359,0.0,1.453,1.3148,0.0,0.0,0.0,0.0,0.0,0.0,0.0,0.0,1.4883,1.6178,1.999,2.2365,2.3113,2.3959,2.4683,2.5288,2.507,2.4158,2.2503,2.0984,1.9493,0.0,0.0,0.0,0.0,0.0,0.0,0.0,0.0,0.0,0.0,0.0,0.0,0.0,0.0,0.0,0.0,0.0,0.0,0.0,0.0,0.0,0.0,0.0,1.4511,0.0,0.0,0.0,0.0,0.0,0.0,0.0,0.0,0.0,1.7895,1.9852,2.1963,2.3885,2.3863,2.3536,2.3109,0.0,0.0,0.0,0.0,0.0,0.0,0.0,2.1629,2.1725,2.2665,2.4168,2.6513,2.84,2.9168,2.7889,0.0,0.0,2.3814,2.419,2.5242,2.4809,2.4758,2.4743,2.4661,2.422,2.3787,0.0,0.0,0.0,0.0,0.0,0.0,0.0,0.0,1.1418,1.1616,0.0,1.2014,0.0,0.0,0.0,0.0,0.0,1.2883,0.0,0.0,1.7227,1.8238,1.706,1.7182,1.6966,1.6379,1.6136,1.5419,1.4258,1.323,0.0,0.0,0.0,0.0,0.0,0.0,1.5425,1.6396,1.9961,2.2289,2.3298,2.3911,2.4576,2.5287,2.5375,2.5039,2.4259,2.3129,2.253,2.253,1.8685,0.0,0.0,0.0,0.0,0.0,0.0,0.0,0.0,0.0,0.0,0.0,0.0,0.0,0.0,0.0,0.0,0.0,0.0,0.0,0.0,1.6126,0.0,0.0,0.0,0.0,0.0,0.0,0.0,0.0,0.0,0.0,2.0183,2.2051,2.3949,2.5122,0.0,0.0,0.0,0.0,2.3884,1.9063,1.8166,1.8285,1.8521,2.0862,2.3941,2.7499,0.0,0.0,3.207,2.997,2.8311,2.7502,3.0249,3.1373,2.8731,2.8415,2.8133,2.6765,2.6622,2.6268,2.5748,2.5894,2.5508,1.6652,0.0,0.0,0.0,0.0,1.2975,1.3412,1.4587,1.436,1.4309,1.4372,1.4135,0.0,0.0,0.0,0.0,0.0,0.0,1.5014,1.6345,1.7578,1.8379,1.8856,1.903,1.8819,1.8237,1.8326,1.7811,1.6747,1.6661,1.4912,1.1595,0.0,0.0,0.0,0.0,1.62,1.8149,2.0679,2.2515,2.353,2.4082,2.4755,2.55,2.5492,2.5371,2.5185,2.5089,2.4445,2.3156,2.1836,0.0,0.0,0.0,0.0,0.0,0.0,0.0,0.0,0.0,0.0,0.0,0.0,0.0,0.0,0.0,0.0,0.0,0.0,0.0,1.5762,1.7264,1.7041,0.0,0.0,0.0,0.0,0.0,0.0,0.0,0.0,0.0,2.3808,2.2461,2.1638,0.0,0.0,2.021,1.8672,2.1224,2.349,2.4052,2.4294,0.0,0.0,2.7266,2.6838,2.8031,3.0957,3.3134,3.3034,3.4304,3.5367,3.5173,3.5237,3.4766,3.3508,3.3301,3.2819,3.1458,3.1413,3.1551,3.1004,3.0395,2.9665,1.9749,1.8414,1.6792,1.6067,1.5918,1.5157,1.5418,1.6382,1.5931,1.5857,1.6,1.5876,1.5179,1.4114,1.3851,0.0,0.0,0.0,1.6582,1.8201,1.8724,1.9358,2.0048,2.0164,1.996,1.9478,1.9603,1.9247,1.841,1.8298,1.6856,1.4213,0.0,0.0,1.379,1.5624,1.7306,1.8875,2.1156,2.2777,2.3604,2.4527,2.516,2.5343,2.5473,2.5437,2.5287,2.5758,2.5649,2.4843,2.3934,2.1934,0.0,0.0,0.0,0.0,0.0,0.0,0.0,0.0,0.0,0.0,0.0,1.5065,1.299,0.0,0.0,0.0,1.8149,1.7721,1.7205,1.8194,0.0,0.0,0.0,0.0,0.0,0.0,0.0,1.8192,2.2193,2.5312,2.5732,2.4128,2.3412,2.4805,2.3813,2.2497,2.127,0.0,2.6162,2.664,2.6808,2.7658,2.9812,2.9949,3.0297,3.1989,3.3667,3.4938,3.5105,3.6652,3.778,3.7844,3.7341,3.6595,3.5723,3.59,3.5504,3.3446,3.374,3.4116,3.3243,3.2304,3.1469,2.2189,2.1988,1.9428,1.8061,1.7529,1.7236,1.7012,1.6869,1.6576,1.6525,1.6749,1.7223,1.6854,1.5756,1.5252,0.0,1.676,1.7453,1.8381,1.9538,2.0423,2.0798,2.0708,2.0734,2.0542,2.0184,2.0184,1.9974,1.9571,1.8671,1.8008,1.7478,1.6677,1.603,1.5632,1.7369,1.8542,1.9009,2.1468,2.2979,2.361,2.5123,2.5633,2.5038,2.5326,2.5306,2.4926,2.5536,2.6244,2.6972,2.5204,2.3935,2.3336,0.0,0.0,0.0,0.0,0.0,0.0,0.0,0.0,0.0,0.0,0.0,0.0,0.0,0.0,0.0,2.1805,0.0,2.0525,1.9531,0.0,0.0,0.0,2.0832,2.3736,2.4896,2.5361,2.5024,0.0,0.0,2.6701,2.6735,2.8004,3.1338,3.1323,2.9972,2.708,2.926,3.0478,2.764,2.7402,2.752,2.8496,3.0823,3.3836,3.6975,3.7799,3.7262,3.7265,3.7032,3.6866,3.7003,3.7132,3.6982,3.6198,3.6605,3.6324,3.3587,3.4106,3.4587,3.325,3.2209,3.1312,2.2958,2.3226,2.2471,2.1571,2.0525,1.9189,1.854,1.8292,1.7798,1.7636,1.7669,1.7873,1.8127,1.8324,1.8399,1.8559,1.8795,1.919,1.963,2.0135,2.1011,2.125,2.0925,2.1225,2.1154,2.0792,2.0775,2.0625,2.0253,1.9839,1.9133,1.8202,1.7852,1.7544,1.7247,1.8185,1.9328,2.0636,2.1992,2.311,2.3909,2.5189,2.5633,2.5103,2.5358,2.5538,2.5652,2.5716,2.6109,2.6886,2.6452,2.5264,2.3188,2.0065,0.0,0.0,0.0,0.0,0.0,0.0,0.0,0.0,0.0,1.6525,1.3334,0.0,1.7611,0.0,2.2898,2.5579,2.5665,2.5564,0.0,0.0,2.3357,2.349,2.5252,2.7488,2.8118,2.6039,2.8335,3.0112,3.0112,3.0036,3.1193,3.4311,3.0713,2.7417,2.6843,2.9411,3.1208,3.064,3.2139,3.3928,3.4177,3.5227,3.6222,3.7262,3.7025,3.6755,3.6762,3.6665,3.6609,3.6638,3.6282,3.5978,3.5901,3.6136,3.5802,3.4478,3.4368,3.4279,3.3316,3.2388,3.1377,2.3235,2.36,2.3213,2.2573,2.1793,2.0465,1.9572,1.9002,1.8434,1.8209,1.8201,1.8491,1.9037,1.9702,1.9841,2.0105,2.0394,2.0592,2.0857,2.1177,2.1937,2.2145,2.1888,2.1942,2.1898,2.1753,2.1365,2.1132,2.1005,2.0615,2.0092,1.9457,1.9024,1.8774,1.8749,1.8484,1.8862,1.986,2.1526,2.2909,2.4117,2.5038,2.4946,2.3699,2.3897,2.3743,2.3106,2.3163,2.3456,2.4019,2.422,2.3571,2.1873,1.9165,1.6802,0.0,0.0,0.0,0.0,0.0,0.0,0.0,0.0,0.0,0.0,0.0,1.9813,2.0254,2.4825,2.7363,2.6337,2.6679,2.7099,2.747,2.719,2.7863,3.0065,3.1732,3.2156,3.0687,3.2593,3.3901,3.3553,3.3676,3.4362,3.5908,3.3008,3.0726,3.0881,3.2415,3.3522,3.3468,3.4857,3.6188,3.6775,3.665,3.6638,3.6899,3.6646,3.6356,3.6377,3.6356,3.6398,3.6406,3.6094,3.5858,3.6006,3.6123,3.5898,3.5064,3.446,3.3937,3.3228,3.2078,3.0903,2.3393,2.3573,2.2971,2.2511,2.2137,2.131,2.0336,1.927,1.8796,1.8529,1.8565,1.9162,1.9795,2.0382,2.045,2.0791,2.1352,2.1506,2.1739,2.2037,2.2799,2.3087,2.297,2.2723,2.2621,2.2729,2.1942,2.1607,2.1731,2.1154,2.0839,2.0655,1.992,1.961,1.9643,1.8424,1.8133,1.8827,2.0792,2.2495,2.39,2.4344,2.3542,2.1549,2.1802,2.1235,1.9674,1.9919,2.0236,2.0472,2.087,2.1017,2.0818,1.7789,1.6528,0.0,1.4303,0.0,0.0,0.0,0.0,0.0,0.0,0.0,0.0,2.2454,2.3222,2.3788,2.7147,2.8385,2.6233,2.672,2.8296,3.1035,3.1407,3.2593,3.5399,3.5927,3.5997,3.6019,3.6814,3.7077,3.6419,3.6883,3.6934,3.6427,3.593,3.539,3.5713,3.5779,3.5912,3.5941,3.6041,3.627,3.6469,3.6152,3.6033,3.6571,3.6442,3.6182,3.6208,3.6187,3.6165,3.6165,3.617,3.6174,3.6237,3.6346,3.6163,3.5304,3.4502,3.3741,3.2969,3.1603,3.0295,2.4173,2.4272,2.4023,2.3406,2.2617,2.1957,2.0803,1.9262,1.8955,1.8919,1.922,2.0128,2.066,2.0813,2.1257,2.1106,2.0597,2.1228,2.1271,2.0883,2.2625,2.3222,2.298,2.3271,2.3296,2.3011,2.2471,2.2132,2.2008,2.1702,2.1038,2.0071,1.9468,1.9001,1.8582,0.0,0.0,0.0,2.164,2.1604,2.1935,2.1795,2.0904,1.9368,2.0322,0.0,1.9517,1.9867,2.0172,2.0344,2.0718,0.0,0.0,0.0,0.0,0.0,0.0,0.0,0.0,0.0,0.0,0.0,2.1513,2.1662,2.2226,2.3657,2.5445,2.753,2.9222,3.1035,3.3084,3.357,3.4021,3.4587,3.4688,3.5008,3.5722,3.5927,3.6041,3.6161,3.6512,3.6872,3.7198,3.6934,3.6809,3.7003,3.656,3.6118,3.5993,3.6118,3.6324,3.661,3.6605,3.6401,3.5893,3.5825,3.5829,3.5987,3.6046,3.6079,3.6165,3.6122,3.6041,3.6058,3.6041,3.6041,3.6062,3.6195,3.6004,3.5177,3.4479,3.3795,3.296,3.1393,3.0039,2.4498,0.0,2.4052,2.3407,0.0,2.1897,2.1034,2.0057,1.9552,1.9328,1.9383,2.0145,2.0704,2.1121,2.1522,2.1787,2.1839,2.2275,2.2441,2.2526,2.3639,2.4167,2.4087,2.4174,2.4047,2.3727,2.3079,2.265,2.246,2.2176,2.1702,2.0973,2.0426,1.9955,1.957,1.9601,2.0452,2.2143,2.1801,2.1964,2.2624,2.2527,2.1643,2.0033,0.0,0.0,0.0,0.0,0.0,0.0,0.0,0.0,0.0,0.0,0.0,2.2387,2.1173,2.0975,2.2184,2.235,2.3335,2.5509,2.6612,2.6748,2.5733,2.765,2.9614,3.1274,3.2202,3.3411,3.509,3.5566,3.5684,3.5622,3.5667,3.5734,3.5883,3.5971,3.6255,3.6866,3.7297,3.772,3.8187,3.8209,3.7888,3.7547,3.712,3.678,3.6637,3.6306,3.631,3.6809,3.6847,3.6654,3.6179,3.5825,3.5706,3.5711,3.5866,3.6041,3.6165,3.6144,3.6101,3.6019,3.5888,3.5822,3.5854,3.5646,3.5173,3.4459,3.3805,3.3108,3.2278,3.0793,2.9543,2.4818,2.4684,2.4112,2.3417,2.2629,2.1801,2.1224,2.0787,0.0,0.0,0.0,2.0034,2.0652,2.1326,2.1623,2.2291,2.315,2.332,2.3701,2.423,2.4698,2.503,2.5216,2.4977,2.4693,2.4358,2.3676,2.3172,2.2813,2.2618,2.2397,2.211,2.1504,2.1055,2.0876,2.1351,2.1618,2.1629,2.1721,2.2384,2.3581,2.3362,2.2469,2.0884,2.0813,2.0268,1.9163,1.9265,1.9512,1.9875,2.002,2.0382,2.0895,2.1047,2.1399,2.1997,2.1939,2.2841,2.4962,2.5174,2.6477,2.9471,3.1295,3.1539,2.9754,3.1718,3.3362,3.4093,3.4683,3.5088,3.5268,3.5549,3.5774,3.5763,3.5774,3.5912,3.6146,3.6087,3.6457,3.7491,3.8044,3.8619,3.9033,3.9287,3.9209,3.8295,3.7728,3.7447,3.7229,3.6811,3.6529,3.6599,3.6695,3.6715,3.6392,3.596,3.5633,3.5622,3.5778,3.5954,3.6079,3.6118,3.6058,3.5993,3.5756,3.5667,3.5677,3.5113,3.429,3.3722,3.3059,3.2371,3.1602,3.0387,2.9465,2.564,2.5733,2.5079,2.4268,2.3254,2.2367,2.1428,2.0522,2.0199,2.0028,2.0034,2.0557,2.0968,2.1326,2.1827,2.2096,2.2261,2.2971,2.3201,0.0,2.4321,2.4932,2.4962,2.5273,2.5031,2.445,2.4311,2.3787,2.293,2.2969,2.2794,2.2303,2.1599,2.1108,2.0938,2.163,2.2269,2.271,2.1853,2.1653,2.2177,2.084,1.9945,1.9521,1.9445,1.9152,1.8789,1.9114,1.9436,1.9867,2.0006,2.1082,2.323,2.3392,2.4343,2.6268,2.647,2.6703,2.7126,2.7368,2.8406,3.0425,3.218,3.2782,3.211,3.2987,3.3761,3.425,3.457,3.4835,3.5088,3.5383,3.5779,3.6302,3.6056,3.61,3.6756,3.6473,3.6552,3.7482,3.7651,3.8325,3.9415,3.9311,3.9225,3.914,3.8415,3.746,3.7346,3.753,3.72,3.6356,3.6457,3.6457,3.6033,3.5718,3.5616,3.5616,3.5644,3.5756,3.59,3.5839,3.5795,3.5817,3.5661,3.5566,3.5583,3.4964,3.4226,3.363,3.3005,3.232,3.166,3.0802,3.0202,2.5729,2.5736,2.5439,2.4764,2.3748,2.2645,2.171,2.0925,2.066,2.0447,2.0359,2.0565,2.0976,2.1522,2.1928,2.234,2.2784,2.3448,2.3826,2.4024,2.4886,2.5421,2.5606,2.5902,2.5727,2.5195,2.5181,2.4696,2.3821,2.3806,2.3565,2.2974,2.2159,2.1587,2.1284,2.1807,2.2327,2.2804,2.2634,2.283,2.3421,2.2268,2.1697,2.1877,2.1455,2.1321,2.1509,2.1812,2.2202,2.2752,2.3078,2.3844,2.5095,2.5383,2.5952,2.6993,2.7067,2.7144,2.7258,2.8464,2.9771,3.1151,3.2578,3.3349,3.317,3.3604,3.4025,3.4275,3.4611,3.4883,3.5105,3.5367,3.5678,3.5969,3.5887,3.5997,3.6432,3.6686,3.7092,3.8035,3.8528,3.919,4.0349,4.0181,3.9824,3.9807,3.9053,3.8475,3.7883,3.7991,3.7921,3.7119,3.6886,3.6637,3.6196,3.5814,3.565,3.5616,3.5644,3.5756,3.5883,3.5844,3.58,3.5795,3.5678,3.5549,3.5532,3.4543,3.3789,3.3394,3.253,3.1832,3.1519,3.1211,3.0557,2.5792,2.5828,2.5728,2.5031,2.3887,2.282,2.2028,2.1385,2.1173,2.0925,2.0668,2.0624,2.1019,2.1683,2.203,2.2636,2.3397,2.4044,2.4529,2.502,2.546,2.5798,2.6028,2.6207,2.601,2.5571,2.5623,2.5219,2.4434,2.4408,2.4038,2.3272,2.2464,2.194,2.1589,2.1921,2.2327,2.2767,2.3198,2.382,2.4611,2.3918,2.3745,2.4124,2.3567,2.3414,2.3832,2.4131,2.458,2.5174,2.5605,2.6059,2.654,2.6796,2.697,2.6997,2.6997,2.7117,2.7412,2.9248,3.076,3.1553,3.2804,3.3607,3.3694,3.3975,3.4201,3.4349,3.4618,3.4875,3.5041,3.5344,3.5571,3.5671,3.5763,3.5941,3.6227,3.6647,3.7374,3.8523,3.9024,3.96,4.0701,4.0839,4.0383,3.9911,3.9761,3.9394,3.878,3.8477,3.8172,3.7838,3.7168,3.6479,3.6352,3.596,3.565,3.5616,3.5684,3.5795,3.5888,3.5932,3.5888,3.5778,3.5661,3.5566,3.5413,3.446,3.358,3.3232,3.2405,3.1635,3.1513,3.1238,3.067,2.6227,2.6418,2.6123,2.5037,2.3574,2.2936,2.2286,2.1699,2.1623,2.1471,2.1173,2.0976,2.1173,2.1725,2.2232,2.2778,2.3479,2.439,2.4971,2.5207,2.5388,2.5543,2.5805,2.5695,2.525,2.4816,2.5118,2.4914,2.4129,2.4168,2.3712,2.2643,2.207,2.1855,2.1793,2.1997,2.2402,2.2942,2.2903,2.3325,2.4168,2.4073,2.4014,2.4198,2.3825,2.3634,2.3654,2.4073,2.458,2.5174,2.5564,2.6257,2.7221,2.7417,2.7472,2.7581,2.7623,2.7813,2.834,3.0034,3.1236,3.1657,3.2882,3.3684,3.372,3.4034,3.4349,3.4472,3.4521,3.4667,3.4899,3.5175,3.5555,3.6048,3.5932,3.6094,3.6705,3.6581,3.69,3.8439,3.8254,3.8535,4.0389,4.0359,3.9888,3.9773,3.9819,3.9704,3.933,3.8768,3.8258,3.788,3.6814,3.5893,3.5746,3.5684,3.5616,3.5616,3.5633,3.5774,3.5914,3.5835,3.5661,3.6016,3.5656,3.5537,3.534,3.4718,3.3896,3.3196,3.2555,3.1998,3.154,3.0957,3.0234,2.6136,2.6573,2.6399,2.5495,2.4131,2.3382,2.2626,2.1945,2.1776,2.1581,2.1326,2.1369,2.1573,2.1979,2.2476,2.2915,2.3274,2.4377,2.4706,2.4517,2.5311,2.5707,2.548,2.5782,2.5931,2.5964,2.5885,2.5691,2.5407,2.4885,2.4071,2.3133,2.2798,2.2468,2.2271,2.2351,2.259,2.2815,2.3256,2.3668,2.3895,2.3375,2.3342,2.3805,2.3471,2.331,2.3556,2.4354,2.5026,2.5532,2.6294,2.7002,2.757,2.7897,2.8051,2.8121,2.8385,2.8822,2.9495,3.0661,3.1563,3.2168,3.3129,3.3736,3.3838,3.4126,3.4399,3.457,3.4618,3.4691,3.4883,3.5081,3.5338,3.5666,3.5666,3.5859,3.6363,3.6635,3.7104,3.7865,3.8456,3.9043,3.9991,4.0249,4.0087,3.9846,3.9967,4.0092,3.9633,3.9249,3.8836,3.8218,3.72,3.6248,3.5757,3.5616,3.5616,3.5684,3.6028,3.6361,3.6452,3.6407,3.6361,3.6458,3.5932,3.556,3.5498,3.488,3.4134,3.3328,3.2181,3.1472,3.1356,3.107,3.0866,2.6345,2.6682,2.6518,2.591,2.4888,2.4078,2.3297,2.2511,2.2224,2.1928,2.1573,2.1878,2.2131,2.2384,2.2728,2.2968,2.3214,2.424,2.443,2.3963,2.5102,2.5461,2.5204,2.5578,2.602,2.633,2.6038,2.6024,2.6114,2.5357,2.4503,2.3732,2.3371,2.2996,2.2629,2.2792,2.287,2.2841,2.3396,2.375,2.3765,2.3062,2.3029,2.3797,2.3408,2.3348,2.3834,2.4667,2.5389,2.5894,2.682,2.7523,2.7943,2.8294,2.8555,2.8728,2.9097,2.9625,3.0339,3.1186,3.194,3.2563,3.3288,3.3761,3.3873,3.4201,3.4472,3.4667,3.4787,3.4899,3.4947,3.5105,3.5245,3.5354,3.5469,3.5639,3.6022,3.6522,3.6935,3.7521,3.8279,3.9216,3.96,4.0147,4.0391,4.0072,4.0336,4.0559,4.0051,3.9879,3.9592,3.8785,3.7888,3.6859,3.5881,3.5616,3.565,3.6011,3.6451,3.6818,3.7103,3.7034,3.6801,3.6605,3.6017,3.5622,3.5514,3.4987,3.4435,3.3475,3.2286,3.1308,3.1576,3.1379,3.1334,2.7215,2.6944,2.64,2.6082,2.5841,2.508,2.4278,2.3357,2.3237,2.2778,2.2182,2.2644,2.2887,2.2887,2.2979,2.3017,2.3187,2.397,2.4212,2.4061,2.4459,2.4715,2.489,2.4959,2.5028,2.5346,2.5433,2.5413,2.536,2.503,2.464,2.4168,2.3576,2.3097,2.293,2.3171,2.3243,2.311,2.3209,2.3419,2.38,2.3421,2.3583,2.4304,2.396,2.4029,2.4773,2.4921,2.541,2.6438,2.6789,2.7412,2.8472,2.8677,2.8947,2.9479,2.9769,3.007,3.0657,3.1665,3.2419,3.2668,3.3288,3.372,3.3797,3.43,3.4659,3.4691,3.5058,3.5222,3.5135,3.5291,3.5446,3.5469,3.5526,3.5711,3.5993,3.6151,3.6517,3.7201,3.7588,3.8305,3.9303,4.0031,4.0373,4.0363,4.0538,4.0611,4.0491,4.0508,4.024,3.9523,3.8606,3.7511,3.6051,3.5808,3.6079,3.6474,3.6835,3.718,3.7322,3.7413,3.7125,3.6712,3.6016,3.5644,3.5531,3.5239,3.4779,3.3806,3.2374,3.1666,3.2004,3.1392,3.1456,2.7659,2.7755,2.7152,2.6554,2.5826,2.52,2.4318,2.3215,2.3108,2.2937,2.2728,2.3029,2.3388,2.3678,2.3836,2.3717,2.3411,2.4029,2.3994,2.3618,2.4598,2.4826,2.4304,2.5093,2.5729,2.5995,2.5947,2.5883,2.584,2.536,2.4957,2.463,2.4137,2.3782,2.3714,2.3727,2.3853,2.3958,2.3872,2.3984,2.4337,2.3979,2.4048,2.4625,2.4392,2.4421,2.4854,2.5626,2.6327,2.6948,2.7561,2.8202,2.8709,2.9094,2.9572,3.0174,3.047,3.0806,3.1338,3.2066,3.259,3.2812,3.3356,3.3787,3.4,3.4423,3.478,3.497,3.5222,3.5377,3.536,3.536,3.54,3.5492,3.5537,3.5712,3.599,3.6385,3.6725,3.6822,3.7305,3.8465,3.9631,4.0283,4.0224,3.9922,4.0243,4.0384,4.0206,4.0425,4.0541,3.9793,3.9207,3.8529,3.7437,3.6683,3.6592,3.7022,3.7452,3.8207,3.8618,3.8003,3.7647,3.7248,3.6449,3.5513,3.5344,3.4593,3.4308,3.4119,3.2685,3.2187,3.2448,3.2005,3.2202,2.8265,2.8548,2.7815,2.7103,2.6456,2.582,2.49,2.3826,2.3741,2.3578,2.3379,2.3578,2.3886,2.4233,2.448,2.4398,2.4022,2.4296,2.4041,2.3534,2.4785,2.4931,2.4378,2.5465,2.6154,2.6244,2.6389,2.6422,2.6336,2.5819,2.5413,2.5105,2.4714,2.445,2.4331,2.4305,2.4487,2.4615,2.4408,2.4503,2.4849,2.4492,2.4461,2.4838,2.4913,2.5058,2.531,2.6037,2.6811,2.7448,2.8126,2.8587,2.8894,2.9188,2.9744,3.0494,3.0631,3.1012,3.1709,3.2259,3.266,3.2897,3.3398,3.3797,3.4025,3.4423,3.4787,3.5065,3.5367,3.5543,3.5583,3.5566,3.5644,3.5846,3.5914,3.6129,3.6587,3.7087,3.7319,3.745,3.8042,3.9065,4.0056,4.022,4.0067,3.9664,4.0146,4.0285,4.0076,4.0397,4.075,4.0128,3.9701,3.9217,3.8547,3.797,3.7682,3.8004,3.8129,3.8962,3.9289,3.8639,3.8024,3.7665,3.6841,3.5756,3.4841,3.4076,3.396,3.4116,3.3483,3.2774,3.2823,3.2765,3.3,2.9026,2.9345,2.8199,2.7751,2.7671,2.6899,2.6168,2.5346,2.5163,2.4609,2.4125,2.4332,2.448,2.4587,2.4833,2.4913,2.4827,2.4785,2.4525,2.4158,2.4881,2.5038,2.462,2.5954,2.6264,2.5658,2.6227,2.6627,2.6616,2.6303,2.5937,2.5624,2.5306,2.4934,2.4519,2.4864,2.5044,2.511,2.4877,2.4935,2.5448,2.5108,2.4921,2.5135,2.5533,2.5936,2.6292,2.6147,2.6679,2.7815,2.8085,2.8438,2.8967,2.9047,2.9437,3.0364,3.0221,3.0671,3.1806,3.2228,3.2427,3.2768,3.3303,3.3563,3.3838,3.4268,3.4745,3.5111,3.5396,3.5622,3.579,3.5946,3.6202,3.6672,3.6654,3.6937,3.763,3.7925,3.8299,3.8867,3.9132,3.944,3.9926,4.0121,4.0078,4.0086,4.0269,4.0468,4.0324,4.0628,4.0847,4.0716,4.0236,3.9658,3.946,3.9296,3.9117,3.9037,3.9069,3.9389,3.9532,3.9134,3.8282,3.7746,3.6357,3.5292,3.5021,3.4396,3.4492,3.4499,3.3825,3.3398,3.3578,3.3662,3.375,2.9722,2.9816,2.9254,2.8507,2.7811,2.7189,2.6214,2.514,2.4871,2.4726,2.4686,2.4735,2.4981,2.5284,2.544,2.544,2.5421,2.5383,2.5063,2.4715,2.5258,2.54,2.53,2.6417,2.7054,2.6889,2.68,2.6906,2.6904,2.6374,2.5953,2.5791,2.5601,2.54,2.5248,2.5591,2.591,2.6279,2.5943,2.5855,2.605,2.5812,2.5541,2.5324,2.5688,2.6107,2.6577,2.6616,2.7,2.7669,2.7934,2.8457,2.9062,2.9327,2.982,3.0584,3.0631,3.0924,3.179,3.1848,3.1928,3.2191,3.2323,3.2674,3.3324,3.3736,3.4355,3.5081,3.5458,3.5661,3.5863,3.6422,3.678,3.6882,3.6801,3.7157,3.7946,3.8061,3.8639,3.9625,3.9433,3.9385,3.9809,4.0011,4.0087,4.0096,4.0246,4.0387,4.0527,4.0558,4.0704,4.0789,4.0377,4.0144,4.0045,3.9897,3.9751,3.9636,3.9653,3.9628,3.9738,3.9255,3.8454,3.7381,3.6011,3.5238,3.4984,3.4828,3.4841,3.4592,3.3931,3.4037,3.4499,3.458,3.4443,2.9837,2.9816,2.938,2.8796,2.8045,2.758,2.6901,2.6032,2.5785,2.5708,2.5642,2.5524,2.5526,2.5664,2.5684,2.5684,2.5684,2.5684,2.5489,2.5217,2.5752,2.5842,2.5558,2.6368,2.7233,2.7502,2.7078,2.6995,2.7236,2.6442,2.599,2.599,2.5822,2.577,2.5819,2.5901,2.6314,2.6979,2.637,2.6205,2.6521,2.619,2.5804,2.5584,2.584,2.6154,2.6521,2.682,2.7167,2.759,2.8046,2.8605,2.9233,2.9361,2.9763,3.0569,3.0734,3.0995,3.1819,3.1692,3.1615,3.1898,3.1752,3.2088,3.2958,3.3399,3.4051,3.5094,3.5435,3.5622,3.5924,3.6659,3.7194,3.745,3.7647,3.7943,3.8601,3.8722,3.9054,3.9766,3.9606,3.9522,3.9732,3.9935,3.9986,3.9969,4.0163,4.0305,4.0436,4.0485,4.0631,4.0745,4.0611,4.0528,4.0621,4.05,4.0311,4.0228,4.0144,4.0043,4.0018,3.9052,3.8139,3.6915,3.5572,3.5315,3.5062,3.4825,3.4708,3.4303,3.421,3.4532,3.4872,3.4772,3.472,2.9668,2.9533,2.8896,2.863,2.8459,2.8269,2.7925,2.7764,2.7653,2.7272,2.6804,2.6487,2.6152,2.584,2.582,2.5781,2.5732,2.5684,2.5674,2.5781,2.6137,2.6242,2.6115,2.6362,2.6911,2.7468,2.6948,2.6883,2.7229,2.6607,2.624,2.624,2.6074,2.5988,2.6038,2.5792,2.6378,2.7132,2.6195,2.6275,2.7238,2.637,2.5784,2.5923,2.6119,2.6305,2.6465,2.6922,2.7369,2.7822,2.8247,2.8753,2.9185,2.9073,2.9543,3.0733,3.0541,3.1046,3.1723,3.1743,3.1643,3.184,3.1785,3.2047,3.2908,3.335,3.3994,3.5144,3.5412,3.56,3.6046,3.6889,3.7705,3.8454,3.8853,3.9355,3.991,3.9868,3.9817,3.9817,3.9781,3.9703,3.9703,3.9824,3.9824,3.9833,4.0054,4.018,4.0213,4.0337,4.0485,4.0534,4.0558,4.06,4.06,4.0502,4.032,4.0245,4.0169,4.0,3.9866,3.8916,3.8119,3.6827,3.5643,3.5388,3.5211,3.5044,3.4964,3.4914,3.4964,3.5102,3.5068,3.5015,3.4998,3.0123,2.998,2.9601,2.9197,2.8787,2.8511,2.832,2.8076,2.7945,2.7673,2.7282,2.7053,2.6804,2.6458,2.6132,2.6014,2.5965,2.5781,2.5684,2.5781,2.6265,2.6672,2.6846,2.6822,2.6955,2.7264,2.6917,2.6836,2.7167,2.6888,2.6674,2.6697,2.6467,2.6206,2.599,2.6217,2.6465,2.6721,2.6825,2.6664,2.6833,2.6805,2.6516,2.628,2.644,2.6692,2.6998,2.7516,2.7901,2.813,2.8162,2.8709,2.9479,2.9421,2.9826,3.0852,3.1115,3.1371,3.1964,3.1863,3.1623,3.1555,3.1709,3.2013,3.256,3.3301,3.415,3.5067,3.5458,3.5667,3.6137,3.7254,3.8488,3.9696,3.991,3.9934,3.9944,3.9926,3.9884,3.9858,3.9798,3.9668,3.9616,3.9651,3.9746,3.9746,3.9875,4.0054,4.0087,4.0146,4.0296,4.0379,4.0429,4.0478,4.0478,4.0404,4.0303,4.0194,3.9957,3.9619,3.9357,3.8781,3.8194,3.7475,3.6118,3.5566,3.5526,3.5436,3.5435,3.536,3.5337,3.5314,3.536,3.5316,3.5247,3.018,2.9981,2.9551,2.9146,2.8852,2.876,2.8754,2.8707,2.8431,2.8087,2.7784,2.7502,2.7181,2.6693,2.6603,2.6463,2.6265,2.6014,2.5917,2.6081,2.6486,2.6806,2.6995,2.7102,2.7162,2.7021,2.6975,2.7108,2.726,2.7208,2.7023,2.6764,2.6748,2.6366,2.5701,2.6168,2.6652,2.6812,2.6906,2.6917,2.7368,2.7014,2.6839,2.6683,2.6794,2.6998,2.7403,2.7901,2.8203,2.8317,2.847,2.8931,2.9662,2.9754,3.0175,3.1146,3.1322,3.1667,3.2081,3.1917,3.1732,3.1756,3.1871,3.2174,3.2763,3.3406,3.415,3.5134,3.5396,3.56,3.6105,3.7353,3.8875,4.0044,4.0355,4.0205,4.0003,3.9952,3.9884,3.9849,3.9746,3.959,3.9528,3.9606,3.9616,3.9642,3.9798,3.9926,3.9986,4.0045,4.0121,4.0238,4.028,4.0288,4.0313,4.0263,4.0136,4.0026,3.9687,3.9357,3.872,3.8313,3.7755,3.7115,3.631,3.5795,3.5773,3.5689,3.5554,3.5503,3.5498,3.5514,3.552,3.5643,3.5557,3.0177,2.989,2.9146,2.883,2.8867,2.9026,2.9335,2.9556,2.9281,2.887,2.8482,2.8117,2.76,2.6754,2.7016,2.6907,2.6496,2.6146,2.6124,2.6307,2.6558,2.6669,2.6572,2.7107,2.7134,2.6896,2.7249,2.7371,2.7383,2.7394,2.7059,2.6673,2.6714,2.6337,2.5796,2.6007,2.6738,2.7206,2.6892,2.716,2.7761,2.7411,2.7058,2.7058,2.7013,2.7224,2.7604,2.8005,2.8276,2.8338,2.8807,2.9292,2.9768,3.0023,3.0464,3.1058,3.1452,3.1752,3.217,3.2133,3.2055,3.2276,3.2183,3.2368,3.3181,3.3663,3.431,3.5218,3.5314,3.5655,3.6367,3.7479,3.8758,3.9988,4.033,4.0322,4.0239,4.0104,4.0019,4.0002,3.9802,3.9671,3.9627,3.9561,3.9537,3.972,3.9824,3.991,3.9986,4.0045,4.0121,4.0213,4.0188,4.0138,4.0138,4.0138,3.996,3.9808,3.941,3.8918,3.8031,3.7477,3.6939,3.6365,3.6161,3.6012,3.5975,3.5866,3.5711,3.5644,3.5678,3.5639,3.5628,3.5834,3.5843,3.0953,3.099,3.0008,2.9507,2.9436,2.9501,2.9764,3.0162,3.012,2.988,2.9703,2.9059,2.8473,2.8027,2.7378,2.6886,2.6754,2.6212,2.5849,2.5773,2.6159,2.622,2.6224,2.6791,2.7057,2.7042,2.7196,2.7244,2.724,2.7254,2.6909,2.6422,2.6457,2.6177,2.585,2.6113,2.6603,2.71,2.7205,2.7475,2.7841,2.7831,2.7546,2.7408,2.7243,2.7452,2.7833,2.7971,2.8211,2.8602,2.89,2.9379,2.9986,3.0042,3.05,3.1275,3.1596,3.1966,3.2551,3.2625,3.261,3.2615,3.3042,3.3404,3.3408,3.4155,3.4721,3.5245,3.5417,3.6015,3.7267,3.7905,3.8911,3.9954,4.0478,4.0707,4.0985,4.089,4.0779,4.0796,4.0656,4.0521,4.0454,3.9886,3.9778,3.9815,3.9858,3.9935,3.9995,4.007,4.0138,4.0213,4.0138,4.0062,3.9961,3.9893,3.9733,3.9564,3.9183,3.8945,3.8018,3.7131,3.6775,3.6519,3.6329,3.6219,3.6014,3.6019,3.5866,3.5861,3.588,3.5988,3.609,3.619,3.636,3.1336,3.1093,3.025,2.9778,2.9627,2.9606,2.9911,3.0287,3.015,3.0042,2.983,2.9373,2.8873,2.8327,2.7938,2.7596,2.7084,2.6494,2.5931,2.572,2.5899,2.6096,2.6258,2.6552,2.6846,2.7085,2.7412,2.7467,2.7431,2.7463,2.7217,2.6336,2.6469,2.6256,2.578,2.6178,2.6697,2.7164,2.7551,2.7844,2.7983,2.8075,2.8022,2.7749,2.7501,2.7488,2.7707,2.7976,2.8243,2.864,2.9155,2.9695,3.0181,3.0322,3.0792,3.1405,3.1682,3.2007,3.2551,3.2866,3.2966,3.3115,3.3604,3.3825,3.3958,3.451,3.4897,3.5222,3.5495,3.6104,3.7773,3.851,3.9231,4.0078,4.0576,4.0837,4.1106,4.1273,4.1367,4.1342,4.111,4.0761,4.0456,4.0085,3.9899,3.9875,3.9944,4.002,4.0113,4.0171,4.0188,4.0188,4.0087,3.9986,3.9833,3.9689,3.9488,3.9295,3.9065,3.8937,3.8546,3.7678,3.6837,3.6616,3.6355,3.6076,3.5927,3.5949,3.6202,3.6444,3.6547,3.6571,3.6718,3.7013,3.7114,3.1462,3.0936,3.0325,2.9931,2.9711,2.9711,2.9984,3.0369,2.9949,2.9886,2.9629,2.955,2.9015,2.8444,2.8471,2.8142,2.739,2.6806,2.6094,2.5434,2.5622,2.5937,2.6309,2.6534,2.6772,2.6962,2.7545,2.7735,2.7666,2.7857,2.7322,2.6445,2.6651,2.6456,2.5909,2.6244,2.693,2.7455,2.7998,2.8191,2.827,2.843,2.8433,2.7833,2.7534,2.7332,2.7449,2.7749,2.8124,2.8449,2.9511,3.0101,3.0387,3.0672,3.1058,3.1495,3.1695,3.2079,3.2578,3.2881,3.3134,3.3642,3.3848,3.4101,3.4407,3.461,3.4883,3.5248,3.5625,3.6329,3.7736,3.8673,3.9518,4.0356,4.0717,4.0948,4.1133,4.1626,4.2007,4.1604,4.1452,4.1155,4.0654,4.0256,4.0062,3.9952,4.0062,4.0138,4.0247,4.0238,4.0255,4.0163,4.0037,3.9858,3.972,3.9738,3.9496,3.9312,3.9075,3.9149,3.9056,3.8427,3.7564,3.6677,3.6316,3.6039,3.5992,3.6217,3.6512,3.6939,3.7206,3.7263,3.7539,3.7865,3.7904,3.1664,3.1349,3.0611,3.0287,3.0235,3.0036,3.0245,3.0598,3.0204,3.0375,3.0767,2.9921,2.94,2.9139,2.8578,2.7782,2.6922,2.6448,2.5899,2.5283,2.5338,2.5698,2.6137,2.652,2.6787,2.7196,2.7661,2.7715,2.7424,2.7421,2.7286,2.6574,2.6557,2.6442,2.6615,2.6806,2.7309,2.7872,2.8512,2.8752,2.8628,2.8823,2.871,2.787,2.7505,2.7244,2.7168,2.7336,2.7755,2.8407,2.9604,3.0254,3.0553,3.0866,3.119,3.1581,3.1749,3.2056,3.2703,3.2978,3.3282,3.3617,3.3924,3.4176,3.4464,3.4643,3.4923,3.5435,3.6173,3.7091,3.7953,3.8945,3.9675,4.0463,4.1281,4.1736,4.1819,4.2345,4.2608,4.1825,4.1643,4.1484,4.0932,4.0467,4.0256,4.0163,4.0263,4.0382,4.0476,4.0416,4.0339,4.0197,3.9986,3.9798,3.9563,3.9651,3.9612,3.9546,3.9446,3.9674,3.9538,3.914,3.8413,3.7452,3.654,3.6017,3.6107,3.6452,3.6956,3.7473,3.774,3.8001,3.8353,3.8676,3.8705,3.1614,3.1296,3.1102,3.0858,3.0609,3.0349,3.0358,3.0536,3.0261,3.0288,3.0334,2.9936,2.962,2.9435,2.9168,2.8176,2.7099,2.6239,2.5816,2.5391,2.5464,2.5801,2.6229,2.6644,2.7044,2.7493,2.7851,2.7813,2.7346,2.7619,2.7476,2.7185,2.7085,2.7236,2.74,2.7541,2.7725,2.8245,2.8731,2.8879,2.8485,2.8852,2.8589,2.837,2.7834,2.7514,2.7214,2.7322,2.7713,2.8403,2.927,3.0131,3.0587,3.0778,3.1022,3.1662,3.165,3.194,3.2711,3.3032,3.3282,3.3642,3.3933,3.4226,3.4472,3.4691,3.497,3.5572,3.6702,3.7647,3.8155,3.9333,4.0287,4.0877,4.1747,4.202,4.1985,4.2684,4.2386,4.1795,4.1743,4.1518,4.1028,4.0656,4.0463,4.0436,4.0478,4.0608,4.0772,4.0847,4.0836,4.0501,4.0273,3.9724,3.9568,3.967,3.9645,3.9587,3.9672,3.9901,3.9843,3.9378,3.8897,3.8173,3.7287,3.6462,3.6534,3.6998,3.75,3.8088,3.8734,3.9224,3.9306,3.942,3.9564,3.1508,3.1127,3.1329,3.1219,3.0909,3.0493,3.0404,3.0428,3.0042,2.9954,3.0041,2.9947,2.982,2.9691,2.9375,2.8701,2.7503,2.653,2.6055,2.5804,2.5843,2.6218,2.6644,2.7023,2.7398,2.78,2.8409,2.8195,2.7902,2.7951,2.7988,2.8049,2.8061,2.8062,2.8209,2.8273,2.827,2.8259,2.8592,2.8652,2.8524,2.8622,2.8762,2.8833,2.8357,2.7737,2.7156,2.7264,2.7525,2.8126,2.8901,2.9784,3.0572,3.0328,3.0653,3.1622,3.1222,3.1581,3.2311,3.2834,3.3029,3.3409,3.3928,3.4259,3.4546,3.4828,3.5128,3.5698,3.6941,3.7959,3.8407,3.9817,4.0758,4.1279,4.1864,4.2341,4.1911,4.1986,4.2178,4.187,4.1797,4.1557,4.1144,4.0786,4.0551,4.0788,4.083,4.1123,4.1271,4.1658,4.1606,4.1086,4.057,3.9809,3.958,3.968,3.9613,3.9461,3.9656,3.9893,3.9792,3.9573,3.9134,3.8781,3.8171,3.7493,3.754,3.7559,3.8095,3.8809,3.9829,4.0323,4.0256,4.0484,4.0742,3.1169,3.115,3.1004,3.1127,3.1308,3.0544,3.028,3.04,2.9628,2.9763,3.0334,3.01,3.0091,3.0123,2.943,2.8677,2.7886,2.7081,2.6447,2.6168,2.6196,2.6528,2.709,2.766,2.7813,2.8177,2.8935,2.9101,2.8749,2.8458,2.8651,2.8991,2.8712,2.8673,2.8809,2.8809,2.8605,2.8325,2.8639,2.9,2.9139,2.9206,2.8955,2.8474,2.7966,2.7485,2.704,2.7087,2.7272,2.7511,2.8503,2.9426,2.995,2.9406,3.0202,3.0955,3.1065,3.0658,3.1866,3.2363,3.2752,3.3285,3.3933,3.4407,3.478,3.5034,3.5308,3.5536,3.7072,3.8131,3.8648,3.9939,4.0787,4.1401,4.1957,4.1911,4.1569,4.2026,4.2131,4.1899,4.1846,4.1678,4.1382,4.0995,4.069,4.0961,4.1243,4.1538,4.1822,4.2194,4.2031,4.1468,4.0773,4.0011,3.9725,3.9792,3.9732,3.9496,3.9664,3.991,3.9817,3.9767,3.9783,3.9371,3.8813,3.8333,3.8126,3.8268,3.871,3.941,4.0341,4.0807,4.106,4.142,4.1826,3.0695,3.0993,3.1322,3.1629,3.1706,3.0904,3.0545,3.0346,2.9564,2.942,2.9903,2.9953,3.0056,3.0111,2.9173,2.8408,2.7909,2.7279,2.6744,2.6573,2.664,2.6928,2.7272,2.7813,2.8172,2.8695,2.9184,2.9736,2.9479,2.9028,2.8856,2.9386,2.9037,2.8843,2.9181,2.9248,2.9031,2.8831,2.8896,2.9051,2.9224,2.9333,2.9258,2.8965,2.8426,2.7842,2.7382,2.7103,2.7269,2.7517,2.8205,2.8847,2.951,2.952,2.9843,3.0524,3.0517,3.0977,3.2184,3.2331,3.272,3.3433,3.4154,3.4723,3.5041,3.5238,3.5618,3.623,3.7339,3.8263,3.9003,4.0262,4.0839,4.1435,4.2033,4.1853,4.1737,4.219,4.2416,4.2137,4.1922,4.198,4.1892,4.1484,4.1261,4.136,4.1757,4.2191,4.2427,4.2727,4.2318,4.1613,4.0891,4.0146,4.002,4.0003,3.9986,3.9826,3.9826,4.0011,3.9961,3.9944,3.991,3.9833,3.9396,3.9009,3.874,3.8799,3.9057,3.9876,4.0798,4.1221,4.166,4.2281,4.2509,3.0516,3.0983,3.1578,3.1975,3.2123,3.1274,3.0762,3.0506,2.9543,2.9206,2.9465,2.9715,3.0029,2.9946,2.9139,2.8507,2.83,2.749,2.7142,2.7074,2.7134,2.7342,2.7689,2.8151,2.8669,2.9248,2.977,3.0062,2.9981,2.9632,2.9278,2.9737,2.9284,2.9181,2.9382,2.9494,2.9381,2.9086,2.9172,2.9218,2.9236,2.938,2.9477,2.9319,2.8916,2.8299,2.7835,2.7243,2.7174,2.7295,2.7579,2.8299,2.9265,2.9435,2.9746,3.0259,3.0328,3.0758,3.1696,3.2218,3.2805,3.3581,3.4456,3.4994,3.5337,3.5417,3.5748,3.6637,3.7468,3.8438,3.9425,4.0481,4.1013,4.1556,4.213,4.1967,4.1997,4.2544,4.2881,4.2734,4.2652,4.2832,4.2621,4.2092,4.1877,4.1862,4.2237,4.2812,4.3162,4.3467,4.2868,4.2193,4.1307,4.0535,4.0121,4.0054,4.0104,4.0113,4.0113,4.0113,4.0087,3.9986,3.991,3.9833,3.9729,3.9578,3.9226,3.927,3.9396,4.0332,4.1169,4.1762,4.2277,4.2928,4.3322,3.1127,3.1178,3.127,3.1874,3.2678,3.1521,3.0864,3.0541,2.9534,2.9134,2.9294,2.9569,2.9957,2.9989,2.9391,2.8921,2.908,2.8226,2.7806,2.7624,2.7565,2.7779,2.8156,2.8605,2.904,2.9675,3.0226,3.0394,3.022,2.9917,3.0007,3.0432,2.949,2.9536,2.9665,2.9738,2.961,2.9355,2.9415,2.9446,2.9415,2.9477,2.9602,2.938,2.8683,2.795,2.7764,2.7141,2.6726,2.6821,2.7164,2.7794,2.88,2.9083,2.9539,2.9977,3.0248,3.0585,3.1118,3.155,3.2208,3.3217,3.4334,3.5175,3.5469,3.5492,3.5931,3.6789,3.7661,3.8547,3.9506,4.0406,4.11,4.1644,4.2114,4.2283,4.2463,4.3078,4.3336,4.3273,4.3353,4.3583,4.3725,4.3312,4.276,4.2704,4.3103,4.3655,4.4154,4.4371,4.364,4.2877,4.1903,4.1019,4.018,4.0079,4.018,4.0188,4.0163,4.0188,4.0213,4.0113,3.9961,3.9807,3.9703,3.9729,3.978,3.979,4.0043,4.0828,4.1538,4.2175,4.2885,4.3624,4.4029,3.1373,3.1699,3.1565,3.1845,3.2358,3.1569,3.0999,3.0474,2.9741,2.9432,2.9466,2.9393,2.948,2.9612,2.9266,2.8827,2.8747,2.8362,2.8094,2.8007,2.8024,2.8223,2.8618,2.8937,2.9392,2.9869,3.0509,3.0621,3.0127,3.0069,2.9851,2.9753,2.936,2.9374,2.954,2.9883,2.9764,2.9635,2.9665,2.9772,2.9463,2.9605,2.9744,2.9631,2.8933,2.8289,2.7938,2.7522,2.7068,2.6852,2.7078,2.7695,2.8364,2.8684,2.9061,2.9591,2.9871,3.0382,3.0502,3.0879,3.1669,3.3334,3.4506,3.5291,3.5492,3.552,3.628,3.7117,3.7844,3.8651,4.0018,4.0709,4.1238,4.1731,4.2108,4.2416,4.2995,4.3642,4.3992,4.3979,4.4168,4.4381,4.4508,4.4582,4.4018,4.3593,4.4063,4.4483,4.4896,4.5027,4.4268,4.3529,4.2569,4.1665,4.0832,4.0552,4.0356,4.0238,4.0213,4.0213,4.0238,4.0163,4.0011,3.9833,3.9677,3.9651,3.9785,4.0129,4.0604,4.1156,4.1902,4.2675,4.3443,4.4226,4.4451,3.1783,3.2112,3.2004,3.2048,3.2116,3.1536,3.1058,3.0485,2.9714,2.9329,2.9311,2.8881,2.897,2.9201,2.909,2.8828,2.8745,2.8538,2.8271,2.8191,2.8355,2.8545,2.8768,2.9156,2.9707,3.0139,3.0607,3.0771,3.0406,3.0346,3.0038,2.9611,2.9155,2.9309,2.9551,2.9958,3.0019,2.9896,2.9943,3.0019,2.9682,2.9775,2.9685,2.9543,2.8875,2.8265,2.7797,2.7376,2.7118,2.6945,2.7093,2.748,2.7968,2.8383,2.8632,2.9041,2.954,3.0291,3.0212,3.1093,3.188,3.3146,3.4559,3.5197,3.5452,3.5583,3.6242,3.7601,3.8129,3.8856,4.0295,4.0875,4.1416,4.1928,4.2468,4.2845,4.3635,4.4306,4.455,4.4742,4.4897,4.4949,4.5076,4.5159,4.4865,4.4534,4.4932,4.514,4.5225,4.5191,4.4734,4.4019,4.3263,4.2398,4.1546,4.1205,4.083,4.0362,4.0313,4.0238,4.023,4.0172,4.0028,3.9781,3.9651,3.9616,3.9716,3.9969,4.0604,4.135,4.2291,4.3386,4.3775,4.4468,4.4558,3.2409,3.2404,3.2404,3.2371,3.2234,3.1433,3.0857,3.0363,2.9455,2.8843,2.8475,2.8297,2.8622,2.9047,2.9025,2.9013,2.9013,2.8961,2.8672,2.838,2.8613,2.8747,2.8937,2.9341,2.9909,3.0955,3.1135,3.098,3.0617,3.0562,3.0182,2.9834,2.9565,2.9634,2.9665,3.0083,3.0219,3.0142,3.028,3.0219,3.0066,3.0066,2.9856,2.9424,2.8883,2.8311,2.7838,2.7397,2.7137,2.698,2.7181,2.7605,2.814,2.858,2.8855,2.9087,2.9574,2.9728,2.9591,3.1819,3.2716,3.306,3.4426,3.5247,3.5452,3.5667,3.6219,3.7645,3.8071,3.8958,4.0014,4.0937,4.1594,4.225,4.2808,4.3485,4.4264,4.4767,4.501,4.5105,4.526,4.5415,4.5555,4.5605,4.5501,4.5495,4.5832,4.5875,4.5709,4.5407,4.5027,4.4578,4.3881,4.304,4.2227,4.1757,4.1305,4.0768,4.0387,4.0288,4.0315,4.0341,4.0112,3.9796,3.9792,3.989,3.9773,3.9699,4.0949,4.2264,4.3219,4.4102,4.4451,4.4598,4.4626,3.2198,3.2169,3.1499,3.1348,3.1467,3.1169,3.0595,2.976,2.8877,2.8403,2.8409,2.8284,2.8538,2.8934,2.9,2.9028,2.9172,2.8776,2.8503,2.8758,2.898,2.9221,2.9414,2.9644,3.0009,3.019,3.0513,3.0517,2.951,3.017,3.0109,2.9754,3.0005,3.0174,3.0205,3.0417,3.0582,3.0522,3.0642,3.0672,3.0296,3.0312,3.0184,2.9747,2.9115,2.8527,2.8034,2.7586,2.7299,2.7163,2.7386,2.7739,2.8066,2.8374,2.8593,2.8947,2.9418,3.0061,3.0398,3.1751,3.27,3.3406,3.4353,3.5234,3.5251,3.5481,3.6392,3.7425,3.8003,3.901,4.0206,4.124,4.203,4.2738,4.3393,4.4128,4.4803,4.5087,4.532,4.532,4.5397,4.5554,4.5684,4.5968,4.5943,4.5898,4.613,4.601,4.5829,4.5641,4.5347,4.5044,4.4475,4.364,4.2928,4.2406,4.1561,4.0804,4.044,4.0263,4.0307,4.0477,4.0323,4.0007,4.0103,4.0164,4.0117,4.044,4.2021,4.332,4.3855,4.4271,4.4502,4.4553,4.4525,3.2146,3.2131,3.1162,3.0731,3.0709,3.0651,3.0079,2.9194,2.843,2.8231,2.8304,2.831,2.8538,2.8855,2.8961,2.8805,2.904,2.8978,2.8429,2.8815,2.9293,2.9413,2.9669,3.0063,3.0259,3.0131,3.0328,3.0371,2.9744,3.009,3.0178,3.0192,3.0431,3.0552,3.0642,3.0791,3.0866,3.0763,3.0764,3.0646,3.044,3.0279,2.993,2.9551,2.9045,2.8452,2.8152,2.7888,2.765,2.7516,2.764,2.7865,2.794,2.8113,2.8372,2.8768,2.9328,3.0195,3.1121,3.1762,3.2705,3.3451,3.4602,3.5131,3.5222,3.5429,3.6167,3.7077,3.7897,3.887,3.999,4.1081,4.214,4.2854,4.3655,4.4354,4.4803,4.5079,4.5423,4.5397,4.5476,4.5615,4.583,4.619,4.64,4.6383,4.6374,4.6196,4.5972,4.5752,4.552,4.5157,4.4854,4.4156,4.3512,4.3065,4.2116,4.0932,4.0687,4.0612,4.0451,4.0612,4.0433,4.0236,4.0191,4.0239,4.0507,4.1208,4.2547,4.332,4.3686,4.4102,4.4485,4.4581,4.4536,3.2222,3.2317,3.134,3.0595,3.0205,2.9897,2.9361,2.8697,2.836,2.8134,2.7945,2.8383,2.8638,2.8828,2.8998,2.8907,2.8639,2.9075,2.8756,2.8674,2.9376,2.9492,2.9745,3.0136,3.0238,3.0635,3.0724,3.0358,3.0336,3.0429,3.0494,3.0592,3.0746,3.091,3.1029,3.1161,3.1102,3.0851,3.048,3.045,3.0394,2.9981,2.9587,2.9195,2.87,2.8184,2.783,2.7547,2.7618,2.7715,2.793,2.798,2.8079,2.829,2.8444,2.8818,2.9349,3.0339,3.1422,3.2007,3.2577,3.3284,3.4349,3.4935,3.5268,3.5434,3.6127,3.6975,3.7857,3.8554,3.9426,4.0693,4.1943,4.2726,4.3544,4.4112,4.4526,4.4898,4.5285,4.545,4.5511,4.5667,4.5924,4.6265,4.6685,4.6621,4.6594,4.6588,4.6351,4.5862,4.5579,4.5113,4.482,4.4561,4.4036,4.3563,4.2852,4.1716,4.1495,4.1367,4.1112,4.0899,4.0881,4.0719,4.0323,4.0389,4.0985,4.1786,4.2793,4.3388,4.3905,4.435,4.4908,4.4771,4.4731,3.1732,3.1823,3.0113,2.9477,2.9563,2.8909,2.8491,2.8349,2.7946,2.7842,2.8122,2.8624,2.8815,2.8852,2.9124,2.9026,2.8949,2.8956,2.9024,2.9207,2.9566,2.9847,3.0011,3.0043,2.9986,2.9892,2.9853,2.9914,2.961,2.9995,3.0567,3.0611,3.0969,3.119,3.1409,3.1611,3.121,3.0808,3.0295,3.0265,3.0342,3.0061,2.961,2.9205,2.8899,2.8432,2.8036,2.7663,2.772,2.7905,2.8152,2.825,2.8299,2.8572,2.8872,2.9753,2.9973,3.0202,3.1177,3.1614,3.2121,3.2931,3.3825,3.4502,3.4918,3.5455,3.606,3.6935,3.7817,3.8544,3.9545,4.0756,4.1521,4.2085,4.302,4.3947,4.4378,4.4785,4.5182,4.5502,4.5563,4.5736,4.5974,4.6508,4.6882,4.6824,4.6831,4.6902,4.6676,4.6192,4.561,4.5145,4.4993,4.4777,4.4415,4.395,4.3323,4.268,4.2398,4.2149,4.1968,4.1764,4.156,4.1306,4.0959,4.1271,4.1827,4.2692,4.3603,4.3995,4.4479,4.4891,4.5168,4.5031,4.492,3.1183,3.1084,2.9488,2.8778,2.8608,2.7992,2.7845,2.8046,2.7795,2.7909,2.8335,2.873,2.8867,2.8849,2.8991,2.8949,2.876,2.8917,2.8997,2.9149,2.9692,2.9834,2.9921,2.9848,2.9617,2.9354,2.9315,2.9528,2.9323,2.987,3.0552,3.0836,3.119,3.1452,3.1575,3.1407,3.1144,3.0785,3.0425,3.0197,3.0216,3.0177,2.9657,2.951,2.9232,2.8778,2.8248,2.777,2.7905,2.8128,2.8411,2.8556,2.8589,2.8794,2.9406,3.0137,3.0052,3.0378,3.1093,3.1446,3.1957,3.2652,3.3506,3.4374,3.4921,3.5427,3.6165,3.6989,3.777,3.8649,3.9781,4.0777,4.0998,4.1235,4.2505,4.3783,4.4275,4.4672,4.5096,4.5459,4.5667,4.5812,4.6164,4.6715,4.7178,4.7296,4.7399,4.7482,4.7108,4.6439,4.5743,4.5105,4.5113,4.5096,4.4699,4.4371,4.3966,4.351,4.3165,4.294,4.2809,4.2266,4.1741,4.1673,4.1699,4.2167,4.2762,4.3622,4.4443,4.4776,4.5026,4.5286,4.5416,4.5262,4.5152,3.0657,3.0497,2.9319,2.835,2.7572,2.7412,2.7539,2.7841,2.7852,2.8122,2.851,2.8797,2.8925,2.8904,2.9038,2.8812,2.8735,2.8885,2.9003,2.8938,2.9606,2.9846,2.9726,2.9563,2.9235,2.9151,2.9226,2.9338,2.9638,3.0129,3.0702,3.1117,3.1409,3.1578,3.1561,3.1338,3.114,3.0922,3.0651,3.0434,3.0533,3.0057,2.9277,2.9384,2.9045,2.8531,2.7956,2.7845,2.8076,2.8365,2.8543,2.8678,2.8944,2.9107,2.9795,3.0103,3.0053,3.0397,3.0888,3.1247,3.1883,3.2684,3.3661,3.4298,3.4779,3.5351,3.6083,3.7064,3.7912,3.8738,3.98,4.0869,4.1361,4.1643,4.2496,4.3285,4.3647,4.4319,4.5148,4.5494,4.571,4.5812,4.5932,4.643,4.6741,4.7314,4.7819,4.7891,4.7694,4.6984,4.6277,4.5508,4.5562,4.5589,4.5001,4.4742,4.4644,4.4323,4.3951,4.3819,4.3741,4.2866,4.1776,4.2125,4.2619,4.3134,4.3786,4.4498,4.5062,4.5507,4.5719,4.5753,4.5657,4.5386,4.5192,3.088,3.0298,2.9398,2.8289,2.7228,2.7607,2.7718,2.7626,2.7852,2.8191,2.8718,2.9156,2.9236,2.9049,2.9383,2.9116,2.859,2.8841,2.8983,2.9013,2.939,2.9626,2.9538,2.9123,2.883,2.8783,2.8938,2.9338,2.9862,3.0371,3.0762,3.1102,3.1423,3.1588,3.1422,3.1328,3.1486,3.1169,3.1085,3.0814,3.0722,3.0909,3.0672,2.9916,2.9204,2.8783,2.8182,2.7513,2.7907,2.83,2.8279,2.8656,2.9289,2.9515,2.9752,3.0004,3.0256,3.0565,3.0759,3.1106,3.1603,3.2264,3.3079,3.3799,3.4465,3.5178,3.6056,3.71,3.8058,3.8877,3.9825,4.0891,4.1759,4.2093,4.2504,4.2814,4.3133,4.4139,4.5148,4.5459,4.5693,4.5795,4.5871,4.6065,4.6383,4.693,4.7653,4.8009,4.8238,4.7865,4.7264,4.665,4.6386,4.6195,4.5476,4.5017,4.4929,4.4927,4.4649,4.4612,4.4592,4.3793,4.292,4.3224,4.3667,4.4008,4.4406,4.4984,4.5544,4.6131,4.6011,4.5881,4.5565,4.5261,4.5073,3.0415,2.9845,2.9127,2.806,2.7114,2.7447,2.7596,2.7569,2.7788,2.8191,2.8669,2.9123,2.9309,2.9209,2.9557,2.9322,2.862,2.8833,2.8987,2.9026,2.8983,2.92,2.9064,2.8817,2.847,2.8432,2.8869,2.9383,3.0097,3.0492,3.0851,3.1029,3.1335,3.153,3.1306,3.1732,3.184,3.1473,3.1546,3.1396,3.1012,3.107,3.0782,2.9924,2.9449,2.89,2.8067,2.7369,2.7736,2.8272,2.85,2.8991,2.9512,2.97,3.0048,3.0462,3.0767,3.0912,3.0948,3.1174,3.1529,3.2252,3.2785,3.3616,3.4852,3.5594,3.628,3.7286,3.8013,3.8824,4.0082,4.118,4.1614,4.1948,4.2674,4.3249,4.3828,4.4639,4.5243,4.5529,4.5684,4.5718,4.5846,4.6055,4.6428,4.7171,4.7815,4.8327,4.8519,4.8922,4.8315,4.7699,4.7422,4.6533,4.5536,4.5224,4.5161,4.5159,4.522,4.4795,4.4468,4.4371,4.4198,4.4136,4.4204,4.4516,4.4966,4.5494,4.6194,4.6842,4.6412,4.5867,4.5535,4.5231,4.5043,2.9851,2.9285,2.8743,2.7909,2.7035,2.7241,2.737,2.7534,2.7748,2.807,2.8471,2.8867,2.9157,2.9392,2.9471,2.9098,2.8899,2.8988,2.9051,2.8998,2.8758,2.8972,2.8963,2.8712,2.8364,2.8398,2.8826,2.9449,3.0144,3.0507,3.0762,3.0896,3.116,3.1492,3.1511,3.1609,3.1624,3.1794,3.1894,3.199,3.1632,3.1197,3.0652,3.014,2.9394,2.8396,2.7614,2.7165,2.7447,2.8196,2.8808,2.9393,2.9667,2.9842,3.039,3.0822,3.1194,3.1336,3.1505,3.175,3.2174,3.2622,3.2988,3.3773,3.4986,3.575,3.6437,3.7322,3.8048,3.8952,4.0175,4.1427,4.1786,4.1968,4.2814,4.3748,4.4448,4.4992,4.5252,4.5528,4.5581,4.5615,4.577,4.5963,4.655,4.7309,4.8015,4.8547,4.9064,4.9641,4.967,4.8916,4.8329,4.7254,4.5898,4.5458,4.5422,4.5353,4.5302,4.4782,4.4471,4.4682,4.4734,4.4561,4.4699,4.5044,4.5433,4.5944,4.6686,4.7234,4.6429,4.5719,4.5785,4.548,4.5169,3.0135,2.864,2.8865,2.8236,2.7328,2.7633,2.7722,2.7516,2.7563,2.7846,2.8287,2.8685,2.9131,2.9753,2.9921,2.9606,2.9088,2.9112,2.9162,2.9135,2.853,2.8679,2.8808,2.856,2.8292,2.8471,2.8849,2.9279,2.9976,3.0447,3.0702,3.0807,3.1102,3.12,3.0909,3.1175,3.1726,3.1848,3.2016,3.2114,3.1674,3.1266,3.1004,3.0202,2.9062,2.8119,2.7233,2.6332,2.6841,2.7816,2.8988,2.9613,2.9891,3.0021,3.0564,3.123,3.1605,3.1759,3.1979,3.2354,3.2757,3.2584,3.3044,3.3879,3.4818,3.5301,3.6224,3.7452,3.819,3.8889,4.0173,4.1928,4.2668,4.2433,4.2808,4.401,4.494,4.5067,4.5152,4.53,4.5406,4.5432,4.5502,4.5797,4.6194,4.7046,4.7996,4.8563,4.9265,5.0031,5.0849,5.002,4.9168,4.8028,4.6702,4.5944,4.5754,4.565,4.5494,4.5129,4.5034,4.5329,4.5286,4.4975,4.5226,4.5632,4.6031,4.6264,4.6523,4.6805,4.6054,4.5552,4.5704,4.5623,4.5223]}]]